[[{"header":{"parameterUnit":"m.s-1","parameterCategory":1,"la1":30.6,"la2":28.766,"lo1":-90.7593,"lo2":-88.6598,"dy":0.0162,"dx":0.0183,"nx":116,"ny":114,"refTime":"2023-07-11T06:00:00:Z","depth":0,"parameterNumber":2,"parameterNumberName":"U-component_of_WINDS"},"data":[0.0,0.0,0.0,0.0,0.0,0.0,0.0,0.0,0.0,0.0,0.0,0.0,0.0,0.0,0.0,0.0,0.0,0.0,0.0,0.0,0.0,0.0,0.0,0.0,0.0,0.0,0.0,0.0,0.0,0.0,0.0,0.0,0.0,0.0,0.0,0.0,0.0,0.0,0.0,0.0,0.0,0.0,0.0,0.0,0.0,0.0,0.0,0.0,0.0,0.0,0.0,0.0,0.0,0.0,0.0,0.0,0.0,0.0,0.0,0.0,0.0,0.0,0.0,0.0,0.0,0.0,0.0,0.0,0.0,0.0,0.0,0.0,0.0,0.0,0.0,0.0,0.0,0.0,0.0,0.0,0.0,0.0,0.0,0.0,0.0,0.0,0.0,0.0,0.0,0.0,0.0,0.0,0.0,0.0,0.0,0.0,0.0,0.0,0.0,0.0,0.0,0.0,0.0,0.0,0.0,0.0,0.0,0.0,0.0,0.0,0.0,0.0,0.0,0.0,0.0,0.0,0.0,0.0,0.0,0.0,0.0,0.0,0.0,0.0,0.0,0.0,0.0,0.0,0.0,0.0,0.0,0.0,0.0,0.0,0.0,0.0,0.0,0.0,0.0,0.0,0.0,0.0,0.0,0.0,0.0,0.0,0.0,0.0,0.0,0.0,0.0,0.0,0.0,0.0,0.0,0.0,0.0,0.0,0.0,0.0,0.0,0.0,0.0,0.0,0.0,0.0,0.0,0.0,0.0,0.0,0.0,0.0,0.0,0.0,0.0,0.0,0.0,0.0,0.0,0.0,0.0,0.0,0.0,0.0,0.0,0.0,0.0,0.0,0.0,0.0,0.0,0.0,0.0,0.0,0.0,0.0,0.0,0.0,0.0,0.0,0.0,0.0,0.0,0.0,0.0,0.0,0.0,0.0,0.0,0.0,0.0,0.0,0.0,0.0,0.0,0.0,0.0,0.0,0.0,0.0,0.0,0.0,0.0,0.0,0.0,0.0,0.0,0.0,0.0,0.0,0.0,0.0,0.0,0.0,0.0,0.0,0.0,0.0,0.0,0.0,0.0,0.0,0.0,0.0,0.0,0.0,0.0,0.0,0.0,0.0,0.0,0.0,0.0,0.0,0.0,0.0,0.0,0.0,0.0,0.0,0.0,0.0,0.0,0.0,0.0,0.0,0.0,0.0,0.0,0.0,0.0,0.0,0.0,0.0,0.0,0.0,0.0,0.0,0.0,0.0,0.0,0.0,0.0,0.0,0.0,0.0,0.0,0.0,0.0,0.0,0.0,0.0,0.0,0.0,0.0,0.0,0.0,0.0,0.0,0.0,0.0,0.0,0.0,0.0,0.0,0.0,0.0,0.0,0.0,0.0,0.0,0.0,0.0,0.0,0.0,0.0,0.0,0.0,0.0,0.0,0.0,0.0,0.0,0.0,0.0,0.0,0.0,0.0,0.0,0.0,0.0,0.0,0.0,0.0,0.0,0.0,0.0,0.0,0.0,0.0,0.0,0.0,0.0,0.0,0.0,0.0,0.0,0.0,0.0,0.0,0.0,0.0,0.0,0.0,0.0,0.0,0.0,0.0,0.0,0.0,0.0,0.0,0.0,0.0,0.0,0.0,0.0,0.0,0.0,0.0,0.0,0.0,0.0,0.0,0.0,0.0,0.0,0.0,0.0,0.0,0.0,0.0,0.0,0.0,0.0,0.0,0.0,0.0,0.0,0.0,0.0,0.0,0.0,0.0,0.0,0.0,0.0,0.0,0.0,0.0,0.0,0.0,0.0,0.0,0.0,0.0,0.0,0.0,0.0,0.0,0.0,0.0,0.0,0.0,0.0,0.0,0.0,0.0,0.0,0.0,0.0,0.0,0.0,0.0,0.0,0.0,0.0,0.0,0.0,0.0,0.0,0.0,0.0,0.0,0.0,0.0,0.0,0.0,0.0,0.0,0.0,0.0,0.0,0.0,0.0,0.0,0.0,0.0,0.0,0.0,0.0,0.0,0.0,0.0,0.0,0.0,0.0,0.0,0.0,0.0,0.0,0.0,0.0,0.0,0.0,0.0,0.0,0.0,0.0,0.0,0.0,0.0,0.0,0.0,0.0,0.0,0.0,0.0,0.0,0.0,0.0,0.0,0.0,0.0,0.0,0.0,0.0,0.0,0.0,0.0,0.0,0.0,0.0,0.0,0.0,0.0,0.0,0.0,0.0,0.0,0.0,0.0,0.0,0.0,0.0,0.0,0.0,0.0,0.0,0.0,0.0,0.0,0.0,0.0,0.0,0.0,0.0,0.0,0.0,0.0,0.0,0.0,0.0,0.0,0.0,0.0,0.0,0.0,0.0,0.0,0.0,0.0,0.0,0.0,0.0,0.0,0.0,0.0,0.0,0.0,0.0,0.0,0.0,0.0,0.0,0.0,0.0,0.0,0.0,0.0,0.0,0.0,0.0,0.0,0.0,0.0,0.0,0.0,0.0,0.0,0.0,0.0,0.0,0.0,0.0,0.0,0.0,0.0,0.0,0.0,0.0,0.0,0.0,0.0,0.0,0.0,0.0,0.0,0.0,0.0,0.0,0.0,0.0,0.0,0.0,0.0,0.0,0.0,0.0,0.0,0.0,0.0,0.0,0.0,0.0,0.0,0.0,0.0,0.0,0.0,0.0,0.0,0.0,0.0,0.0,0.0,0.0,0.0,0.0,0.0,0.0,0.0,0.0,0.0,0.0,0.0,0.0,0.0,0.0,0.0,0.0,0.0,0.0,0.0,0.0,0.0,0.0,0.0,0.0,0.0,0.0,0.0,0.0,0.0,0.0,0.0,0.0,0.0,0.0,0.0,0.0,0.0,0.0,0.0,0.0,0.0,0.0,0.0,0.0,0.0,0.0,0.0,0.0,0.0,0.0,0.0,0.0,0.0,0.0,0.0,0.0,0.0,0.0,0.0,0.0,0.0,0.0,0.0,0.0,0.0,0.0,0.0,0.0,0.0,0.0,0.0,0.0,0.0,0.0,0.0,0.0,0.0,0.0,0.0,0.0,0.0,0.0,0.0,0.0,0.0,0.0,0.0,0.0,0.0,0.0,0.0,0.0,0.0,0.0,0.0,0.0,0.0,0.0,0.0,0.0,0.0,0.0,0.0,0.0,0.0,0.0,0.0,0.0,0.0,0.0,0.0,0.0,0.0,0.0,0.0,0.0,0.0,0.0,0.0,0.0,0.0,0.0,0.0,0.0,0.0,0.0,0.0,0.0,0.0,0.0,0.0,0.0,0.0,0.0,0.0,0.0,0.0,0.0,0.0,0.0,0.0,0.0,0.0,0.0,0.0,0.0,0.0,0.0,0.0,0.0,0.0,0.0,0.0,0.0,0.0,0.0,0.0,0.0,0.0,0.0,0.0,0.0,0.0,0.0,0.0,0.0,0.0,0.0,0.0,0.0,0.0,0.0,0.0,0.0,0.0,0.0,0.0,0.0,0.0,0.0,0.0,0.0,0.0,0.0,0.0,0.0,0.0,0.0,0.0,0.0,0.0,0.0,0.0,0.0,0.0,0.0,0.0,0.0,0.0,0.0,0.0,0.0,0.0,0.0,0.0,0.0,0.0,0.0,0.0,0.0,0.0,0.0,0.0,0.0,0.0,0.0,0.0,0.0,0.0,0.0,0.0,0.0,0.0,0.0,0.0,0.0,0.0,0.0,0.0,0.0,0.0,0.0,0.0,0.0,0.0,0.0,0.0,0.0,0.0,0.0,0.0,0.0,0.0,0.0,0.0,0.0,0.0,0.0,0.0,0.0,0.0,0.0,0.0,0.0,0.0,0.0,0.0,0.0,0.0,0.0,0.0,0.0,0.0,0.0,0.0,0.0,0.0,0.0,0.0,0.0,0.0,0.0,0.0,0.0,0.0,0.0,0.0,0.0,0.0,0.0,0.0,0.0,0.0,0.0,0.0,0.0,0.0,0.0,0.0,0.0,0.0,0.0,0.0,0.0,0.0,0.0,0.0,0.0,0.0,0.0,0.0,0.0,0.0,0.0,0.0,0.0,0.0,0.0,0.0,0.0,0.0,0.0,0.0,0.0,0.0,0.0,0.0,0.0,0.0,0.0,0.0,0.0,0.0,0.0,0.0,0.0,0.0,0.0,0.0,0.0,0.0,0.0,0.0,0.0,0.0,0.0,0.0,0.0,0.0,0.0,0.0,0.0,0.0,0.0,0.0,0.0,0.0,0.0,0.0,0.0,0.0,0.0,0.0,0.0,0.0,0.0,0.0,0.0,0.0,0.0,0.0,0.0,0.0,0.0,0.0,0.0,0.0,0.0,0.0,0.0,0.0,0.0,0.0,0.0,0.0,0.0,0.0,0.0,0.0,0.0,0.0,0.0,0.0,0.0,0.0,0.0,0.0,0.0,0.0,0.0,0.0,0.0,0.0,0.0,0.0,0.0,0.0,0.0,0.0,0.0,0.0,0.0,0.0,0.0,0.0,0.0,0.0,0.0,0.0,0.0,0.0,0.0,0.0,0.0,0.0,0.0,0.0,0.0,0.0,0.0,0.0,0.0,0.0,0.0,0.0,0.0,0.0,0.0,0.0,0.0,0.0,0.0,0.0,0.0,0.0,0.0,0.0,0.0,0.0,0.0,0.0,0.0,0.0,0.0,0.0,0.0,0.0,0.0,0.0,0.0,0.0,0.0,0.0,0.0,0.0,0.0,0.0,0.0,0.0,0.0,0.0,0.0,0.0,0.0,0.0,0.0,0.0,0.0,0.0,0.0,0.0,0.0,0.0,0.0,0.0,0.0,0.0,0.0,0.0,0.0,0.0,0.0,0.0,0.0,0.0,0.0,0.0,0.0,0.0,0.0,0.0,0.0,0.0,0.0,0.0,0.0,0.0,0.0,0.0,0.0,0.0,0.0,0.0,0.0,0.0,0.0,0.0,0.0,0.0,0.0,0.0,0.0,0.0,0.0,0.0,0.0,0.0,0.0,0.0,0.0,0.0,0.0,0.0,0.0,0.0,0.0,0.0,0.0,0.0,0.0,0.0,0.0,0.0,0.0,0.0,0.0,0.0,0.0,0.0,0.0,0.0,0.0,0.0,0.0,0.0,0.0,0.0,0.0,0.0,0.0,0.0,0.0,0.0,0.0,0.0,0.0,0.0,0.0,0.0,0.0,0.0,0.0,0.0,0.0,0.0,0.0,0.0,0.0,0.0,0.0,0.0,0.0,0.0,0.0,0.0,0.0,0.0,0.0,0.0,0.0,0.0,0.0,0.0,0.0,0.0,0.0,0.0,0.0,0.0,0.0,0.0,0.0,0.0,0.0,0.0,0.0,0.0,0.0,0.0,0.0,0.0,0.0,0.0,0.0,0.0,0.0,0.0,0.0,0.0,0.0,0.0,0.0,0.0,0.0,0.0,0.0,0.0,0.0,0.0,0.0,0.0,0.0,0.0,0.0,0.0,0.0,0.0,0.0,0.0,0.0,0.0,0.0,0.0,0.0,0.0,0.0,0.0,0.0,0.0,0.0,0.0,0.0,0.0,0.0,0.0,0.0,0.0,0.0,0.0,0.0,0.0,0.0,0.0,0.0,0.0,0.0,0.0,0.0,0.0,0.0,0.0,0.0,0.0,0.0,0.0,0.0,0.0,0.0,0.0,0.0,0.0,0.0,0.0,0.0,0.0,0.0,0.0,0.0,0.0,0.0,0.0,0.0,0.0,0.0,0.0,0.0,0.0,0.0,0.0,0.0,0.0,0.0,0.0,0.0,0.0,0.0,0.0,0.0,0.0,0.0,0.0,0.0,0.0,0.0,0.0,0.0,0.0,0.0,0.0,0.0,0.0,0.0,0.0,0.0,0.0,0.0,0.0,0.0,0.0,0.0,0.0,0.0,0.0,0.0,0.0,0.0,0.0,0.0,0.0,0.0,0.0,0.0,0.0,0.0,0.0,0.0,0.0,0.0,0.0,0.0,0.0,0.0,0.0,0.0,0.0,0.0,0.0,0.0,0.0,0.0,0.0,0.0,0.0,0.0,0.0,0.0,0.0,0.0,0.0,0.0,0.0,0.0,0.0,0.0,0.0,0.0,0.0,0.0,0.0,0.0,0.0,0.0,0.0,0.0,0.0,-2.6533,-2.6533,0.0,0.0,0.0,0.0,0.0,0.0,0.0,0.0,0.0,0.0,0.0,0.0,0.0,0.0,0.0,0.0,0.0,0.0,0.0,0.0,0.0,0.0,0.0,0.0,0.0,0.0,0.0,0.0,0.0,0.0,0.0,0.0,0.0,0.0,0.0,0.0,0.0,0.0,0.0,0.0,0.0,0.0,0.0,0.0,0.0,0.0,0.0,0.0,0.0,0.0,0.0,0.0,0.0,0.0,0.0,0.0,0.0,0.0,0.0,0.0,0.0,0.0,0.0,0.0,0.0,0.0,0.0,0.0,0.0,0.0,0.0,0.0,0.0,0.0,0.0,0.0,0.0,0.0,0.0,0.0,0.0,0.0,0.0,0.0,0.0,0.0,0.0,0.0,0.0,0.0,0.0,0.0,0.0,0.0,0.0,0.0,0.0,0.0,0.0,0.0,0.0,0.0,0.0,0.0,0.0,0.0,0.0,0.0,0.0,0.0,0.0,0.0,0.0,0.0,-2.6533,-2.6533,0.0,0.0,0.0,0.0,0.0,0.0,0.0,0.0,0.0,0.0,0.0,0.0,0.0,0.0,0.0,0.0,0.0,0.0,0.0,0.0,0.0,0.0,0.0,0.0,0.0,0.0,0.0,0.0,0.0,0.0,0.0,0.0,0.0,0.0,0.0,0.0,0.0,0.0,0.0,0.0,0.0,0.0,0.0,0.0,0.0,0.0,0.0,0.0,0.0,0.0,0.0,0.0,0.0,0.0,0.0,0.0,0.0,0.0,0.0,0.0,0.0,0.0,0.0,0.0,0.0,0.0,0.0,0.0,0.0,0.0,0.0,0.0,0.0,0.0,0.0,0.0,0.0,0.0,0.0,0.0,0.0,0.0,0.0,0.0,0.0,0.0,0.0,0.0,0.0,0.0,0.0,0.0,0.0,0.0,0.0,0.0,0.0,0.0,0.0,0.0,0.0,0.0,0.0,0.0,0.0,0.0,0.0,0.0,-2.6533,-2.6533,-2.6533,-2.6533,-2.6533,-2.6533,-2.6533,-2.6533,-2.6533,-2.6533,0.0,0.0,0.0,0.0,0.0,0.0,0.0,0.0,0.0,0.0,0.0,0.0,0.0,0.0,0.0,0.0,0.0,0.0,0.0,0.0,0.0,0.0,0.0,0.0,0.0,0.0,0.0,0.0,0.0,0.0,0.0,0.0,0.0,0.0,0.0,0.0,0.0,0.0,-2.1661,-2.124,-2.1538,-2.2422,-2.2678,0.0,0.0,0.0,0.0,0.0,0.0,0.0,0.0,0.0,0.0,0.0,0.0,0.0,0.0,0.0,0.0,0.0,0.0,0.0,0.0,0.0,0.0,0.0,0.0,0.0,0.0,0.0,0.0,0.0,0.0,0.0,0.0,0.0,0.0,0.0,0.0,0.0,0.0,0.0,0.0,0.0,0.0,0.0,-2.6645,-2.7417,0.0,0.0,0.0,0.0,0.0,0.0,0.0,0.0,0.0,0.0,0.0,0.0,0.0,-2.595,-2.6521,-2.6533,-2.6533,-2.6533,-2.6533,-2.6533,-2.6533,-2.6533,-2.6533,-2.6533,-2.6533,0.0,-2.6533,-2.6533,0.0,0.0,0.0,0.0,0.0,0.0,0.0,0.0,0.0,0.0,0.0,0.0,0.0,0.0,0.0,0.0,0.0,0.0,0.0,0.0,0.0,0.0,0.0,0.0,0.0,0.0,0.0,0.0,0.0,0.0,0.0,0.0,0.0,0.0,0.0,0.0,-2.0388,-2.0369,-2.0829,-2.0852,-2.109,-2.1317,-2.1366,-2.1593,-2.1918,-2.1375,0.0,0.0,0.0,0.0,0.0,0.0,0.0,0.0,0.0,0.0,0.0,0.0,0.0,0.0,0.0,0.0,0.0,0.0,0.0,0.0,0.0,0.0,0.0,0.0,0.0,0.0,0.0,0.0,0.0,0.0,0.0,0.0,0.0,0.0,0.0,0.0,0.0,0.0,0.0,-2.6245,-2.6905,-2.792,-2.8051,-2.8312,0.0,0.0,0.0,0.0,0.0,0.0,0.0,0.0,0.0,-2.6642,-2.6266,-2.6201,-2.6533,-2.6533,-2.6533,-2.6533,-2.6533,-2.6533,-2.6533,-2.6533,-2.6533,-2.6452,-2.6025,-2.5816,-2.5816,-2.5816,-2.53,-2.4443,0.0,0.0,0.0,0.0,-2.1807,-2.1807,0.0,0.0,0.0,0.0,0.0,0.0,0.0,0.0,0.0,0.0,0.0,0.0,0.0,0.0,0.0,-2.0085,0.0,0.0,0.0,0.0,0.0,0.0,0.0,0.0,0.0,0.0,0.0,0.0,-2.027,-2.0074,-2.0085,-2.0445,-2.0539,-2.0328,-1.9991,-2.0292,-2.0897,-2.0236,-1.964,0.0,0.0,0.0,0.0,0.0,0.0,0.0,0.0,0.0,0.0,0.0,0.0,0.0,0.0,0.0,0.0,0.0,0.0,0.0,0.0,0.0,0.0,0.0,0.0,0.0,0.0,0.0,0.0,0.0,0.0,0.0,0.0,0.0,0.0,0.0,0.0,0.0,0.0,-2.6533,-2.6973,-2.8363,-2.837,-2.8606,0.0,0.0,0.0,0.0,0.0,0.0,-2.8057,-2.7133,-2.6687,-2.6984,-2.6553,-2.6314,-2.6533,-2.6533,-2.6533,-2.6533,-2.6533,-2.6533,-2.6533,-2.6533,-2.6383,-2.6176,-2.5523,-2.5099,-2.4731,-2.4945,-2.4288,-2.3287,-2.3065,-2.2628,-2.2122,-2.2008,-2.1983,-2.2004,0.0,0.0,0.0,0.0,0.0,0.0,0.0,0.0,0.0,0.0,0.0,0.0,0.0,0.0,-2.0085,-2.0085,-2.0085,-2.0085,0.0,0.0,0.0,0.0,0.0,0.0,0.0,0.0,0.0,-1.9671,-1.9944,-2.0009,-1.9933,-1.9965,-1.9804,-1.952,-1.8723,-1.9213,-2.0477,-1.9646,-1.9079,-1.8567,0.0,0.0,0.0,0.0,0.0,0.0,0.0,0.0,0.0,0.0,0.0,0.0,0.0,0.0,0.0,0.0,0.0,0.0,0.0,0.0,0.0,0.0,0.0,0.0,0.0,0.0,0.0,0.0,0.0,0.0,0.0,0.0,0.0,0.0,0.0,0.0,0.0,0.0,0.0,-2.8363,-2.7954,0.0,0.0,0.0,0.0,-2.8591,-2.8545,-2.7982,-2.6878,-2.675,-2.6375,-2.5703,-2.5636,-2.59,-2.6521,-2.6533,-2.6533,-2.6533,-2.6533,-2.6533,-2.6533,-2.6533,-2.6094,-2.5382,-2.5312,-2.4443,-2.3139,-2.3841,-2.4108,-2.3975,-2.3276,-2.3001,-2.2906,-2.2604,-2.2459,-2.2522,0.0,0.0,0.0,0.0,0.0,0.0,0.0,0.0,0.0,0.0,0.0,0.0,0.0,-2.0085,-2.0085,-2.0085,-2.0085,-2.0085,-2.0085,0.0,0.0,0.0,0.0,0.0,0.0,0.0,-1.9681,-1.9417,-1.9681,-1.9539,-1.8977,-1.8977,-1.8647,-1.7967,-1.7401,-1.7161,-1.7234,-1.7605,-1.7376,-1.6756,-1.6617,-1.6131,0.0,0.0,0.0,0.0,0.0,0.0,0.0,0.0,0.0,0.0,0.0,0.0,0.0,0.0,0.0,0.0,0.0,0.0,0.0,0.0,0.0,0.0,0.0,0.0,0.0,0.0,0.0,0.0,0.0,0.0,0.0,0.0,0.0,0.0,0.0,0.0,0.0,-2.7247,-2.6807,0.0,-2.826,-2.8189,-2.8104,-2.7982,-2.7954,-2.7583,-2.6608,-2.657,-2.6478,-2.6206,-2.6151,-2.6251,-2.6533,-2.6533,-2.6533,-2.6533,-2.6533,-2.6533,-2.6452,-2.5955,-2.5594,-2.5229,-2.4227,-2.3508,-2.3023,-2.3015,-2.3058,-2.309,-2.3112,-2.316,-2.3103,-2.2953,-2.2946,-2.2967,0.0,0.0,0.0,0.0,0.0,0.0,0.0,0.0,0.0,0.0,0.0,-2.0085,-2.0085,-2.0085,-2.0085,-2.0085,-2.0085,-2.0085,-2.0085,0.0,0.0,0.0,0.0,0.0,0.0,-1.9539,-1.9473,-1.9208,-1.9314,-1.9041,-1.8375,-1.8292,-1.7533,-1.641,-1.6119,-1.5511,-1.4777,-1.5529,-1.5503,-1.4911,-1.5274,-1.4985,-1.4405,0.0,0.0,0.0,0.0,0.0,0.0,0.0,0.0,0.0,0.0,0.0,0.0,0.0,0.0,0.0,0.0,0.0,0.0,0.0,0.0,0.0,0.0,0.0,0.0,0.0,0.0,0.0,0.0,0.0,0.0,0.0,0.0,0.0,0.0,-2.5686,-2.5648,-2.6608,-2.6125,-2.6245,-2.7569,-2.752,-2.7363,-2.7233,-2.7195,-2.7037,-2.6515,-2.6475,-2.6521,-2.6508,-2.6533,-2.6533,-2.6533,-2.6533,-2.6533,-2.6533,-2.6533,-2.6383,-2.6094,-2.5523,-2.5016,-2.4443,-2.3434,-2.2852,-2.2585,-2.2537,-2.2594,-2.276,-2.307,-2.3184,-2.3205,-2.336,-2.3422,-2.3443,0.0,0.0,0.0,0.0,0.0,0.0,0.0,0.0,0.0,0.0,-1.9726,-2.0074,-2.0074,-2.0085,-2.0085,-2.0085,-2.0085,-2.0085,-2.0085,-2.0085,0.0,0.0,0.0,0.0,-1.9208,-1.9407,-1.933,-1.8977,-1.8858,-1.8589,-1.8055,-1.7662,-1.6585,-1.4988,-1.4863,-1.4267,-1.3334,-1.3585,-1.3493,-1.3294,-1.4268,-1.4237,-1.3646,0.0,0.0,0.0,0.0,0.0,0.0,0.0,0.0,0.0,0.0,0.0,0.0,0.0,0.0,0.0,0.0,0.0,0.0,0.0,0.0,0.0,0.0,0.0,0.0,0.0,0.0,0.0,0.0,0.0,0.0,0.0,0.0,0.0,-2.5598,-2.5146,-2.5268,-2.6505,-2.6061,-2.6133,-2.7409,-2.6985,-2.6569,-2.6492,-2.6531,-2.6515,-2.6496,-2.6533,-2.6533,-2.6533,-2.6533,-2.6533,-2.6533,-2.6533,-2.6533,-2.6533,-2.6452,-2.6025,-2.5312,-2.5241,-2.4443,-2.3001,-2.3001,-2.2553,-2.1849,-2.2304,-2.276,-2.3163,-2.3194,-2.3215,-2.3287,-2.3732,-2.3898,-2.396,0.0,0.0,0.0,0.0,0.0,0.0,0.0,0.0,0.0,0.0,-1.9528,-1.9933,-1.9584,-1.9868,-2.0085,-2.0085,-2.0085,-2.0085,-2.0085,0.0,0.0,0.0,0.0,0.0,-1.7736,-1.7677,-1.7465,-1.7083,-1.7025,-1.6402,-1.5172,-1.5221,-1.453,-1.3245,-1.3353,-1.276,-1.1508,-1.1787,-1.1344,-1.0561,-1.223,-1.2157,-1.0961,0.0,0.0,0.0,0.0,0.0,0.0,0.0,0.0,0.0,0.0,0.0,0.0,0.0,0.0,0.0,0.0,0.0,0.0,0.0,0.0,0.0,0.0,0.0,0.0,0.0,0.0,0.0,0.0,0.0,0.0,0.0,-2.4316,-2.5172,-2.5548,-2.5146,-2.5073,-2.5788,-2.5382,-2.5332,-2.6063,-2.6478,-2.6621,-2.6515,-2.693,-2.6994,-2.6521,-2.6533,-2.6533,-2.6533,-2.6533,-2.6533,-2.6533,-2.6533,-2.6533,-2.6465,-2.5886,-2.5523,-2.5241,-2.4154,-2.3434,-2.3001,-2.2402,-2.2025,-2.1849,-2.2304,-2.2573,-2.2749,-2.3422,-2.3888,-2.4188,-2.4312,-2.4364,-2.4289,0.0,0.0,0.0,0.0,0.0,0.0,0.0,0.0,0.0,0.0,-1.9253,-1.966,-1.9299,-1.9386,-1.9605,-2.0074,-1.9671,-1.9528,-1.9726,0.0,0.0,0.0,0.0,-1.6383,-1.6244,-1.6102,-1.5928,-1.578,-1.5455,-1.4731,-1.3531,-1.3454,-1.2643,-1.1282,-1.1458,-1.0697,-0.9427,-0.9648,-0.895,-0.7728,-0.8994,-0.9642,-0.9923,-0.9923,-0.9923,-0.9923,-0.9923,-0.9923,-0.9923,-0.9923,0.0,0.0,0.0,0.0,0.0,0.0,0.0,0.0,0.0,0.0,0.0,0.0,0.0,0.0,0.0,0.0,0.0,0.0,0.0,0.0,0.0,0.0,0.0,0.0,-2.3963,-2.4917,-2.5482,-2.5146,-2.5008,-2.5536,-2.5322,-2.536,-2.59,-2.6353,-2.656,-2.6508,-2.685,-2.6905,-2.6521,-2.6533,-2.6533,-2.6533,-2.6533,-2.6533,-2.6533,-2.6176,-2.6025,-2.6025,-2.5146,-2.4647,-2.4299,-2.3434,-2.2852,-2.2478,-2.2025,-2.1807,-2.1828,-2.2097,-2.2325,-2.2573,0.0,0.0,0.0,0.0,-2.3647,-2.3212,0.0,0.0,0.0,0.0,0.0,0.0,0.0,0.0,0.0,0.0,0.0,-1.9166,-1.91,-1.8767,-1.8911,-1.9813,-1.9054,-1.8633,0.0,0.0,0.0,-1.5598,-1.5238,-1.5026,-1.4751,-1.4445,-1.4412,-1.4537,-1.3846,-1.3074,-1.2157,-1.1793,-1.0749,-0.915,-0.9175,-0.8424,-0.7138,-0.7368,-0.6572,-0.5098,-0.5304,-0.6926,-0.9274,-0.9296,-0.9305,-0.9305,-0.9305,-0.9305,-0.9305,-0.9396,0.0,0.0,0.0,0.0,0.0,0.0,0.0,0.0,0.0,0.0,0.0,0.0,0.0,0.0,0.0,0.0,0.0,0.0,0.0,0.0,0.0,0.0,0.0,0.0,-2.3638,-2.4747,-2.5485,-2.5219,-2.5172,-2.5636,-2.5686,-2.59,-2.6483,-2.6533,-2.6533,-2.6533,-2.6533,-2.6533,-2.6533,-2.6533,0.0,0.0,0.0,-2.6452,-2.6383,-2.5664,-2.5229,-2.5158,-2.4348,-2.3621,-2.3001,-2.2927,-2.2478,-2.1807,-2.1807,-2.1807,-2.1807,-2.1807,-2.2056,-2.247,-2.2987,-2.3381,-2.3657,-2.3246,-2.2444,-2.1695,0.0,0.0,0.0,0.0,0.0,0.0,0.0,0.0,0.0,-1.7235,-1.8037,-1.8509,-1.8037,-1.8307,-1.8566,-1.8777,-1.8643,-1.821,0.0,0.0,-1.4909,-1.4617,-1.3795,-1.3077,-1.2398,-1.2337,-1.184,-1.0922,-1.0747,-0.9925,-0.8477,-0.8538,-0.7892,-0.6541,-0.6745,-0.635,-0.5437,-0.5541,-0.5072,-0.4212,-0.425,-0.4701,-0.5305,-0.5401,-0.5346,-0.5346,-0.5346,-0.5346,-0.5526,-0.6239,-0.7027,-0.7811,-0.8532,0.0,0.0,0.0,0.0,0.0,0.0,0.0,0.0,0.0,0.0,0.0,0.0,0.0,0.0,0.0,0.0,0.0,0.0,0.0,0.0,-2.2353,-2.3537,-2.4675,-2.5305,-2.5847,-2.6189,-2.6276,-2.6302,-2.6339,-2.6521,-2.6533,-2.6533,-2.6533,-2.6533,-2.6533,-2.6533,-2.6533,-2.6533,-2.6533,-2.6533,-2.6164,-2.5523,-2.5382,-2.4933,-2.4337,-2.3559,0.0,-2.3001,-2.2327,-2.1959,-2.1807,-2.1807,-2.1807,-2.1807,-2.1807,-2.1859,-2.2025,-2.2863,-2.3022,-2.2725,-2.2539,-2.2187,-2.1606,0.0,0.0,0.0,0.0,0.0,0.0,0.0,0.0,0.0,0.0,-1.7569,-1.7969,-1.7706,-1.7706,-1.7765,-1.793,-1.7229,0.0,0.0,-1.3807,-1.259,-1.1717,-1.1081,-1.0409,-0.9557,-0.9442,-0.8931,-0.8018,-0.7461,-0.6606,-0.5516,-0.5268,-0.4545,-0.3501,-0.3619,-0.3256,-0.2489,-0.2489,-0.2041,-0.1354,-0.137,-0.1478,-0.168,-0.3559,-0.4249,-0.4289,-0.4289,-0.4289,-0.4376,-0.4825,-0.5351,-0.5789,-0.6236,-0.7031,-0.791,0.0,0.0,0.0,0.0,0.0,0.0,0.0,0.0,0.0,0.0,0.0,0.0,0.0,0.0,-1.9783,-2.0626,0.0,-2.1763,-2.2197,-2.3116,-2.4082,-2.5122,-2.5664,-2.6025,-2.6465,-2.6533,-2.6533,-2.6533,-2.6533,-2.6533,-2.6533,-2.6533,-2.6533,-2.6533,-2.6533,-2.6533,-2.6533,-2.6094,-2.5746,-2.5312,-2.4515,-2.3936,-2.3559,-2.2767,-2.2402,-2.2402,-2.1959,-2.1807,-2.1807,-2.1807,-2.1568,-2.1098,-2.0692,-2.0527,-2.0576,-2.1095,-2.1192,-2.108,-2.0865,-2.0428,-1.9886,0.0,0.0,0.0,0.0,0.0,0.0,0.0,0.0,0.0,0.0,-1.7304,-1.7579,-1.7579,-1.7176,-1.695,0.0,0.0,0.0,0.0,-1.1636,-1.0243,-0.8761,-0.8537,-0.7914,-0.674,-0.646,-0.5999,-0.526,-0.4319,-0.3567,-0.2948,-0.2165,-0.1471,-0.07,-0.0622,-0.0156,0.0391,0.0391,0.086,0.1491,0.144,0.1294,0.0896,-0.2022,-0.3211,-0.3198,-0.3209,-0.3304,-0.3484,-0.3662,-0.3842,-0.4022,-0.42,-0.4823,-0.5625,-0.6587,-0.7471,0.0,0.0,0.0,0.0,0.0,0.0,0.0,0.0,-1.6154,-1.705,-1.8248,-1.8652,-1.9079,-2.0232,-2.0843,-2.1471,-2.2121,-2.2665,-2.3508,-2.4862,-2.5229,-2.5594,-2.6383,-2.6533,-2.6533,-2.6533,-2.6533,-2.6533,-2.6533,-2.6533,-2.6452,-2.6245,-2.6383,-2.6383,-2.6013,-2.5594,-2.517,-2.4874,-2.3655,-2.2927,-2.2777,-2.2101,-2.1807,-2.1807,-2.1807,-2.1807,-2.1807,-2.1645,-2.1088,-2.0216,-1.958,-1.9335,-1.9256,-1.9097,-1.9217,-1.9389,-1.9132,-1.8667,-1.82,0.0,0.0,0.0,0.0,0.0,0.0,0.0,0.0,0.0,0.0,0.0,0.0,0.0,0.0,0.0,0.0,0.0,0.0,-1.1937,-1.0254,-0.8751,-0.7596,-0.7592,-0.6503,-0.4183,-0.4097,-0.3324,-0.1785,-0.1625,-0.1163,-0.039,0.0233,0.0701,0.1017,0.1563,0.1876,0.1955,0.1955,0.2033,0.2112,0.2118,0.1751,0.1137,0.0734,0.0588,0.0698,0.0711,0.0268,-0.0627,-0.1429,-0.2324,-0.3224,-0.4022,-0.4376,-0.4645,-0.5536,-0.6502,-0.7464,-0.836,-0.9932,-1.1327,-1.1494,-1.3197,-1.4817,0.0,-1.5816,-1.696,-1.7865,-1.8647,-1.9496,-2.0323,-2.1141,-2.1725,-2.18,-2.2521,-2.3287,-2.412,-2.4862,-2.5594,-2.6383,-2.6533,-2.6533,-2.6533,-2.6533,-2.6533,-2.6533,-2.6533,-2.6164,-2.5453,-2.6094,-2.5873,-2.4409,-2.5004,-2.4659,-2.3287,-2.3075,-2.2628,-2.1949,-2.1807,-2.1807,-2.1807,-2.1807,-2.1807,-2.1731,-2.1011,-2.0216,-1.9423,-1.9335,-1.9335,-1.9256,-1.847,-1.8184,-1.827,-1.8494,-1.8286,-1.7826,0.0,0.0,0.0,0.0,0.0,0.0,0.0,0.0,0.0,0.0,0.0,0.0,0.0,0.0,0.0,0.0,0.0,0.0,-1.0959,-0.92,-0.7468,-0.6073,-0.5996,-0.4822,-0.2335,-0.2335,-0.148,0.0234,0.1091,0.1636,0.203,0.3115,0.3663,0.3828,0.4062,0.4217,0.4217,0.4217,0.3986,0.3677,0.3677,0.3308,0.2708,0.2746,0.2794,0.2685,0.1738,0.1153,0.0,0.0,-0.0447,-0.1254,-0.17,-0.2594,-0.358,-0.3937,-0.4732,-0.5789,-0.7291,-0.8253,-0.9213,-1.0885,-1.2339,-1.3529,-1.4475,-1.5401,-1.6476,-1.7755,-1.831,-1.8948,-2.0226,-2.0779,-2.1175,-2.1721,-2.2101,-2.2542,-2.3338,-2.3717,-2.4443,-2.5664,-2.5804,-2.5955,-2.6452,-2.6533,-2.6533,-2.6533,-2.6107,-2.5664,-2.5312,-2.5146,-2.4767,-2.4108,-2.3998,-2.3655,-2.3001,-2.2553,-2.2101,-2.1807,-2.1807,-2.1568,-2.1011,-2.1011,-2.0779,-2.0294,-1.9423,-1.8868,-1.847,-1.7997,-1.7755,-1.7755,-1.7367,-1.7204,-1.7229,-1.7376,-1.7503,-1.7485,0.0,0.0,0.0,0.0,0.0,0.0,0.0,0.0,0.0,0.0,0.0,0.0,0.0,0.0,0.0,0.0,0.0,0.0,0.0,-0.8286,-0.6468,-0.4768,-0.4219,-0.2888,-0.0625,-0.0234,0.0703,0.2271,0.3439,0.3982,0.4059,0.5309,0.5777,0.5622,0.578,0.5857,0.5857,0.5857,0.5547,0.4929,0.4929,0.4465,0.3771,0.3836,0.3877,0.3755,0.2462,0.1912,0.0,0.0,0.1232,0.0529,0.0532,-0.0622,-0.2133,-0.2323,-0.3307,-0.4641,-0.6231,-0.6933,-0.7632,-0.9923,-1.1391,-1.2583,-1.3789,-1.4894,-1.6057,-1.7107,-1.7674,-1.8479,-1.9904,-2.0382,-2.0779,-2.1655,-2.1807,-2.2101,-2.2852,-2.3213,-2.379,-2.517,-2.5523,-2.5886,-2.6452,-2.6314,-2.6176,-2.6176,-2.5441,-2.4862,-2.4659,-2.4276,-2.3902,-2.3463,-2.3128,-2.2927,-2.2703,-2.2111,-2.1807,-2.1807,-2.1807,-2.1328,-2.0459,-2.0294,-1.9747,-1.8948,-1.823,-1.7836,-1.7602,-1.6968,-1.673,-1.673,-1.673,-1.673,-1.673,-1.673,-1.6905,-1.7127,0.0,0.0,0.0,0.0,0.0,0.0,0.0,0.0,0.0,0.0,0.0,0.0,0.0,0.0,0.0,0.0,0.0,0.0,0.0,-0.76,-0.5755,-0.3908,-0.2266,-0.0547,0.1175,0.2579,0.3675,0.4621,0.5237,0.5544,0.5544,0.6247,0.6247,0.5622,0.6247,0.656,0.656,0.656,0.617,0.5544,0.5544,0.4849,0.3763,0.3767,0.3822,0.3912,0.3922,0.0,0.0,0.0,0.2354,0.1771,0.1897,0.1129,-0.0087,-0.0888,-0.2677,-0.4467,-0.545,-0.6413,-0.7372,-0.836,-1.0438,-1.2328,-1.2328,-1.4112,-1.5733,-1.5733,-1.6952,-1.823,-1.9177,-1.9982,-2.0779,-2.1655,-2.1807,-2.2101,-2.2852,-2.3632,-2.4337,-2.5229,-2.6025,-2.6452,-2.6533,-2.5804,-2.5312,-2.5312,-2.4564,-2.3841,-2.315,-2.3694,-2.339,-2.1949,-2.2628,-2.2628,-2.1807,-2.1807,-2.1807,-2.1807,-2.1807,-2.1328,-2.0459,-1.9659,-1.8868,-1.8078,-1.7997,-1.7521,-1.673,-1.673,-1.673,-1.673,-1.673,-1.673,-1.673,-1.673,-1.6746,-1.6754,0.0,0.0,0.0,0.0,0.0,0.0,0.0,0.0,0.0,0.0,0.0,0.0,0.0,0.0,0.0,0.0,0.0,0.0,0.0,-0.7524,-0.544,-0.3044,-0.1874,-0.0078,0.2657,0.3125,0.429,0.6079,0.6244,0.6777,0.7833,0.7931,0.7859,0.7698,0.7859,0.771,0.7176,0.7176,0.6556,0.5622,0.5622,0.4849,0.3763,0.3763,0.3781,0.3814,0.0,0.0,0.0,0.0,0.3353,0.2768,0.279,0.2119,0.1192,0.0783,-0.0354,-0.1609,-0.2588,-0.357,-0.4814,-0.7024,-0.8245,-0.9283,-1.1031,-1.2492,-1.3685,-1.4594,-1.5696,-1.6862,-1.823,-1.9125,-2.0001,-2.0779,-2.1405,-2.1883,-2.2187,-2.2916,-2.3497,-2.3717,-2.4945,-2.5664,-2.5664,-2.5453,-2.5312,-2.5312,-2.407,-2.3287,-2.3001,-2.2756,-2.2306,-2.1807,-2.2025,-2.2101,-2.1807,-2.1807,-2.1807,-2.1807,-2.0692,-1.9659,-1.8789,-1.7925,-1.7448,-1.7131,-1.7131,-1.6968,-1.673,-1.673,-1.673,-1.673,-1.673,-1.673,-1.673,-1.673,-1.673,-1.673,0.0,0.0,0.0,0.0,0.0,0.0,0.0,0.0,0.0,0.0,0.0,0.0,0.0,0.0,0.0,0.0,0.0,0.0,0.0,0.0,-0.605,-0.3893,-0.2184,-0.0234,0.2108,0.3202,0.46,0.6384,0.7011,0.7855,0.8912,0.9069,0.9003,0.8703,0.8703,0.8246,0.7484,0.7484,0.6821,0.5692,0.5643,0.4873,0.3808,0.3775,0.3763,0.0,0.0,0.0,0.0,0.0,0.4095,0.385,0.38,0.3164,0.2357,0.1637,0.1051,0.0266,-0.107,-0.1877,-0.2949,-0.5429,-0.6577,-0.7544,-0.92,-1.0935,-1.2571,-1.3406,-1.4692,-1.6139,-1.7423,-1.8559,-1.952,-2.0382,-2.1252,-2.1807,-2.1807,-2.2478,-2.3065,-2.335,-2.4504,-2.5312,-2.5312,-2.5004,-2.4862,-2.4862,-2.3412,-2.2553,-2.2553,-2.2101,-2.1807,-2.1807,-2.1807,-2.1807,-2.1807,-2.1807,-2.1645,-2.1328,-1.9659,-1.855,-1.7997,-1.7131,-1.673,-1.673,-1.673,-1.673,-1.673,-1.673,-1.673,-1.673,-1.673,-1.673,-1.673,-1.673,-1.673,-1.673,0.0,0.0,0.0,0.0,0.0,0.0,0.0,0.0,0.0,0.0,0.0,0.0,0.0,0.0,0.0,0.0,0.0,0.0,0.0,0.0,0.0,-0.622,-0.3039,-0.0937,-0.0,0.2807,0.4683,0.5619,0.7544,0.8546,0.8699,0.9442,0.9367,0.8623,0.8699,0.8246,0.7484,0.7484,0.6798,0.5725,0.5596,0.4836,0.3802,0.3716,0.0,0.0,0.0,0.0,0.0,0.4079,0.4548,0.4959,0.4908,0.4276,0.3362,0.1892,0.1558,0.1216,-0.0619,-0.1245,-0.178,-0.365,-0.5507,-0.6919,-0.7007,-0.962,-1.2066,-1.2237,-1.4028,-1.5884,-1.6764,-1.8212,-1.958,-2.0294,-2.1175,-2.1807,-2.1807,-2.2478,-2.3202,-2.3902,-2.4719,-2.5229,-2.5158,-2.4492,-2.4047,-2.4047,-2.267,-2.1807,-2.1807,-2.1807,-2.1807,-2.1807,-2.1807,-2.1807,-2.1731,-2.1721,-2.1252,-2.0382,-1.8789,-1.7997,-1.7917,-1.7049,-1.673,-1.673,-1.673,-1.673,-1.673,-1.673,-1.673,-1.673,-1.673,-1.673,-1.673,-1.673,-1.673,-1.673,0.0,0.0,0.0,0.0,0.0,0.0,0.0,0.0,0.0,0.0,0.0,0.0,0.0,0.0,0.0,0.0,0.0,0.0,0.0,0.0,0.0,0.0,0.0,0.0,0.0,0.0,0.0,0.0,0.0,0.6996,0.8201,0.8291,0.8219,0.8071,0.8466,0.8016,0.6791,0.6791,0.6116,0.4894,0.0,0.3532,0.2768,0.0,0.0,0.0,0.0,0.0,0.0,0.3839,0.4623,0.4945,0.4815,0.4499,0.4177,0.363,0.301,0.2457,0.1957,0.0853,-0.0512,-0.1701,-0.2928,-0.4272,-0.5751,-0.7292,-0.8931,-1.0844,-1.2644,-1.435,-1.5794,-1.7811,-1.9344,-1.958,-2.0847,-2.1807,-2.1807,-2.2478,-2.2841,-2.2467,-2.3548,-2.4204,-2.3644,-2.3423,-2.3276,-2.3276,-2.2392,-2.1807,-2.1807,-2.1807,-2.1807,-2.1807,-2.1807,-2.1492,-2.0857,-2.0216,-1.9502,-1.863,-1.8238,-1.7683,-1.7049,-1.6812,-1.673,-1.673,-1.673,-1.673,-1.673,-1.673,-1.673,-1.673,-1.673,-1.673,-1.673,-1.673,-1.673,-1.673,0.0,0.0,0.0,0.0,0.0,0.0,0.0,0.0,0.0,0.0,0.0,0.0,0.0,0.0,0.0,0.0,0.0,0.0,0.0,0.0,0.0,0.0,0.0,0.0,0.0,0.0,0.0,0.0,0.0,0.0,0.0,0.7622,0.7677,0.7379,0.7371,0.6685,0.5622,0.5226,0.0,0.0,0.0,0.0,0.0,0.0,0.0,0.0,0.0,0.0,0.1724,0.2818,0.3522,0.3917,0.3524,0.3872,0.4323,0.3722,0.3524,0.34,0.2931,0.1763,0.042,-0.0503,-0.1777,-0.3077,-0.4185,-0.5795,-0.7609,-0.9496,-1.1702,-1.3672,-1.5061,-1.7488,-1.9335,-1.9335,-2.0692,-2.1807,-2.1807,-2.2176,-2.2542,-2.2745,-2.3537,-2.3975,-2.3486,-2.3486,-2.3202,-2.2553,-2.2035,-2.1807,-2.1807,-2.1807,-2.1807,-2.1807,-2.1807,-2.1415,-2.0547,-1.9737,-1.8868,-1.7997,-1.7602,-1.7212,-1.673,-1.673,-1.673,-1.673,-1.673,-1.673,-1.673,-1.673,-1.6566,-1.6237,-1.6237,-1.6072,-1.5816,-1.5816,-1.5816,-1.5816,0.0,0.0,0.0,0.0,0.0,0.0,0.0,0.0,0.0,0.0,0.0,0.0,0.0,0.0,0.0,0.0,0.0,0.0,0.0,0.0,0.0,0.0,0.0,0.0,0.0,0.0,0.0,0.0,0.0,0.0,0.0,0.0,0.0,0.0,0.0,0.0,0.0,0.0,0.0,0.0,0.0,0.0,0.0,0.0,0.0,0.0,0.0,0.0,0.0,0.1176,0.188,0.2582,0.1802,0.274,0.3851,0.2727,0.307,0.3655,0.2812,0.1913,0.0999,0.0333,-0.1251,-0.2674,-0.2756,-0.4823,-0.7027,-0.8231,-1.0984,-1.3452,-1.4468,-1.7236,-1.9335,-1.9335,-2.0692,-2.1807,-2.1807,-2.1883,-2.2467,-2.3829,-2.4047,-2.4047,-2.3975,-2.3975,-2.3327,-2.1873,-2.1807,-2.1807,-2.1807,-2.1807,-2.1807,-2.1807,-2.1568,-2.1098,-2.0382,-1.9423,-1.855,-1.7844,-1.7049,-1.673,-1.673,-1.673,-1.673,-1.673,-1.673,-1.673,-1.673,-1.673,-1.6319,-1.5816,-1.5733,-1.5318,-1.4817,-1.4734,-1.4734,-1.4734,0.0,0.0,0.0,0.0,0.0,0.0,0.0,0.0,0.0,0.0,-1.6193,0.0,0.0,0.0,0.0,0.0,0.0,0.0,0.0,0.0,0.0,0.0,0.0,0.0,0.0,0.0,0.0,-0.2849,-0.0928,0.0,0.0,0.0,0.0,0.0,0.0,0.0,0.0,0.0,0.0,0.0,0.0,0.0,0.0,0.0,0.0,0.0,0.0,0.0,0.0,0.0,0.047,0.2033,0.1723,0.1802,0.2038,0.1653,0.1813,0.2131,0.2612,0.1664,0.0634,0.119,-0.0161,-0.1799,-0.253,-0.3648,-0.532,-0.7954,-1.035,-1.2545,-1.4343,-1.7236,-1.9335,-1.9335,-2.0692,-2.1807,-2.1807,-2.2402,-2.2927,-2.3139,-2.3694,-2.3841,-2.3287,-2.3213,-2.2767,-2.1883,-2.1807,-2.1807,-2.1807,-2.1807,-2.1807,-2.1807,-2.045,-1.9659,-1.9502,-1.7917,-1.7049,-1.6886,-1.673,-1.673,-1.673,-1.673,-1.673,-1.673,-1.673,-1.673,-1.673,-1.673,-1.6648,-1.6484,-1.5899,-1.565,-1.5484,-1.4901,-1.4734,-1.4734,0.0,0.0,0.0,0.0,0.0,0.0,0.0,0.0,0.0,0.0,-1.6621,-1.6333,0.0,0.0,0.0,0.0,0.0,0.0,0.0,0.0,0.0,0.0,0.0,0.0,0.0,-0.7626,-0.6298,-0.6061,0.0,-0.2921,-0.2512,-0.1385,-0.062,-0.0155,0.0078,-0.0,0.0,0.0,0.0,0.0,0.0,0.0,0.0,0.0,0.0,0.0,0.0,0.0,0.0,0.0,-0.1254,-0.0313,-0.0,0.0706,0.1332,0.0784,0.1019,0.1567,0.188,0.1096,0.0235,0.0627,-0.0237,-0.1518,-0.2393,-0.3325,-0.4797,-0.7725,-1.0156,-1.2318,-1.433,-1.7236,-1.9335,-1.9335,-2.0692,-2.1959,-2.2402,-2.2777,-2.3287,-2.4082,-2.4504,-2.4576,-2.4227,-2.3852,-2.3265,-2.2478,-2.2025,-2.1807,-2.1807,-2.1807,-2.1807,-2.1807,-2.0615,-1.9737,-1.9335,-1.7997,-1.7131,-1.673,-1.673,-1.673,-1.673,-1.673,-1.673,-1.673,-1.673,-1.673,-1.673,-1.673,-1.6484,-1.6154,-1.5816,-1.5235,-1.465,-1.4321,-1.3977,-1.3633,0.0,0.0,0.0,0.0,0.0,0.0,0.0,-1.6908,-1.6908,-1.6908,-1.6908,-1.6691,-1.6114,-1.6551,-1.6403,0.0,0.0,0.0,0.0,0.0,0.0,0.0,0.0,0.0,0.0,0.0,0.0,-0.9051,-0.708,0.0,0.0,0.0,0.0,0.0,-0.3031,-0.3269,-0.3346,-0.3822,0.0,0.0,0.0,-0.383,0.0,0.0,0.0,0.0,0.0,-0.4217,-0.3986,-0.3287,-0.2898,-0.2666,-0.204,-0.0627,0.0627,-0.0078,0.0235,0.0784,0.094,0.0392,-0.0235,-0.0078,-0.0628,-0.1492,-0.2354,-0.3414,-0.4921,-0.7546,-1.0172,-1.2486,-1.4552,-1.7349,-1.9413,-1.9797,-2.1068,-2.2327,-2.3128,-2.3361,-2.3936,-2.517,-2.5453,-2.5523,-2.5312,-2.4564,-2.3768,-2.3075,-2.2252,-2.1807,-2.1807,-2.1807,-2.1731,-2.1492,-2.0692,-1.9825,-1.9027,-1.8158,-1.7367,-1.673,-1.673,-1.673,-1.673,-1.673,-1.673,-1.673,-1.673,-1.673,-1.673,-1.673,-1.6402,-1.5899,-1.5733,-1.4985,-1.3899,-1.3737,-1.3307,-1.2705,0.0,0.0,0.0,0.0,0.0,0.0,0.0,-1.6908,-1.6908,-1.6908,-1.6908,-1.6908,-1.683,-1.6839,-1.683,0.0,0.0,0.0,0.0,0.0,0.0,0.0,0.0,0.0,0.0,0.0,0.0,-1.1378,-1.041,0.0,0.0,0.0,0.0,0.0,0.0,-0.5883,-0.5806,-0.5203,0.0,0.0,0.0,0.0,0.0,0.0,0.0,0.0,0.0,-0.5535,-0.4844,-0.4828,-0.4288,-0.3675,-0.3599,-0.2429,-0.11,-0.1178,-0.11,-0.0864,-0.0078,-0.0549,-0.1021,-0.0235,-0.0628,-0.1492,-0.2354,-0.3754,-0.5494,-0.7446,-1.0417,-1.3167,-1.5173,-1.7564,-1.9797,-2.1237,-2.2274,-2.3128,-2.3902,-2.4647,-2.517,-2.53,-2.5955,-2.6094,-2.5382,-2.4564,-2.3768,-2.3075,-2.2252,-2.1807,-2.1807,-2.1807,-2.1415,-2.0615,-1.9816,-1.9027,-1.8158,-1.7286,-1.6812,-1.673,-1.673,-1.673,-1.673,-1.673,-1.673,-1.673,-1.673,-1.673,-1.673,-1.673,-1.6648,-1.6566,-1.5899,-1.5235,-1.4566,-1.3899,-1.3307,-1.2705,0.0,0.0,0.0,0.0,0.0,0.0,0.0,-1.6908,-1.7047,-1.7304,-1.7373,-1.7501,-1.7842,-1.7842,-1.7569,0.0,0.0,0.0,0.0,0.0,0.0,0.0,0.0,0.0,0.0,0.0,-1.37,-1.3643,-1.2889,0.0,0.0,0.0,0.0,0.0,0.0,-0.7825,-0.7677,-0.7375,0.0,0.0,0.0,0.0,0.0,0.0,0.0,0.0,0.0,0.0,-0.7157,-0.6597,-0.621,-0.5829,-0.4828,-0.4053,-0.3357,-0.2352,-0.1649,-0.1257,-0.0863,-0.1021,-0.1178,-0.0863,-0.1412,-0.2275,-0.3054,-0.4523,-0.6257,-0.8155,-1.0796,-1.3286,-1.52,-1.7627,-1.9797,-2.1456,-2.2424,-2.3434,-2.4647,-2.5087,-2.5453,-2.5955,-2.6314,-2.6383,-2.6025,-2.485,-2.361,-2.2402,-2.1959,-2.1807,-2.1807,-2.1807,-2.1415,-2.0547,-1.9737,-1.8868,-1.7997,-1.7131,-1.673,-1.673,-1.673,-1.673,-1.673,-1.673,-1.673,-1.673,-1.673,-1.673,-1.673,-1.673,-1.673,-1.6648,-1.6402,-1.565,-1.465,-1.4405,-1.3639,-1.2705,0.0,0.0,0.0,0.0,0.0,0.0,-1.6908,-1.6908,-1.7107,-1.7638,-1.7706,-1.7901,-1.8442,-1.8509,-1.8172,-1.7442,0.0,0.0,0.0,0.0,0.0,0.0,0.0,0.0,0.0,0.0,-1.5508,-1.5384,-1.5013,-1.3988,0.0,0.0,-1.1723,-1.0479,0.0,0.0,0.0,0.0,0.0,0.0,0.0,0.0,0.0,0.0,0.0,0.0,0.0,0.0,0.0,0.0,0.0,-0.7816,-0.6517,0.0,0.0,-0.3441,-0.2508,-0.1961,-0.1727,-0.1649,-0.1649,-0.1649,-0.2273,-0.3129,-0.4295,-0.5755,-0.748,-0.9256,-1.1558,-1.386,-1.5748,-1.8142,-2.0399,0.0,-2.3084,-2.4154,-2.5453,-2.5861,-2.6139,-2.6701,-2.6973,-2.704,-2.685,-2.5193,-2.3463,-2.1949,-2.1807,-2.1807,-2.1807,-2.1807,-2.1328,-2.0138,-1.958,-1.8789,-1.7602,-1.7049,-1.673,-1.673,-1.673,-1.673,-1.673,-1.673,-1.673,-1.673,-1.673,-1.673,-1.673,-1.673,-1.673,-1.673,-1.673,-1.5982,-1.4985,-1.4734,-1.3977,-1.296,0.0,0.0,0.0,0.0,0.0,0.0,0.0,-1.6908,-1.7107,-1.7638,-1.7706,-1.7901,-1.8442,-1.8509,-1.8509,-1.8499,0.0,0.0,0.0,0.0,0.0,0.0,0.0,0.0,0.0,0.0,-1.7813,-1.6567,-1.6567,-1.579,-1.4307,-1.4307,-1.4155,-1.3932,0.0,0.0,0.0,0.0,0.0,0.0,0.0,0.0,0.0,0.0,0.0,0.0,0.0,0.0,0.0,0.0,0.0,0.0,0.0,0.0,0.0,0.0,-0.3752,-0.3599,-0.2743,-0.251,-0.251,-0.251,-0.3127,-0.4128,-0.5758,-0.7439,-0.911,-1.0484,-1.2791,-1.5056,-1.6963,-1.929,-2.167,-2.3727,-2.4719,-2.5523,-2.6383,-2.704,-2.7484,-2.7484,-2.8051,-2.8247,-2.7537,-2.5438,-2.3463,-2.1949,-2.1807,-2.1807,-2.1807,-2.1807,-2.1011,-1.9344,-1.9335,-1.847,-1.673,-1.673,-1.673,-1.673,-1.673,-1.673,-1.673,-1.673,-1.673,-1.673,-1.673,-1.673,-1.673,-1.673,-1.673,-1.673,-1.673,-1.6319,-1.5567,-1.4901,-1.4237,-1.3561,0.0,0.0,0.0,0.0,0.0,0.0,0.0,-1.7245,-1.7638,-1.8172,-1.8576,-1.8977,-1.9539,-1.9594,-1.9594,-1.9594,0.0,0.0,0.0,0.0,0.0,0.0,0.0,0.0,0.0,0.0,-1.8297,-1.7881,-1.7881,-1.7385,-1.6392,-1.6062,-1.5492,-1.4767,-1.4363,-1.4155,0.0,0.0,0.0,0.0,0.0,0.0,-1.2551,0.0,0.0,0.0,0.0,0.0,0.0,0.0,0.0,0.0,0.0,0.0,0.0,0.0,-0.6954,-0.5354,-0.5123,-0.5046,-0.5046,-0.5046,-0.5665,-0.651,-0.7415,-0.8944,-1.0536,-1.1924,-1.3734,-1.5716,-1.7779,-1.9732,-2.1659,-2.3727,-2.4791,-2.5721,-2.7027,-2.6973,-2.6973,-2.7484,-2.7297,-2.6595,-2.531,-2.4529,-2.3463,-2.1949,-2.1807,-2.1807,-2.1807,-2.1807,-2.1011,-1.9335,-1.9335,-1.847,-1.673,-1.673,-1.673,-1.673,-1.673,-1.673,-1.673,-1.673,-1.673,-1.673,-1.673,-1.673,-1.673,-1.673,-1.673,-1.673,-1.673,-1.6319,-1.565,-1.5484,-1.465,-1.3652,0.0,0.0,0.0,0.0,0.0,0.0,0.0,-1.7638,-1.8172,-1.871,-1.91,-1.9518,-2.0009,-2.0085,-2.0085,-2.0085,0.0,0.0,0.0,0.0,0.0,0.0,0.0,0.0,0.0,-1.9121,-1.8977,-1.8767,-1.8767,-1.8489,-1.7794,-1.7463,-1.6964,-1.6383,-1.6044,-1.5843,0.0,0.0,0.0,0.0,0.0,0.0,-1.445,0.0,0.0,0.0,0.0,0.0,0.0,0.0,0.0,0.0,0.0,0.0,0.0,0.0,-1.0695,-0.9239,-0.7765,-0.7319,-0.7319,-0.7319,-0.7934,-0.8769,-0.9803,-1.1021,-1.2391,-1.3742,-1.5258,-1.689,-1.8885,-2.069,-2.2479,-2.4244,-2.5405,-2.6333,-2.7027,-2.7229,-2.7417,-2.7868,-2.7284,-2.6333,-2.5087,-2.4457,-2.3621,-2.2327,-2.1959,-2.1807,-2.1807,-2.1807,-2.1011,-1.9335,-1.9335,-1.847,-1.673,-1.673,-1.673,-1.673,-1.673,-1.673,-1.673,-1.673,-1.673,-1.673,-1.673,-1.673,0.0,-1.673,-1.673,-1.673,-1.673,-1.6402,-1.6064,-1.5816,-1.5151,-1.4398,0.0,0.0,0.0,0.0,0.0,0.0,0.0,0.0,0.0,0.0,-1.9299,-1.9518,-2.0074,-2.0085,-2.014,0.0,0.0,0.0,0.0,0.0,0.0,0.0,0.0,0.0,0.0,-2.0085,-1.9868,-1.9375,-1.9375,-1.91,-1.8643,-1.8576,-1.8566,-1.8576,-1.8509,-1.8509,0.0,0.0,0.0,0.0,0.0,0.0,0.0,0.0,0.0,0.0,0.0,0.0,0.0,0.0,0.0,0.0,0.0,0.0,0.0,0.0,0.0,0.0,0.0,-0.9707,-0.9633,-0.9633,-1.0159,-1.1138,-1.2701,-1.3613,0.0,-1.5895,-1.7104,-1.8489,-2.0317,-2.2181,-2.3875,-2.5145,-2.6595,-2.7284,-2.6714,-2.767,-2.8427,-2.8427,-2.7868,-2.7124,-2.6395,-2.4945,-2.3768,-2.3075,-2.2252,-2.1807,-2.1807,-2.1807,-2.1011,-1.9335,-1.9335,-1.847,-1.673,-1.673,-1.673,-1.673,-1.673,-1.673,-1.673,-1.673,-1.673,-1.673,-1.673,-1.673,-1.673,-1.673,-1.673,-1.673,-1.673,-1.673,-1.6648,-1.5982,-1.5733,-1.5567,0.0,0.0,0.0,0.0,0.0,0.0,0.0,0.0,0.0,0.0,-1.966,-1.9944,-2.0085,-2.0085,-2.0399,0.0,0.0,0.0,0.0,0.0,0.0,0.0,0.0,0.0,0.0,-2.0085,-2.0009,-1.9933,-1.9933,-1.9868,-1.9736,-1.9309,-1.91,-1.91,-1.871,-1.8509,0.0,0.0,0.0,0.0,0.0,0.0,0.0,0.0,0.0,0.0,-1.6715,-1.6853,0.0,0.0,0.0,0.0,0.0,0.0,0.0,0.0,-1.6358,-1.6271,-1.5371,0.0,-1.3697,-1.3697,-1.3848,-1.4221,0.0,-1.5421,-1.6008,-1.768,-1.8715,-1.9854,-2.1564,-2.3223,-2.4719,-2.5852,-2.6841,-2.7604,-2.7986,-2.7855,-2.7736,-2.7736,-2.7162,-2.662,-2.6339,-2.4945,-2.3768,-2.3075,-2.2252,-2.1807,-2.1807,-2.1807,-2.1011,-1.9335,-1.9335,-1.847,-1.673,-1.673,-1.673,-1.673,-1.673,-1.673,-1.673,-1.673,-1.673,-1.673,-1.673,-1.673,-1.673,-1.673,-1.673,-1.673,-1.673,-1.673,-1.6656,-1.6484,-1.6147,-1.565,0.0,0.0,0.0,0.0,0.0,0.0,0.0,0.0,0.0,0.0,0.0,0.0,0.0,0.0,0.0,0.0,0.0,0.0,0.0,0.0,0.0,0.0,0.0,0.0,-2.0582,-2.0571,-2.0388,-2.0085,-2.0085,-2.0085,-2.0074,-1.9802,-1.966,-1.9649,-1.9386,-1.9253,0.0,0.0,0.0,0.0,-1.8977,0.0,0.0,0.0,0.0,0.0,-1.7404,-1.7609,0.0,-1.7881,-1.7813,-1.7736,0.0,0.0,0.0,0.0,-1.8277,-1.8926,-1.8613,-1.7229,-1.5913,-1.5913,-1.6175,-1.6573,-1.722,0.0,-1.8279,-1.9855,-2.0665,-2.1526,-2.3096,-2.4213,-2.5367,-2.6655,-2.7191,-2.7736,-2.8427,-2.8182,-2.7868,-2.7537,-2.7162,-2.6824,-2.6458,-2.4969,-2.3902,-2.3559,-2.2467,-2.1807,-2.1807,-2.1807,-2.1011,-1.9335,-1.9335,-1.847,-1.673,-1.673,-1.673,-1.673,-1.673,-1.673,-1.673,-1.673,-1.673,-1.673,-1.673,-1.673,-1.673,-1.673,-1.673,-1.673,-1.673,-1.6484,-1.6229,-1.6229,-1.5989,-1.565,0.0,0.0,0.0,0.0,0.0,0.0,0.0,0.0,0.0,0.0,0.0,0.0,0.0,0.0,0.0,0.0,0.0,0.0,0.0,0.0,0.0,0.0,0.0,-2.1928,-2.1313,-2.1313,-2.0996,-2.0453,-2.0388,-2.0324,-2.027,-2.027,-2.0205,-2.0085,-2.0085,-2.0085,0.0,0.0,-2.0085,-2.0074,-1.9584,0.0,0.0,0.0,0.0,0.0,0.0,0.0,0.0,-1.871,-1.871,-1.871,-1.8834,0.0,0.0,0.0,0.0,0.0,-2.0677,-1.9069,-1.7599,-1.7531,-1.7988,-1.8572,-1.9191,0.0,0.0,0.0,0.0,-2.332,-2.4506,-2.5265,-2.6183,-2.7471,-2.767,-2.7802,-2.8298,-2.8247,-2.8051,-2.7537,-2.7417,-2.7162,-2.6714,-2.5122,-2.4108,-2.4108,-2.2606,-2.1694,-2.1694,-2.1631,-2.0811,-1.916,-1.916,-1.832,-1.6651,-1.6706,-1.673,-1.673,-1.673,-1.673,-1.673,-1.673,-1.673,-1.673,-1.673,-1.673,-1.673,-1.673,-1.673,-1.673,-1.673,-1.6319,-1.5816,-1.5733,-1.5733,-1.5567,0.0,0.0,0.0,0.0,0.0,0.0,0.0,0.0,0.0,0.0,0.0,0.0,0.0,0.0,0.0,0.0,0.0,0.0,0.0,0.0,0.0,0.0,-2.3148,-2.247,-2.2347,-2.2224,-2.2089,-2.1966,-2.1854,-2.1491,-2.0944,-2.0944,-2.0635,-2.0085,-2.0085,-2.0085,-2.0085,-2.0085,-2.0085,-2.0074,-2.0009,0.0,0.0,0.0,0.0,0.0,0.0,0.0,0.0,-1.9878,-1.9802,-1.9791,-2.0377,0.0,0.0,0.0,0.0,0.0,-2.1325,-2.0996,-2.0655,-2.0526,-2.0526,-2.0655,-2.073,-2.0858,0.0,0.0,-2.3514,-2.4604,-2.5126,-2.671,-2.809,-2.8298,-2.8363,-2.8182,-2.7736,-2.7162,-2.6973,-2.7417,-2.6973,-2.685,-2.7284,-2.538,-2.4108,-2.4108,-2.2293,-2.1217,-2.1217,-2.0855,-1.9892,-1.834,-1.8265,-1.7661,-1.6285,-1.6587,-1.673,-1.673,-1.673,-1.673,-1.673,-1.673,-1.673,-1.673,-1.673,-1.673,-1.673,-1.673,-1.673,-1.673,-1.673,-1.6656,-1.6484,-1.5899,-1.5733,-1.5484,0.0,0.0,0.0,0.0,0.0,0.0,0.0,0.0,0.0,0.0,0.0,0.0,0.0,0.0,0.0,0.0,0.0,0.0,0.0,0.0,0.0,-2.4835,-2.4234,-2.3682,-2.3148,-2.2955,-2.264,-2.2274,-2.2163,-2.1928,-2.1616,-2.1616,-2.1502,-2.1187,-2.1187,-2.1008,-2.0635,-2.0635,-2.0453,-2.0085,0.0,0.0,0.0,0.0,0.0,0.0,0.0,0.0,0.0,0.0,-2.0324,-2.0624,-2.088,0.0,0.0,0.0,0.0,0.0,-2.2688,-2.2809,-2.3015,-2.3276,-2.2445,-2.1791,-2.2469,-2.2688,-2.3132,-2.4507,-2.5368,-2.5933,-2.638,-2.7577,-2.8363,-2.8051,-2.857,-2.8698,-2.767,-2.7537,-2.7537,-2.7484,-2.7229,-2.6912,-2.6524,-2.4819,-2.3592,-2.3316,-2.1689,-2.0741,-2.0741,-2.0534,-1.9919,-1.8746,-1.8304,-1.7574,-1.6542,-1.6315,-1.6357,-1.673,-1.673,-1.673,-1.673,-1.673,-1.673,-1.673,-1.673,-1.673,-1.673,-1.673,-1.673,-1.673,-1.673,-1.6484,-1.6072,-1.5401,-1.4727,-1.4048,0.0,0.0,0.0,0.0,0.0,0.0,0.0,0.0,0.0,0.0,0.0,0.0,0.0,0.0,0.0,0.0,0.0,0.0,0.0,0.0,-2.537,-2.537,-2.537,-2.4908,-2.3872,-2.3682,-2.3314,-2.2761,-2.2665,-2.2482,-2.2347,-2.2163,-2.2101,-2.2101,-2.2101,-2.1803,-2.1302,-2.1302,-2.1071,-2.0582,0.0,0.0,0.0,0.0,0.0,0.0,0.0,0.0,0.0,0.0,0.0,0.0,0.0,0.0,0.0,-2.2635,-2.3196,-2.3974,-2.4116,-2.4355,-2.4681,-2.5287,-2.4111,-2.305,-2.3955,-2.4239,-2.4784,-2.6364,-2.6849,-2.7094,-2.7656,-2.8312,-2.8505,-2.7868,-2.8634,-2.8839,-2.7484,-2.7736,-2.7815,-2.7155,-2.7089,-2.6591,-2.5526,-2.4086,-2.3006,-2.2627,-2.114,-2.0265,-2.0265,-2.0172,-1.9748,-1.8955,-1.8234,-1.7476,-1.6689,-1.5943,-1.5912,-1.6611,-1.6611,-1.6651,-1.673,-1.673,-1.673,-1.673,-1.673,-1.673,-1.673,-1.673,-1.673,-1.673,-1.673,-1.6319,-1.565,-1.5151,-1.4055,-1.3045,0.0,0.0,0.0,0.0,0.0,0.0,0.0,0.0,0.0,0.0,0.0,0.0,0.0,0.0,0.0,0.0,0.0,0.0,0.0,0.0,-2.6573,-2.6573,-2.6573,-2.6,-2.4721,-2.4607,-2.4363,-2.4176,-2.4028,-2.3662,-2.3027,-2.2408,-2.2101,-2.2101,-2.2101,-2.2039,-2.2051,-2.2051,-2.199,-2.199,-2.199,0.0,0.0,0.0,0.0,0.0,0.0,0.0,0.0,0.0,0.0,0.0,0.0,0.0,-2.2495,-2.3615,-2.4027,-2.4313,-2.5191,-2.5398,-2.5453,-2.5906,-2.5398,-2.4838,-2.4894,-2.4951,-2.529,-2.6484,-2.7221,-2.7847,-2.8352,-2.903,-2.9282,-2.8556,-2.8492,-2.8117,-2.6782,-2.6589,-2.6388,-2.5778,-2.5715,-2.5514,-2.4921,-2.3549,-2.2639,-2.2593,-2.0917,-1.981,-1.981,-1.9396,-1.8822,-1.8125,-1.737,-1.6785,-1.637,-1.5577,-1.5562,-1.6246,-1.6246,-1.642,-1.673,-1.673,-1.673,-1.673,-1.673,-1.673,-1.673,-1.673,-1.673,-1.673,-1.673,-1.6319,-1.565,-1.565,-1.4817,-1.3652,0.0,0.0,0.0,0.0,0.0,0.0,0.0,0.0,0.0,0.0,0.0,0.0,0.0,0.0,0.0,0.0,0.0,0.0,0.0,0.0,-2.6678,-2.6678,-2.6678,-2.6428,-2.5865,-2.5425,-2.4978,-2.4492,-2.4229,-2.3982,-2.3734,-2.3484,-2.3365,-2.3365,-2.3365,-2.31,-2.2713,-2.2713,-2.247,-2.2101,-2.2101,-2.2101,0.0,0.0,0.0,0.0,0.0,0.0,0.0,0.0,-2.2128,-2.2182,0.0,-2.2287,-2.2545,-2.3756,-2.4123,-2.4409,-2.5898,-2.6122,-2.6068,-2.6669,-2.6472,-2.6096,-2.6096,-2.5825,-2.6106,-2.801,-2.8354,-2.8641,-2.9629,-2.967,-2.9484,-2.9219,-2.8826,-2.8048,-2.6817,-2.6248,-2.5724,-2.5184,-2.5109,-2.4908,-2.4356,-2.3013,-2.1996,-2.1697,-2.0212,-1.9334,-1.9334,-1.9235,-1.8998,-1.8721,-1.755,-1.6806,-1.6678,-1.5483,-1.5094,-1.5578,-1.5999,-1.6277,-1.6412,-1.6635,-1.673,-1.673,-1.6984,-1.6984,-1.673,-1.6984,-1.6984,-1.673,-1.673,-1.6319,-1.5733,-1.5733,-1.5151,-1.4237,0.0,0.0,0.0,0.0,0.0,0.0,0.0,0.0,0.0,0.0,0.0,0.0,0.0,0.0,0.0,0.0,0.0,0.0,0.0,-2.7225,-2.7225,-2.7225,-2.7225,-2.7122,-2.6811,-2.6269,-2.5673,-2.509,-2.465,-2.4319,-2.4157,-2.4112,-2.4112,-2.4112,-2.4112,-2.3865,-2.3412,-2.3412,-2.316,-2.2738,-2.2738,-2.2738,0.0,0.0,0.0,0.0,0.0,0.0,0.0,0.0,0.0,0.0,0.0,0.0,0.0,0.0,-2.409,-2.4535,-2.6437,-2.6826,-2.6736,-2.7181,-2.7041,-2.6846,-2.6846,-2.6606,-2.6841,-2.8527,-2.892,-2.9189,-2.9915,-2.982,-2.9454,-2.912,-2.8388,-2.7548,-2.654,-2.5793,-2.5159,-2.4619,-2.4556,-2.4343,-2.3778,-2.2464,-2.1479,-2.1158,-1.9846,-1.9142,-1.9142,-1.9142,-1.9208,-1.9274,-1.7969,-1.7207,-1.6991,-1.5613,-1.5049,-1.5235,-1.5747,-1.6092,-1.6212,-1.6573,-1.6806,-1.6976,-1.7415,-1.7392,-1.7139,-1.7473,-1.731,-1.6902,-1.6902,-1.6566,-1.5982,-1.5982,-1.5484,-1.465,0.0,0.0,0.0,0.0,0.0,0.0,0.0,0.0,0.0,0.0,0.0,0.0,0.0,0.0,0.0,0.0,0.0,0.0,-2.8348,-2.8411,-2.8411,-2.8411,-2.8411,-2.8122,-2.7515,-2.699,-2.6573,-2.6187,-2.5494,-2.4908,-2.4292,-2.4157,-2.4112,-2.4112,-2.4112,-2.4112,-2.4112,-2.4112,-2.4112,-2.4112,-2.4112,-2.4112,-2.4112,0.0,0.0,0.0,0.0,0.0,0.0,0.0,-2.2831,0.0,0.0,0.0,0.0,0.0,-2.412,-2.459,-2.6935,-2.7488,-2.7401,-2.7401,-2.7196,-2.7003,-2.7003,-2.7211,-2.744,-2.7661,-2.8739,-2.9479,-2.898,-2.926,-2.9218,-2.8009,-2.7193,-2.6485,-2.5834,-2.518,-2.4607,-2.4054,-2.3991,-2.3766,-2.3128,-2.1877,-2.1123,-2.106,-1.9846,-1.9142,-1.9285,-1.9285,-1.9417,-1.9605,-1.8721,-1.7823,-1.7101,-1.6237,-1.5621,-1.5204,-1.5568,-1.5947,-1.6319,-1.676,-1.7066,-1.7388,-1.786,-1.8031,-1.804,-1.804,-1.7797,-1.7392,-1.7392,-1.7147,-1.673,-1.6656,-1.5816,-1.4734,0.0,0.0,0.0,0.0,0.0,0.0,0.0,0.0,0.0,0.0,0.0,0.0,0.0,0.0,0.0,0.0,0.0,0.0,-2.8411,-2.8411,-2.8411,-2.8411,-2.8411,-2.8299,-2.8122,-2.7974,-2.7019,-2.5203,-2.4935,-2.4708,-2.4492,-2.4447,-2.439,-2.4247,-2.4247,-2.4216,-2.4112,-2.4112,-2.4112,-2.4112,-2.4112,-2.4112,-2.4112,0.0,0.0,0.0,0.0,0.0,0.0,0.0,0.0,0.0,0.0,0.0,0.0,-2.3459,-2.412,-2.459,-2.6935,-2.7488,-2.7401,-2.7401,-2.7248,-2.713,-2.713,-2.7378,-2.7798,-2.844,-2.9127,-2.95,-2.9086,-2.9051,-2.9012,-2.8639,-2.7516,-2.6519,-2.5934,-2.4952,-2.4029,-2.3464,-2.3389,-2.3131,-2.2445,-2.1616,-2.0933,-2.0613,-1.9791,-1.9341,-1.9483,-1.9473,-1.9539,-1.9605,-1.8854,-1.8094,-1.755,-1.6733,-1.6114,-1.5621,-1.5732,-1.5995,-1.6294,-1.6674,-1.7055,-1.7458,-1.7891,-1.803,-1.804,-1.804,-1.7959,-1.7716,-1.6976,-1.6648,-1.6394,-1.5567,-1.5068,-1.465,0.0,0.0,0.0,0.0,0.0,0.0,0.0,0.0,0.0,0.0,0.0,0.0,0.0,0.0,0.0,0.0,0.0,0.0,0.0,0.0,-2.8411,-2.8411,-2.8411,-2.8299,-2.8073,-2.8024,-2.7225,-2.5577,-2.5618,-2.5467,-2.4991,-2.4878,-2.4637,-2.4292,-2.4247,-2.4157,-2.4112,-2.4332,-2.4447,-2.4505,-2.4708,-2.4765,-2.4765,0.0,0.0,0.0,0.0,0.0,0.0,0.0,0.0,0.0,0.0,0.0,0.0,-2.3234,-2.4086,-2.4881,-2.6755,-2.7372,-2.7488,-2.7488,-2.7386,-2.7358,-2.7506,-2.751,-2.7662,-2.8326,-2.8768,-2.891,-2.8497,-2.8498,-2.8437,-2.794,-2.6904,-2.59,-2.5258,-2.4283,-2.3527,-2.3115,-2.2871,-2.2555,-2.2163,-2.1302,-2.0677,-2.042,-1.9791,-1.9473,-1.9736,-1.9736,-1.9736,-1.9813,-1.9131,-1.8442,-1.7842,-1.7097,-1.6473,-1.5982,-1.5982,-1.6175,-1.6553,-1.672,-1.709,-1.7476,-1.8109,-1.8389,-1.8514,-1.8514,-1.8434,-1.8201,-1.7546,-1.6976,-1.6476,-1.5733,-1.5068,-1.4398,0.0,0.0,0.0,0.0,0.0,0.0,0.0,0.0,0.0,0.0,0.0,0.0,0.0,0.0,0.0,0.0,0.0,0.0,0.0,0.0,-2.8411,-2.8411,-2.8411,-2.8122,-2.7565,-2.7565,-2.7363,-2.6834,-2.7144,-2.673,-2.5673,-2.5453,-2.5007,-2.4509,-2.4376,-2.4274,-2.4332,-2.4892,-2.5104,-2.516,-2.5632,-2.5783,-2.5742,-2.5272,0.0,0.0,0.0,0.0,0.0,0.0,0.0,0.0,0.0,-2.1093,-2.1721,-2.2879,-2.4003,-2.517,-2.639,-2.7049,-2.7458,-2.7575,-2.7488,-2.755,-2.7971,-2.7646,-2.735,-2.7765,-2.7943,-2.7927,-2.7505,-2.7772,-2.7686,-2.6597,-2.5728,-2.4951,-2.4292,-2.3603,-2.3138,-2.3138,-2.2555,-2.2113,-2.2039,-2.1049,-2.0366,-2.0366,-1.9922,-1.9736,-1.9933,-1.9933,-1.9933,-2.0009,-1.9473,-1.8721,-1.7969,-1.7304,-1.676,-1.6342,-1.6342,-1.656,-1.6917,-1.692,-1.7099,-1.7541,-1.832,-1.888,-1.9246,-1.9246,-1.9045,-1.8772,-1.8612,-1.787,-1.6812,-1.664,-1.556,-1.4139,0.0,0.0,0.0,0.0,0.0,0.0,0.0,0.0,0.0,0.0,0.0,0.0,0.0,0.0,0.0,0.0,0.0,0.0,0.0,0.0,-2.8411,-2.8411,-2.8411,-2.8348,-2.8186,-2.8186,-2.8137,-2.8024,-2.721,-2.6678,-2.6467,-2.6283,-2.6176,-2.6014,-2.5906,-2.5783,-2.5769,-2.5877,-2.5863,-2.5823,-2.5918,-2.5877,-2.5783,-2.5687,-2.5632,0.0,0.0,0.0,0.0,0.0,0.0,0.0,-2.1328,-2.1407,-2.1721,-2.2879,-2.374,-2.4638,-2.6285,-2.6443,-2.6428,-2.7357,-2.7575,-2.7569,-2.7688,-2.7629,-2.7658,-2.8114,-2.7847,-2.755,-2.7554,-2.7542,-2.7462,-2.7196,-2.6068,-2.5119,-2.5007,-2.4002,-2.333,-2.333,-2.275,-2.2175,-2.1741,-2.0921,-2.0302,-2.0064,-1.9933,-1.9878,-2.0074,-2.0074,-1.9868,-1.9507,-1.9309,-1.8777,-1.7774,-1.7638,-1.7304,-1.676,-1.676,-1.6839,-1.6908,-1.6921,-1.7131,-1.7523,-1.8036,-1.8476,-1.8843,-1.8843,-1.8948,-1.9063,-1.8238,-1.7747,-1.7342,-1.6511,-1.5357,-1.4371,0.0,0.0,0.0,0.0,0.0,0.0,0.0,0.0,0.0,0.0,0.0,0.0,0.0,0.0,0.0,0.0,0.0,0.0,0.0,0.0,0.0,-2.8411,-2.8411,-2.8411,-2.8411,-2.8411,-2.8411,-2.8411,-2.781,-2.7378,-2.7093,-2.6953,-2.6759,-2.651,-2.6322,-2.6254,-2.624,-2.6505,-2.6573,-2.6573,-2.6782,-2.6849,-2.6811,-2.6481,-2.6375,-2.6236,-2.5029,0.0,0.0,0.0,0.0,0.0,0.0,0.0,-2.2926,-2.3801,-2.467,-2.554,-2.6426,-2.668,-2.6834,-2.7471,-2.7594,-2.7625,-2.7625,-2.7625,-2.7664,-2.7891,-2.7712,-2.7539,-2.7575,-2.7524,-2.7269,-2.6616,-2.5892,-2.5175,-2.4509,-2.3897,-2.3509,-2.3509,-2.2628,-2.1928,-2.1616,-2.0741,-2.0118,-1.9933,-1.9944,-2.0009,-2.0085,-2.0085,-1.9933,-1.9726,-1.9177,-1.8643,-1.8104,-1.7569,-1.7176,-1.6908,-1.6908,-1.6908,-1.6908,-1.6908,-1.7119,-1.7504,-1.7724,-1.8054,-1.8449,-1.8632,-1.8834,-1.8957,-1.8169,-1.7585,-1.709,-1.6108,-1.5039,-1.4048,0.0,0.0,0.0,0.0,0.0,0.0,0.0,0.0,0.0,0.0,0.0,0.0,0.0,0.0,0.0,0.0,0.0,0.0,0.0,0.0,0.0,-2.8411,-2.8411,-2.8411,-2.8411,-2.8411,-2.8411,-2.8411,-2.8411,-2.8122,-2.763,-2.7515,-2.721,-2.6826,-2.6625,-2.6558,-2.6611,-2.7108,-2.7327,-2.7327,-2.7725,-2.7905,-2.7905,-2.7342,-2.7174,-2.7115,-2.5905,-2.5184,-2.4623,-2.3925,0.0,0.0,0.0,0.0,-2.4419,-2.4891,-2.572,-2.66,-2.6661,-2.7129,-2.7565,-2.7327,-2.7433,-2.7542,-2.7488,-2.7524,-2.7575,-2.7473,-2.7524,-2.7625,-2.7625,-2.7625,-2.7188,-2.6,-2.5673,-2.5175,-2.3956,-2.3688,-2.3628,-2.3497,-2.2372,-2.1616,-2.1491,-2.056,-1.9933,-1.9933,-2.0009,-2.0085,-2.0085,-2.0085,-2.0009,-1.9802,-1.8977,-1.8442,-1.824,-1.7373,-1.6908,-1.6908,-1.6908,-1.6908,-1.6908,-1.6908,-1.7082,-1.7394,-1.7394,-1.7633,-1.8036,-1.8366,-1.8586,-1.8665,-1.8268,-1.7616,-1.6862,-1.6124,-1.5054,-1.3899,0.0,0.0,0.0,0.0,0.0,0.0,0.0,0.0,0.0,0.0,0.0,0.0,0.0,0.0,0.0,0.0,0.0,0.0,-2.8747,0.0,0.0,-2.8411,-2.8411,-2.8411,-2.8411,-2.8411,-2.8411,-2.8411,-2.8411,-2.8348,-2.8299,-2.8122,-2.8073,-2.8137,-2.8024,-2.8024,-2.8137,-2.8186,-2.8137,-2.8073,-2.8137,-2.8103,-2.8005,-2.7905,-2.7855,-2.7775,-2.6968,-2.6614,-2.6442,-2.5852,-2.5245,0.0,0.0,0.0,-2.5037,-2.5176,-2.5551,-2.5998,-2.6539,-2.7129,-2.7332,-2.6287,-2.6806,-2.7457,-2.6957,-2.7203,-2.7458,-2.6945,-2.7255,-2.7625,-2.7625,-2.7625,-2.7357,-2.6669,-2.6014,-2.5342,-2.4624,-2.4144,-2.3628,-2.3053,-2.231,-2.169,-2.1187,-2.0366,-1.9944,-2.0074,-2.0085,-2.0085,-2.0085,-2.0085,-1.9671,-1.871,-1.8576,-1.8037,-1.7107,-1.6978,-1.6908,-1.6908,-1.6908,-1.6908,-1.6908,-1.6908,-1.6936,-1.6991,-1.6991,-1.7211,-1.7587,-1.7642,-1.8073,-1.8715,-1.8615,-1.8276,-1.7836,-1.7674,-1.6437,-1.4796,0.0,0.0,0.0,0.0,0.0,0.0,0.0,0.0,0.0,0.0,0.0,0.0,0.0,0.0,0.0,-2.8794,-2.8794,-2.8747,-2.8684,-2.8636,-2.8541,-2.8411,-2.8411,-2.8411,-2.8411,-2.8411,-2.8411,-2.8411,-2.8411,-2.8411,-2.8411,-2.8348,-2.8348,-2.8411,-2.8348,-2.8348,-2.8411,-2.8411,-2.8348,-2.8299,-2.8235,-2.8201,-2.8217,-2.8152,-2.8152,-2.8152,-2.776,-2.7429,-2.7152,-2.7137,-2.655,-2.5962,-2.6724,0.0,0.0,0.0,-2.6839,-2.6959,-2.7088,-2.7404,-2.7366,-2.6511,-2.6674,-2.6944,-2.6318,-2.639,-2.6496,-2.6229,-2.639,-2.6587,-2.6587,-2.6878,-2.6774,-2.5865,-2.5742,-2.5412,-2.4478,-2.4157,-2.3747,-2.31,-2.2421,-2.1741,-2.1187,-2.0442,-2.0009,-2.0085,-2.0085,-2.0085,-2.0085,-2.0085,-1.9868,-1.9396,-1.911,-1.8566,-1.7765,-1.751,-1.7176,-1.6908,-1.6908,-1.6908,-1.6908,-1.6908,-1.6908,-1.6908,-1.6908,-1.7,-1.7183,-1.7403,-1.7706,-1.7999,-1.7988,-1.7865,-1.7556,-1.679,-1.5959,-1.5137,0.0,0.0,0.0,0.0,0.0,0.0,0.0,0.0,0.0,0.0,0.0,0.0,0.0,0.0,0.0,0.0,-2.8889,-2.8826,-2.8716,-2.8668,-2.8589,-2.846,-2.8396,-2.8411,-2.8411,-2.8411,-2.8411,-2.8411,-2.8411,-2.8411,-2.8411,-2.8411,-2.8411,-2.8411,-2.8411,-2.8411,-2.8411,-2.8411,-2.8411,-2.8411,-2.8299,-2.8299,-2.8411,-2.8299,-2.8299,-2.8396,-2.8235,-2.8016,-2.7844,-2.8248,-2.7799,-2.7209,-2.8204,-2.8071,0.0,0.0,0.0,-2.7723,-2.7523,-2.7418,-2.7216,-2.6626,-2.6471,-2.6314,-2.5716,-2.5687,-2.5728,-2.5632,-2.5577,-2.5522,-2.5412,-2.596,-2.6136,-2.5174,-2.5314,-2.5189,-2.4028,-2.3865,-2.3543,-2.2713,-2.2163,-2.1553,-2.088,-2.0388,-2.0085,-2.0085,-2.0085,-2.0085,-2.0085,-1.9933,-1.9802,-1.9671,-1.9187,-1.8643,-1.8104,-1.7706,-1.7304,-1.6908,-1.6908,-1.6908,-1.6908,-1.6908,-1.6908,-1.6908,-1.6908,-1.6908,-1.6927,-1.722,-1.7332,-1.7252,-1.7397,-1.7278,-1.7013,-1.599,-1.5486,-1.5318,0.0,0.0,0.0,0.0,0.0,0.0,0.0,0.0,0.0,0.0,0.0,0.0,-2.9075,-2.9091,-2.9075,-2.9075,-2.9075,-2.9029,-2.8904,-2.8811,-2.8747,-2.8589,-2.8444,0.0,-2.8411,-2.8411,-2.8411,-2.8411,-2.8411,-2.8411,-2.8411,-2.8411,-2.8411,-2.8411,-2.8411,-2.8411,-2.8411,-2.8411,-2.8411,-2.8411,-2.8411,-2.8411,-2.8411,-2.8411,-2.8411,-2.8396,-2.8235,-2.8599,-2.9083,-2.9114,-2.9124,-2.9188,-2.9362,-2.889,-2.8195,0.0,0.0,0.0,-2.7523,-2.7105,-2.6594,-2.6031,-2.5841,-2.5697,-2.5184,-2.5425,-2.5687,-2.5174,-2.5061,-2.4892,-2.4274,-2.509,-2.5687,-2.5118,-2.5005,-2.458,-2.3327,-2.3148,-2.2665,-2.1376,-2.1187,-2.088,-2.0205,-2.014,-2.0085,-2.0085,-2.0085,-2.0085,-2.0085,-1.9649,-1.91,-1.8576,-1.8037,-1.751,-1.6968,-1.6978,-1.6908,-1.6908,-1.6908,-1.6908,-1.6908,-1.6908,-1.6908,-1.6908,-1.6908,-1.6908,-1.6908,-1.6927,-1.6723,-1.6538,-1.7243,-1.7041,-1.634,-1.6134,-1.5782,-1.5318,0.0,0.0,0.0,0.0,0.0,0.0,0.0,0.0,0.0,0.0,0.0,0.0,0.0,-2.9075,-2.9075,-2.9075,-2.9075,-2.9029,-2.8904,-2.8873,-2.8811,-2.8732,-2.8589,-2.8541,-2.8541,-2.8444,-2.8411,-2.8411,-2.8411,-2.8411,-2.8411,-2.8411,-2.8411,-2.8411,-2.8411,-2.8411,-2.8411,-2.8411,-2.8411,-2.8411,-2.8411,-2.8411,-2.8411,-2.8411,-2.8411,-2.8458,-2.8839,-2.9097,-2.9485,-3.033,-3.0377,-3.01,-3.0104,-2.9657,-2.8967,-2.8417,-2.8105,-2.7973,-2.7934,-2.7644,-2.7275,-2.6632,-2.6166,-2.5646,-2.5137,-2.4874,-2.4664,-2.4447,-2.439,-2.4332,-2.4112,-2.4778,-2.5104,-2.4505,-2.4721,-2.458,-2.3267,-2.3088,-2.2592,-2.125,-2.0836,-2.0393,-1.9734,-1.9397,-1.9087,-1.8753,-1.8977,-1.9029,-1.8695,-1.8757,-1.871,-1.8509,-1.8307,-1.7978,-1.7442,-1.7038,-1.6908,-1.6908,-1.6908,-1.6908,-1.6908,-1.6908,-1.6908,-1.6908,-1.6908,-1.6908,-1.6908,-1.6908,-1.6851,-1.6705,-1.6803,-1.6629,-1.6246,-1.5622,-1.5219,-1.4953,0.0,0.0,0.0,0.0,0.0,0.0,0.0,0.0,0.0,-2.9075,0.0,0.0,0.0,0.0,-2.9075,-2.9075,-2.9075,-2.9075,-2.8967,-2.8904,-2.8873,-2.8826,-2.8732,-2.8636,-2.8573,-2.8493,-2.8444,-2.8411,-2.8411,-2.8411,-2.8411,-2.8411,-2.8411,-2.8411,-2.8411,-2.8411,-2.8411,-2.8411,-2.8411,-2.8411,-2.8411,-2.8411,-2.8411,-2.8411,-2.855,-2.8796,-2.9258,-2.9704,-3.0212,-3.1089,-3.1156,-3.0798,-3.0572,-2.9685,-2.8726,-2.817,-2.794,-2.7889,-2.7851,-2.7708,-2.7523,-2.7075,-2.6433,-2.573,-2.5214,-2.4734,-2.4347,-2.4151,-2.4112,-2.4112,-2.4112,-2.4447,-2.4563,-2.4171,-2.4447,-2.4247,-2.2967,-2.2774,-2.2225,-2.0705,-2.0274,-1.9829,-1.9251,-1.8884,-1.8495,-1.8057,-1.8228,-1.8217,-1.7708,-1.7775,-1.7737,-1.7539,-1.7539,-1.7484,-1.7233,-1.6912,-1.678,-1.6908,-1.6908,-1.6908,-1.6908,-1.6908,-1.6908,-1.6908,-1.6908,-1.6908,-1.6908,-1.6908,-1.676,-1.65,-1.6537,-1.6353,-1.593,-1.5196,-1.4959,-1.4779,0.0,0.0,0.0,0.0,0.0,0.0,0.0,0.0,0.0,-2.9075,0.0,0.0,0.0,0.0,0.0,-2.9075,-2.9075,-2.9091,-2.9107,-2.8998,-2.8951,-2.8967,-2.8873,-2.8794,-2.8683,0.0,-2.8587,-2.8427,-2.8427,-2.8427,-2.8348,-2.8411,-2.8411,-2.8348,-2.8411,-2.8411,-2.8411,-2.8411,-2.8411,-2.8411,-2.8411,-2.8411,-2.8411,-2.8427,-2.8842,-2.9427,-2.9458,-3.0304,-3.1382,-3.1413,-3.146,-3.1422,-3.0674,-2.9083,-2.7386,-2.7386,-2.73,-2.7213,0.0,0.0,0.0,-2.725,-2.6698,-2.599,-2.5361,-2.5096,-2.4805,-2.423,-2.4112,-2.4112,-2.4112,-2.4054,-2.4054,-2.4054,-2.4054,-2.3616,-2.2298,-2.2101,-2.1428,-1.961,-1.9408,-1.9211,-1.8731,-1.8665,-1.8451,-1.7954,-1.7964,-1.7729,-1.7254,-1.6743,-1.6246,-1.5689,-1.5689,-1.589,-1.6294,-1.6303,-1.6496,-1.689,-1.689,-1.689,-1.6908,-1.6908,-1.6908,-1.6908,-1.6908,-1.6908,-1.6908,-1.6908,-1.6473,-1.5903,-1.6621,-1.6208,-1.5208,-1.5133,-1.495,-1.4721,0.0,0.0,0.0,0.0,0.0,0.0,0.0,0.0,-2.9075,0.0,0.0,0.0,-2.9075,-2.9075,-2.9075,-2.9075,-2.9075,-2.9343,-2.9848,-2.988,-3.0053,-3.0558,-3.0427,-3.0329,-3.018,0.0,0.0,0.0,0.0,0.0,0.0,0.0,0.0,-2.7795,-2.8186,-2.8411,-2.8411,-2.8411,-2.8411,-2.8411,-2.8411,-2.8411,-2.8458,-2.895,-2.9258,-2.955,-3.0489,-3.1074,-3.1459,-3.1951,-3.2133,-3.1901,-3.0366,-2.851,-2.6992,-2.6992,-2.7242,-2.7579,-2.7579,0.0,0.0,0.0,0.0,0.0,-2.6126,-2.5554,-2.4971,-2.4379,-2.4157,-2.4112,-2.4112,-2.3734,-2.3412,-2.3412,-2.3412,-2.31,-2.2237,-2.1678,-2.1014,-2.0018,-1.9321,-1.884,-1.8698,-1.7761,-1.7006,-1.653,-1.6417,-1.6179,-1.5756,-1.5841,-1.5872,-1.5689,-1.6,-1.613,-1.5863,-1.6178,-1.658,-1.7064,-1.668,-1.6828,-1.7442,-1.7107,-1.6908,-1.6908,-1.6908,-1.6908,-1.6908,-1.6908,-1.676,-1.6551,-1.6263,-1.5902,-1.5513,-1.4595,-1.4199,-1.412,0.0,0.0,0.0,0.0,0.0,0.0,0.0,-2.8669,-2.9075,0.0,0.0,0.0,-2.9075,-2.939,-2.9564,-2.9564,-2.9832,-3.018,-3.0591,-3.0607,-3.0796,-3.1191,-3.1158,-3.0942,-3.0587,0.0,0.0,0.0,0.0,0.0,0.0,0.0,0.0,-2.7515,-2.8171,-2.8444,-2.8396,-2.8444,-2.8444,-2.8427,-2.8704,-2.8827,-2.8904,-2.9581,-2.9997,-3.0335,-3.1105,-3.1382,-3.149,-3.2167,-3.2048,-3.1379,-2.9985,-2.8294,-2.6713,-2.6489,-2.6864,-2.7339,-2.7339,-2.7872,-2.8444,-2.8444,0.0,0.0,-2.6481,-2.5722,-2.5005,-2.436,-2.3721,-2.3365,-2.3603,-2.316,-2.2652,-2.2652,-2.247,-2.2113,-2.1741,-2.1376,-2.0801,-1.992,-1.9157,-1.8611,-1.8425,-1.7301,-1.64,-1.5931,-1.5704,-1.5321,-1.4854,-1.5074,-1.5318,-1.5486,-1.5733,-1.5942,-1.5999,-1.6311,-1.665,-1.708,-1.7014,-1.7092,-1.7379,-1.7288,-1.7107,-1.6908,-1.6908,-1.6908,-1.6908,-1.6908,-1.6908,-1.6839,-1.6412,-1.6053,-1.5647,-1.4613,-1.4037,-1.3838,0.0,0.0,0.0,0.0,0.0,0.0,0.0,-2.9014,-2.9312,0.0,-2.9312,-2.9312,-2.9312,-2.9927,-3.0291,-3.0291,-3.086,-3.1239,-3.1334,-3.1334,-3.1315,-3.1328,-3.1344,-3.106,-3.0477,0.0,0.0,0.0,0.0,0.0,0.0,0.0,0.0,0.0,0.0,-2.8523,-2.8519,-2.8649,-2.8647,-2.8673,-2.9196,-2.9458,-2.9597,-3.0274,-3.0843,-3.1289,-3.1351,-3.1336,-3.1366,-3.1967,-3.1268,-3.0101,-2.9549,-2.804,-2.644,-2.5952,-2.628,-2.6823,-2.6823,-2.7691,-2.8587,-2.8587,-2.8444,0.0,-2.6561,-2.5709,-2.4961,-2.417,-2.3053,-2.2347,-2.2967,-2.247,-2.2039,-2.199,-2.1439,-2.1008,-2.106,-2.1071,-2.0595,-1.9613,-1.8953,-1.8463,-1.8119,-1.7116,-1.6285,-1.5931,-1.541,-1.4951,-1.4506,-1.4565,-1.4793,-1.5177,-1.5284,-1.5713,-1.6417,-1.6487,-1.6709,-1.7141,-1.747,-1.7516,-1.7212,-1.7533,-1.7463,-1.6968,-1.6968,-1.6978,-1.6908,-1.6908,-1.6908,-1.6908,-1.6908,-1.6473,-1.5833,-1.5037,-1.4436,-1.3887,-2.6779,0.0,0.0,0.0,0.0,0.0,0.0,-3.019,-3.0812,-3.0812,-3.0812,-3.0812,-3.0812,-3.0939,-3.1002,-3.1002,-3.1128,-3.146,-3.2029,-3.2111,-3.2143,-3.2344,-3.2306,-3.2037,-3.1445,-3.146,0.0,0.0,0.0,0.0,0.0,0.0,0.0,0.0,0.0,-2.8606,-2.9345,-2.9261,-2.962,-3.0134,-2.9716,-2.9836,-3.0304,-3.0951,-3.0951,-3.0689,-3.1197,-3.1043,-3.0628,-3.0766,-2.9674,-2.8232,-2.8108,-2.6833,-2.5338,-2.5238,-2.5955,-2.6823,-2.6823,-2.7691,-2.8587,-2.8587,-2.8587,0.0,-2.6512,-2.5936,-2.5299,-2.3872,-2.3198,-2.2871,-2.2725,-2.2163,-2.1616,-2.1313,-2.0752,-2.0506,-2.0996,-2.0635,-2.0237,-2.0019,-1.8899,-1.828,-1.8567,-1.6691,-1.5584,-1.5874,-1.5137,-1.4625,-1.4515,-1.4843,-1.5118,-1.5167,-1.5931,-1.6212,-1.6004,-1.642,-1.6832,-1.729,-1.6901,-1.7306,-1.8253,-1.7956,-1.7656,-1.7579,-1.7579,-1.7304,-1.6908,-1.6908,-1.6908,-1.6908,-1.6908,-1.683,-1.6621,-1.5833,-1.5086,-1.4382,-2.72,0.0,0.0,0.0,0.0,0.0,0.0,0.0,-3.1223,-3.1223,-3.1223,-3.1223,-3.1223,-3.1523,-3.1744,-3.1744,-3.2045,-3.2408,-3.2756,-3.2787,-3.2756,-3.2641,-3.2586,-3.2256,-3.1509,-3.1509,-3.1172,0.0,0.0,0.0,0.0,0.0,0.0,0.0,-2.8786,-2.9348,-2.9653,-3.0026,-3.0596,-3.1203,-3.0691,-3.0649,-3.0936,-3.1259,-3.1182,-3.0905,-3.0905,-3.0705,-3.0366,-3.0027,-2.9301,-2.8465,-2.7905,-2.6877,-2.5742,-2.516,-2.586,-2.6823,-2.6823,-2.7691,-2.8587,-2.8587,-2.8392,0.0,0.0,-2.5484,-2.4659,-2.3498,-2.2641,-2.2199,-2.2359,-2.1815,-2.1262,-2.088,-2.0582,-2.0388,-2.0571,-2.0324,-2.0009,-1.9726,-1.8839,-1.8197,-1.7955,-1.6467,-1.5417,-1.5215,-1.4803,-1.4515,-1.4515,-1.4951,-1.5294,-1.5517,-1.6218,-1.657,-1.657,-1.6807,-1.7048,-1.7284,-1.7227,-1.7455,-1.7904,-1.8121,-1.8061,-1.7742,-1.7687,-1.7579,-1.7304,-1.7038,-1.6908,-1.6908,-1.6908,-1.6908,-1.683,-1.6053,-1.5542,-1.5062,-2.781,0.0,0.0,0.0,0.0,0.0,0.0,0.0,-3.1502,-3.1618,-3.1618,-3.1618,-3.1618,-3.2124,-3.2523,-3.2523,-3.2909,-3.3187,-3.3309,-3.3134,-3.2834,-3.2477,-3.2367,-3.1992,-3.1161,-3.1161,-3.0984,0.0,0.0,0.0,0.0,0.0,0.0,-2.8326,-2.948,-2.9955,-3.0008,-3.0639,-3.1399,-3.2055,-3.1619,-3.1435,-3.1473,-3.135,-3.1173,-3.0973,-3.0258,-3.0027,-2.995,-2.9396,-2.9046,-2.8713,-2.7783,-2.6992,-2.6215,-2.5272,-2.586,-2.6823,-2.6823,-2.7691,-2.8587,-2.8457,-2.8118,-2.7407,0.0,0.0,0.0,-2.312,-2.2099,-2.1526,-2.1939,-2.1639,-2.1158,-2.0764,-2.0635,-2.0453,-2.0074,-2.0009,-1.9802,-1.9365,-1.8781,-1.8173,-1.7425,-1.6429,-1.5425,-1.4543,-1.4515,-1.4565,-1.4625,-1.5069,-1.5526,-1.6046,-1.6513,-1.6931,-1.7278,-1.7278,-1.7278,-1.7278,-1.7671,-1.7668,-1.7402,-1.8247,-1.8373,-1.796,-1.786,-1.7774,-1.7638,-1.7107,-1.6908,-1.6908,-1.6908,-1.6908,-1.683,-1.6263,-1.5903,-1.5621,-2.8565,-2.8579,0.0,0.0,0.0,0.0,0.0,0.0,-3.26,-3.3003,-3.3072,-3.3072,-3.3072,-3.3135,-3.3182,-3.3182,-3.2895,-3.2834,-3.324,-3.2508,-3.2048,-3.1992,-3.1667,-3.1219,-3.0687,-3.0687,-3.0628,0.0,0.0,0.0,0.0,0.0,0.0,-2.8895,-2.8827,-2.9504,-3.0782,-3.0743,-3.1551,-3.2741,-3.1874,-3.1678,-3.1706,-3.1063,-3.0406,-2.9685,-2.8922,-2.8642,-2.8627,-2.855,-2.7866,-2.7003,-2.6846,-2.6056,-2.516,-2.5061,-2.586,-2.6823,-2.6823,-2.7691,-2.8457,-2.7987,-2.7855,-2.7275,-2.5228,0.0,-2.4097,-2.2589,0.0,-2.1999,-2.1776,0.0,0.0,-2.1158,-2.0828,-2.0442,-1.9911,-1.9573,-1.9375,-1.9309,-1.852,-1.791,-1.774,-1.6543,-1.5425,-1.4543,-1.4515,-1.4675,-1.5118,-1.5584,-1.6046,-1.6513,-1.6987,-1.7278,-1.7278,-1.7278,-1.7278,-1.7278,-1.7333,-1.7584,-1.7962,-1.8474,-1.8633,-1.8477,-1.8451,-1.8104,-1.7638,-1.7107,-1.6908,-1.6908,-1.6908,-1.6908,-1.6908,-1.683,-1.6333,-1.5683,-2.9232,-2.9232,-2.9406,0.0,0.0,0.0,0.0,0.0,-3.2382,-3.2834,-3.2888,-3.3011,-3.324,-3.3309,-3.3187,-3.2888,-3.2711,-3.2547,-3.2508,-3.2104,-3.1766,-3.1552,-3.1394,-3.1102,-3.0628,-3.0568,-3.0568,-3.0568,-3.0568,0.0,0.0,0.0,0.0,-2.9668,-2.9812,-3.0235,-3.086,-3.1031,-3.1506,-3.2066,-3.1195,-3.084,-3.082,-3.0188,-2.9512,-2.8879,-2.8601,-2.8444,-2.8348,-2.8008,-2.758,-2.7056,-2.6443,-2.5934,-2.5453,-2.5118,-2.586,-2.6823,-2.6823,-2.7691,-2.8457,-2.7908,-2.7577,-2.6878,-2.5034,-2.4341,-2.3786,-2.2476,0.0,0.0,0.0,0.0,0.0,0.0,-2.1336,-2.088,-1.9977,-1.9704,-1.9299,-1.8442,-1.8014,-1.7551,-1.6987,-1.6015,-1.5306,-1.5194,-1.4983,-1.5069,-1.5476,-1.6213,-1.6759,-1.6939,-1.7734,-1.8097,-1.8097,-1.7835,-1.7704,-1.7693,-1.7409,-1.7387,-1.7606,-1.8075,-1.8425,-1.8644,-1.8593,-1.841,-1.8104,-1.7569,-1.7166,-1.6908,-1.6908,-1.6908,-1.6908,-1.6908,-1.6691,-1.6333,-2.9885,-2.9885,-3.0031,-3.0495,0.0,0.0,0.0,-3.1667,-3.2033,-3.2367,-3.2268,-3.2269,-3.2623,-3.2504,-3.2273,-3.1921,-3.1774,-3.161,-3.1374,-3.1166,-3.1031,-3.1053,-3.0894,-3.0749,-3.0628,-3.0568,-3.0568,-3.0568,0.0,0.0,0.0,0.0,0.0,0.0,-3.0447,-3.0658,-3.0837,-3.1102,-3.1302,-3.1298,-3.0486,-2.996,-2.9609,-2.9366,-2.8974,-2.8508,-2.8589,-2.8429,-2.8073,-2.763,-2.7312,-2.6901,-2.615,-2.5784,-2.5592,-2.5308,-2.5995,-2.6864,-2.7026,-2.7813,-2.8457,-2.7776,-2.7193,-2.6353,-2.4747,-2.3969,-2.3292,-2.2378,-2.2197,0.0,0.0,0.0,-2.2123,-2.1851,0.0,-2.0996,-1.9955,-1.9507,-1.8911,-1.7842,-1.7569,-1.7145,-1.6358,-1.578,-1.5505,-1.568,-1.5423,-1.5512,-1.6109,-1.6815,-1.7316,-1.7626,-1.8312,-1.8687,-1.8687,-1.8359,-1.8196,-1.8196,-1.7715,-1.7475,-1.7486,-1.7846,-1.8261,-1.872,-1.8627,-1.864,-1.871,-1.8172,-1.7569,-1.7107,-1.7107,-1.7038,-1.6908,-1.6908,-1.6908,-1.676,-3.0539,-3.0539,-3.0553,-3.0568,-3.0628,-3.0747,-3.1219,-3.1667,-3.1936,-3.1936,-3.143,-3.1034,-3.1089,-3.0479,-3.0083,-3.0068,-2.9756,-2.9648,-3.0031,-2.9252,-2.9283,-3.0268,-2.9928,-2.9943,-3.0568,-3.0568,-3.0568,-3.0568,0.0,0.0,0.0,0.0,0.0,0.0,-3.0111,-3.0387,-3.0777,-3.0837,-3.0819,-3.0754,-3.009,-2.9188,-2.8314,-2.8763,-2.8858,-2.8747,-2.8636,-2.8155,-2.7515,-2.7515,-2.6811,-2.5948,-2.5893,-2.5508,-2.5113,-2.5697,-2.6321,-2.6945,-2.7515,-2.8125,-2.8327,-2.731,-2.6629,-2.5803,-2.4213,-2.3441,-2.2859,-2.2306,-2.2197,-2.2197,-2.2197,-2.2197,-2.2197,-2.2197,-2.1325,0.0,0.0,-1.8777,-1.7998,-1.7706,-1.7245,-1.6752,-1.6358,-1.6294,-1.6111,-1.5716,-1.568,-1.6109,-1.7129,-1.7191,-1.7626,-1.8627,-1.8687,-1.8687,-1.8687,-1.8676,-1.8665,-1.8665,-1.8206,-1.7977,-1.7988,-1.7999,-1.8261,-1.872,-1.8627,-1.8835,-1.9233,-1.871,-1.8172,-1.7638,-1.7638,-1.7373,-1.6908,-1.6908,-1.6908,-1.676,-3.0568,-3.0568,-3.0568,-3.0568,-3.0568,-3.0628,-3.0807,-3.0984,-3.0983,-3.0881,-3.0683,-3.0493,-3.0365,-3.016,-2.9864,-2.9642,-2.9495,-2.9332,-2.9153,-2.8834,-2.8881,-2.9254,-2.9114,-2.9305,-2.9929,-2.9943,-3.0147,-3.0568,-3.0568,0.0,0.0,0.0,0.0,0.0,-3.0172,-3.028,-3.0584,-2.9985,-2.9725,-2.9719,-2.8861,-2.8454,-2.8365,-2.8779,-2.8842,-2.8794,-2.8795,-2.8286,-2.758,-2.721,-2.6549,-2.5839,-2.5453,-2.5447,-2.5629,-2.5833,-2.6335,-2.6864,-2.7067,-2.701,-2.6767,-2.6052,-2.5523,-2.4791,-2.3559,-2.3111,-2.2835,-2.2306,-2.2197,-2.2197,-2.2197,-2.2197,-2.2197,-2.2197,-2.1463,-2.0666,0.0,-1.8432,-1.7442,-1.7373,-1.7107,-1.6853,-1.6716,-1.6477,-1.6367,-1.6486,-1.6257,-1.6543,-1.7463,-1.7869,-1.8383,-1.9105,-1.9446,-1.9659,-1.9659,-1.9331,-1.9168,-1.9168,-1.8687,-1.8458,-1.8447,-1.8141,-1.8261,-1.8698,-1.8678,-1.8763,-1.8825,-1.8986,-1.87,-1.824,-1.824,-1.7901,-1.7373,-1.7038,-1.6908,-1.676,-3.0568,-3.0568,-3.0568,-3.0568,-3.0568,-3.0568,-3.0568,-3.0379,-3.0192,-3.0057,-2.9849,-2.9651,-2.9549,-2.9559,-2.9396,-2.9167,-2.9182,-2.9016,-2.8737,-2.8463,-2.8448,-2.8666,-2.8463,-2.8637,-2.9276,-2.929,-2.9595,-3.0234,-3.0234,-3.035,0.0,0.0,0.0,0.0,-3.0009,-2.9939,-2.9871,-2.9217,-2.8856,-2.8685,-2.7979,-2.786,-2.8073,-2.8415,-2.859,-2.8684,-2.87,-2.8076,-2.7159,-2.6797,-2.6332,-2.5827,-2.5431,-2.5588,-2.5928,-2.6158,-2.6348,-2.6538,-2.6769,-2.6444,-2.5998,-2.5421,-2.4823,-2.4087,-2.318,-2.2835,-2.2606,-2.2258,-2.2197,-2.2197,-2.2197,-2.2197,-2.2123,-2.1862,-2.1198,-2.0344,0.0,-1.8037,-1.7314,-1.7235,-1.7038,-1.6908,-1.6908,-1.6679,-1.6633,-1.689,-1.667,-1.6964,-1.7959,-1.8307,-1.8844,-1.9584,-1.9933,-2.0085,-2.0085,-1.977,-1.9681,-1.967,-1.9415,-1.9293,-1.9282,-1.8803,-1.8748,-1.9037,-1.8808,-1.8776,-1.8924,-1.9211,-1.9097,-1.8767,-1.8566,-1.8172,-1.7638,-1.7304,-1.7038,-1.683,-3.0447,-3.0568,-3.0582,-3.0611,-3.0597,-3.0582,-3.0611,-3.0089,-2.9668,-2.9668,-2.9116,-2.871,-2.8681,-2.8681,-2.8681,-2.8681,-2.8681,-2.8681,-2.8681,-2.8115,-2.8042,-2.8652,-2.8071,-2.8028,-2.8666,-2.8652,-2.8942,-2.9581,-2.9581,-2.9885,0.0,0.0,0.0,0.0,-2.9581,-2.9247,-2.8681,-2.8637,-2.8274,-2.7636,-2.7447,-2.7401,-2.7437,-2.773,-2.8076,-2.8365,-2.8396,-2.7494,-2.6336,-2.6326,-2.6162,-2.5904,-2.5887,-2.5887,-2.6009,-2.6606,-2.6362,-2.6022,-2.6559,-2.6377,-2.5844,-2.5344,-2.4444,-2.3616,-2.3071,-2.2558,-2.2197,-2.2197,-2.2197,-2.2197,-2.2197,-2.2185,-2.1925,-2.1198,-2.0484,-1.9507,-1.791,-1.7588,-1.7461,-1.7245,-1.7038,-1.6908,-1.6908,-1.6908,-1.6908,-1.6908,-1.6908,-1.7373,-1.8442,-1.8509,-1.8977,-2.0085,-2.0085,-2.0074,-2.014,-2.0074,-2.0151,-2.014,-2.033,-2.04,-2.0389,-1.9932,-1.9678,-1.9608,-1.8977,-1.8938,-1.9353,-1.9397,-1.9351,-1.9267,-1.8757,-1.8172,-1.7706,-1.7638,-1.7304,-1.6908,-3.0447,-3.0568,-3.0727,-3.1192,-3.0887,-3.0727,-3.1206,-3.0742,-3.0321,-3.0321,-2.9769,-2.9203,-2.8739,-2.8681,-2.8681,-2.8681,-2.8681,-2.8681,-2.8681,-2.8521,-2.8507,-2.8666,-2.8071,-2.8028,-2.8666,-2.8216,-2.8289,-2.8927,-2.8927,-2.9,-2.9174,0.0,0.0,0.0,-2.8927,-2.8826,-2.8652,-2.8173,-2.7607,-2.7012,-2.6943,-2.7144,-2.7401,-2.7488,-2.7575,-2.769,-2.7944,-2.7464,-2.6765,-2.7043,-2.6412,-2.5629,-2.5823,-2.5887,-2.5914,-2.609,-2.6009,-2.5855,-2.5648,-2.4951,-2.4146,-2.3626,-2.3034,-2.2577,-2.2452,-2.2294,-2.2197,-2.2197,-2.2197,-2.2197,-2.2197,-2.1726,-2.1325,-2.1123,-2.0085,-1.8977,-1.8066,-1.7794,-1.7579,-1.7461,-1.7245,-1.7038,-1.6908,-1.6908,-1.6908,-1.6908,-1.6908,-1.7373,-1.8442,-1.8509,-1.8977,-2.0085,-2.0085,-2.0205,-2.0453,-2.0205,-2.0399,-2.0903,-2.0946,-2.0814,-2.0549,-2.0339,-1.9735,-1.8977,-1.8747,-1.8567,-1.8425,-1.9124,-1.9421,-1.9372,-1.9173,-1.8509,-1.7638,-1.7235,-1.7047,-1.6908,-3.07,-3.1224,-3.154,-3.1888,-3.1409,-3.1105,-3.1467,-3.0988,-3.048,-3.019,-2.9842,-2.9493,-2.9131,-2.9348,-2.9508,-2.9508,-2.9508,-2.9508,-2.9508,-2.9247,-2.9087,-2.9087,-2.8167,-2.7753,-2.7896,-2.7187,-2.7187,-2.7896,-2.7896,-2.8152,-2.8681,0.0,0.0,0.0,-2.826,-2.8115,-2.7824,-2.7461,-2.7113,-2.6779,-2.6779,-2.6937,0.0,-2.7453,-2.7504,-2.7586,-2.8099,-2.7733,-2.7079,-2.7291,-2.6863,-2.6282,-2.6106,-2.6004,-2.5887,-2.5887,-2.5581,-2.5132,-2.4898,-2.4072,-2.3245,-2.2969,-2.2555,-2.2197,-2.2197,-2.2197,-2.2197,-2.2197,-2.2197,-2.2197,-2.2197,-2.1588,-2.0933,-2.0279,-1.9243,-1.8462,-1.8076,-1.7862,-1.7647,-1.7588,-1.7451,-1.7245,-1.7038,-1.6978,-1.6908,-1.7038,-1.7038,-1.7569,-1.8767,-1.8834,-1.9375,-2.0518,-2.0593,-2.0646,-2.0839,-2.0646,-2.0903,-2.1526,-2.1753,-2.1815,-2.1616,-2.1372,-2.0644,-1.964,-1.8956,-1.8545,-1.8348,-1.8884,-1.9222,-1.9399,-1.9065,-1.8307,-1.7304,-1.7038,-1.6908,-1.6908,-3.0943,-3.1823,-3.2335,-3.2486,-3.1951,-3.1517,-3.1517,-3.0971,-3.0408,-2.9929,-2.9798,-2.974,-2.974,-3.0248,-3.0568,-3.0568,-3.0568,-3.0568,-3.0568,-3.0045,-2.974,-2.974,-2.845,-2.7493,-2.7074,-2.6287,-2.6147,-2.6651,-2.6651,-2.7188,0.0,0.0,0.0,0.0,-2.7429,-2.7248,-2.6779,-2.6779,-2.6779,-2.6794,-2.6881,-2.691,-2.6968,-2.7621,-2.7853,-2.7926,-2.8477,-2.8093,-2.7338,-2.7424,-2.7286,-2.6989,-2.6489,-2.6065,-2.5778,-2.5778,-2.511,-2.4292,-2.4234,-2.3543,-2.2909,-2.2787,-2.2494,-2.2197,-2.2197,-2.2197,-2.2197,-2.2197,-2.2197,-2.2197,-2.2197,-2.1588,-2.0677,-1.9375,-1.8586,-1.8144,-1.8144,-1.792,-1.7706,-1.7706,-1.7588,0.0,-1.7245,-1.7038,-1.6968,-1.7166,-1.7166,-1.7765,-1.9166,-1.9299,-1.9901,-2.1158,-2.1221,-2.1221,-2.1285,-2.1221,-2.1463,-2.1951,-2.2494,-2.2798,-2.2738,-2.2408,-2.174,-2.0745,-1.9369,-1.8715,-1.866,-1.8665,-1.8953,-1.936,-1.8757,-1.791,-1.6978,-1.6908,-1.6908,-1.6908,-3.0214,-3.0987,-3.1688,-3.2277,-3.1867,-3.1471,-3.1471,-3.1013,-3.0727,-3.1134,-3.0727,-3.0408,-3.0408,-3.051,-3.0568,-3.0568,-3.0568,-3.0568,-3.0568,-3.0466,-3.0408,-3.0408,-2.9118,-2.8362,-2.831,-2.7078,-2.6275,-2.5949,-2.5949,-2.5873,0.0,0.0,0.0,0.0,-2.6226,-2.644,-2.6779,-2.6779,-2.6779,-2.6823,-2.7345,-2.7563,-2.7636,-2.8274,-2.8507,-2.8521,-2.8637,-2.8219,-2.7686,-2.7925,-2.7201,-2.6162,-2.6284,-2.5778,-2.5168,-2.5168,-2.4731,-2.4234,-2.3813,-2.3305,-2.2787,-2.2432,-2.2247,-2.2197,-2.2197,-2.2197,-2.2197,-2.2197,-2.2197,-2.2197,-2.2197,-2.1588,-2.0869,-2.0031,-1.9309,-1.8844,-1.8844,-1.8327,-1.7862,-1.7706,-1.7706,-1.7579,-1.7461,-1.7245,-1.7107,-1.6968,-1.7107,-1.7774,-1.8977,-1.9233,-1.9901,-2.1158,-2.1221,-2.1348,-2.1588,-2.1348,-2.1549,-2.2123,-2.2199,-2.2113,-2.1901,-2.2051,-2.1507,-2.0453,-1.9501,-1.8896,-1.855,-1.8643,-1.894,-1.9259,-1.8736,-1.8104,-1.751,-1.7038,-1.6908,-1.6908,-3.0546,-3.1225,-3.1709,-3.1751,-3.1267,-3.077,-3.0519,-2.9945,-2.9769,-3.0406,-3.0574,-3.0568,-3.0568,-3.0568,-3.0447,-3.0129,-3.0068,-2.9931,-2.9532,-2.9532,-2.9532,-2.9532,-2.8551,-2.7886,-2.7637,-2.6601,-2.5978,-2.5781,-2.5475,-2.5346,-2.5412,-2.5157,-2.5133,-2.5425,-2.577,-2.6403,-2.7273,-2.7273,-2.7461,-2.7795,-2.81,-2.8216,-2.8289,-2.8927,-2.9174,-2.9174,-2.9174,-2.864,-2.7923,-2.7782,-2.7144,-2.6315,-2.5965,-2.5293,-2.465,-2.465,-2.4118,-2.3543,-2.3305,-2.2896,-2.2494,-2.2247,-2.2197,-2.2197,-2.2197,-2.2197,-2.2197,-2.2197,-2.2197,-2.2061,-2.1726,-2.1071,-2.0355,-1.9639,-1.8921,-1.8462,-1.8462,-1.8202,-1.794,-1.7862,-1.7862,-1.7794,-1.7588,-1.751,-1.7373,-1.7254,-1.7647,-1.8297,-1.9354,-1.9944,-2.0677,-2.1675,-2.1737,-2.18,-2.1987,-2.18,-2.1987,-2.2555,-2.2811,-2.2677,-2.2347,-2.2555,-2.1886,-2.0598,-1.9633,-1.8899,-1.8462,-1.861,-1.8795,-1.8844,-1.8576,-1.7969,-1.7235,-1.6978,-1.6908,-1.6908,-3.0671,-3.1213,-3.1492,-3.0969,-3.0306,-2.9753,-2.9362,-2.8702,-2.857,-2.9282,-2.9794,-3.0176,-3.0176,-3.0176,-2.9931,-2.9421,-2.9359,-2.9093,-2.8556,-2.8492,-2.8492,-2.8492,-2.7855,-2.7328,-2.6882,-2.6161,-2.5762,-2.5702,-2.5262,-2.521,-2.5548,-2.5034,-2.4869,-2.504,-2.5869,-2.6762,-2.7691,-2.7871,-2.8216,-2.8695,-2.8826,-2.8884,-2.8956,-2.9595,-2.9827,-2.9798,-2.9523,-2.8857,-2.8083,-2.727,-2.6792,-2.6371,-2.5563,-2.4835,-2.4292,-2.4176,-2.3543,-2.2909,-2.2909,-2.2555,-2.2197,-2.2197,-2.2197,-2.2197,-2.2197,-2.2197,-2.2197,-2.2197,-2.2197,-2.1987,-2.1463,-2.088,-2.0291,-1.9562,-1.8854,-1.8405,-1.8202,-1.8076,-1.8008,-1.8008,-1.8008,-1.794,-1.7784,-1.7706,-1.7647,-1.7529,-1.8182,-1.8957,-1.9727,-2.0655,-2.1463,-2.2185,-2.2197,-2.2197,-2.2197,-2.2197,-2.2371,-2.2726,-2.3125,-2.3125,-2.2726,-2.2871,-2.2213,-2.0924,-1.9812,-1.9014,-1.848,-1.8643,-1.867,-1.8633,-1.8566,-1.791,-1.7038,-1.6968,-1.6908,-1.6908,-2.9189,-2.9757,-3.0125,-2.9547,-2.8943,-2.8523,-2.847,-2.7971,-2.7868,-2.8492,-2.8684,-2.8684,-2.8684,-2.8684,-2.8684,-2.862,-2.862,-2.8556,-2.8492,-2.8492,-2.8492,-2.8492,-2.7855,-2.7458,-2.7406,-2.6761,-2.6156,-2.5577,-2.5526,-2.5327,-2.4912,-2.4355,-2.4384,-2.4977,-2.6675,-2.7479,-2.7651,-2.8339,-2.8623,-2.8739,-2.9305,-2.9537,-2.961,-3.0248,-3.0495,-3.0335,-2.9189,-2.854,-2.7969,-2.6537,-2.5841,-2.5508,-2.4948,-2.458,-2.4234,-2.3813,-2.3305,-2.2909,-2.2909,-2.2555,-2.2197,-2.2197,-2.2197,-2.2197,-2.2197,-2.2197,-2.2197,-2.2197,-2.2197,-2.2185,-2.2123,-2.2061,-2.1788,-2.0996,-2.0355,-1.9639,-1.8977,-1.8395,-1.8008,-1.8008,-1.8008,-1.8008,-1.794,-1.7784,-1.7706,-1.7706,-1.8365,-1.909,-1.9727,-2.0655,-2.1463,-2.2185,-2.2197,-2.2197,-2.2197,-2.2197,-2.2185,-2.2247,-2.2309,-2.2309,-2.2247,-2.2309,-2.1958,-2.1308,-2.0169,-1.9264,-1.8682,-1.8665,-1.8932,-1.9177,-1.87,-1.8172,-1.7569,-1.7107,-1.6908,-1.6908,-2.8486,-2.8644,-2.8758,-2.8196,-2.7902,-2.7633,-2.7288,-2.7058,-2.6973,-2.7297,-2.7986,-2.8492,-2.8492,-2.8492,-2.8363,-2.792,-2.792,-2.7736,-2.7351,-2.7284,-2.7284,-2.7284,-2.704,-2.6905,-2.6905,-2.6658,-2.6352,-2.6113,-2.5774,-2.5485,-2.5272,-2.4745,-2.4785,-2.5383,-2.6148,-2.6871,-2.7652,-2.7908,-2.8478,-2.928,-2.9522,-2.9817,-3.0219,-3.048,-3.0335,-2.9885,-2.9,-2.7954,-2.6789,-2.5814,-2.5258,-2.4935,-2.458,-2.4002,-2.3424,-2.3245,-2.2836,-2.2494,-2.2494,-2.2309,-2.2197,-2.2197,-2.2197,-2.2197,-2.2197,-2.2197,-2.2197,-2.2197,-2.2197,-2.2197,-2.2197,-2.1862,-2.1325,-2.0613,-1.989,-1.9177,-1.8529,-1.8134,-1.8008,-1.8008,-1.8008,-1.8008,-1.8008,-1.793,-1.7862,-1.7862,-1.8442,-1.909,-1.9727,-2.0655,-2.1463,-2.2185,-2.2197,-2.2197,-2.2197,-2.2197,-2.2197,-2.2197,-2.2494,-2.2494,-2.2185,-2.214,-2.1342,-1.9889,-1.9079,-1.8577,-1.8305,-1.8578,-1.8584,-1.841,-1.8475,-1.7978,-1.7176,-1.6968,-1.6908,-1.6908,-2.7896,-2.7858,-2.7695,-2.713,-2.7042,-2.6917,-2.6584,-2.6533,-2.6533,-2.6533,-2.7284,-2.792,-2.792,-2.792,-2.7736,-2.7229,-2.7229,-2.704,-2.6521,-2.6533,-2.6533,-2.6533,-2.6533,-2.6533,-2.6533,-2.6533,-2.6533,-2.6533,-2.605,-2.585,-2.5837,-2.5473,-2.5458,-2.5653,-2.6076,-2.676,-2.7591,-2.7782,-2.8392,-2.9282,-2.9282,-2.9546,-2.9979,-2.9979,-2.9594,-2.8966,-2.8295,-2.7125,-2.5751,-2.5084,-2.4553,-2.4163,-2.3943,-2.3424,-2.2848,-2.2726,-2.2432,-2.2197,-2.2197,-2.2197,-2.2197,-2.2197,-2.2197,-2.2197,-2.2197,-2.2197,-2.2197,-2.2197,-2.2197,-2.2123,-2.1925,-2.1463,-2.0805,-1.9901,-1.9375,-1.8787,-1.8066,-1.8008,-1.8008,-1.8008,-1.8008,-1.8008,-1.8008,-1.8008,-1.8008,-1.8008,-1.8327,-1.8967,-1.9868,-2.0666,-2.1463,-2.2185,-2.2197,-2.2197,-2.2197,-2.2197,-2.2197,-2.2197,-2.2555,-2.247,-2.1933,-2.1624,-2.0535,-1.8987,-1.8368,-1.8103,-1.8126,-1.8219,-1.8102,-1.7841,-1.8009,-1.76,-1.6908,-1.6908,-1.6908,-1.6908,-2.7394,-2.7293,-2.7118,-2.6634,-2.6533,-2.6533,-2.6533,-2.6533,-2.6533,-2.6533,-2.6533,-2.6521,-2.6521,-2.6521,-2.6521,-2.6533,-2.6533,-2.6533,-2.6533,-2.6533,-2.6533,-2.6533,-2.6533,-2.6533,-2.6533,-2.6533,-2.6533,-2.6533,-2.6521,-2.6521,-2.6521,-2.6508,-2.6138,-2.5678,-2.6945,-2.7471,-2.7524,-2.8233,-2.8492,-2.8492,-2.8492,-2.8492,-2.8492,-2.8492,-2.8189,-2.7591,-2.6823,-2.5942,-2.5117,-2.4275,-2.3518,-2.2909,-2.2909,-2.2909,-2.2787,-2.2309,-2.2197,-2.2197,-2.2197,-2.2197,-2.2197,-2.2197,-2.2197,-2.2197,-2.2197,-2.2197,-2.2197,-2.2197,-2.2197,-2.1987,-2.1262,-2.1135,-2.0613,-1.9233,-1.8977,-1.8787,-1.8066,-1.8008,-1.8008,-1.8008,-1.8008,-1.8008,-1.8008,-1.8008,-1.8008,-1.8008,-1.8008,-1.8596,-2.0031,-2.0741,-2.1463,-2.2185,-2.2197,-2.2197,-2.2197,-2.2197,-2.2197,-2.2197,-2.2197,-2.1921,-2.1368,-2.0298,-1.9694,-1.9347,-1.8478,-1.8192,-1.836,-1.7627,-1.7513,-1.7745,-1.7298,-1.7024,-1.6908,-1.6908,-1.6908,-1.6908,-2.6753,-2.6716,-2.6666,-2.6559,-2.6533,-2.6533,-2.6533,-2.6533,-2.6533,-2.6533,-2.6533,-2.6533,-2.6533,-2.6533,-2.6533,-2.6533,-2.6533,-2.6533,-2.6533,-2.6533,-2.6533,-2.6533,-2.6533,-2.6533,-2.6533,-2.6533,-2.6533,-2.6533,-2.6533,-2.6533,-2.6533,-2.6533,-2.6433,-2.6257,-2.6637,-2.685,-2.685,-2.704,-2.7417,-2.7802,-2.7802,-2.8117,-2.8492,-2.8492,-2.7881,-2.6986,-2.6614,-2.5495,-2.4059,-2.3675,-2.304,-2.2432,-2.2432,-2.2432,-2.2371,-2.2247,-2.2197,-2.2197,-2.2197,-2.2197,-2.2197,-2.2197,-2.2197,-2.2197,-2.2197,-2.2197,-2.2061,-2.1526,-2.1463,-2.1262,-2.0549,-2.042,-2.0096,-1.9177,-1.8977,-1.8787,-1.8066,-1.8008,-1.8008,-1.8008,-1.8008,-1.8008,-1.8008,-1.8008,-1.8008,-1.8008,-1.8008,-1.8596,-2.0031,-2.0291,-2.0944,-2.2185,-2.2197,-2.2197,-2.2197,-2.2197,-2.2197,-2.2185,-2.1825,-2.1175,-2.0286,-1.9937,-1.9479,-1.8807,-1.8317,-1.7834,-1.7429,-1.7313,-1.7134,-1.687,-1.7041,-1.7015,-1.6908,-1.6908,-1.6908,-1.6908,-2.6533,-2.6533,-2.6533,-2.6533,-2.6533,-2.6533,-2.6533,-2.6533,-2.6533,-2.6533,-2.6533,-2.6533,-2.6533,-2.6533,-2.6533,-2.6533,-2.6533,-2.6533,-2.6533,-2.6533,-2.6533,-2.6533,-2.6533,-2.6533,-2.6533,-2.6533,-2.6533,-2.6533,-2.6533,-2.6533,-2.6533,-2.6533,-2.6533,-2.6533,-2.6533,-2.6533,-2.6533,-2.6533,-2.6714,-2.7095,-2.7095,-2.7351,-2.771,-2.7485,-2.6826,-2.5919,-2.5524,-2.4481,-2.3245,-2.298,-2.258,-2.2197,-2.2197,-2.2197,-2.2197,-2.2197,-2.2197,-2.2197,-2.2197,-2.2197,-2.2197,-2.2197,-2.2197,-2.2123,-2.1862,-2.1788,-2.16,-2.088,-2.0741,-2.0484,-1.9835,-1.9704,-1.9441,-1.8721,-1.8654,-1.8462,-1.8076,-1.8008,-1.8008,-1.8008,-1.8008,-1.8008,-1.8008,-1.8008,-1.8008,-1.8008,-1.8008,-1.8462,-1.9639,-1.9966,-2.0624,-2.1726,-2.2061,-2.2197,-2.2197,-2.2197,-2.2089,-2.1885,-2.1139,-2.0442,-1.9768,-1.9576,-1.9246,-1.8721,-1.8302,-1.7744,-1.7134,-1.6875,-1.6558,-1.6191,-1.6493,-1.6655,-1.6707,-1.6853,-1.6908,-1.6908,-2.6533,-2.6533,-2.6533,-2.6533,-2.6533,-2.6533,-2.6533,-2.6533,-2.6533,-2.6533,-2.6533,-2.6533,-2.6533,-2.6533,-2.6533,-2.6533,-2.6533,-2.6533,-2.6533,-2.6533,-2.6533,-2.6533,-2.6533,-2.6533,-2.6533,-2.6533,-2.6533,-2.6533,-2.6533,-2.6533,-2.6533,-2.6533,-2.6533,-2.6533,-2.6533,-2.6533,-2.6533,-2.6533,-2.6533,-2.6533,-2.6533,-2.6533,-2.6402,-2.5824,-2.5272,-2.4693,-2.3813,-2.3145,-2.2629,-2.2309,-2.2197,-2.2197,-2.2197,-2.2197,-2.2197,-2.2197,-2.2197,-2.2197,-2.2197,-2.2197,-2.2197,-2.2197,-2.2185,-2.1925,-2.1262,-2.106,-2.0869,-2.0161,-2.0031,-1.977,-1.9044,-1.8911,-1.8721,-1.8076,-1.8008,-1.8008,-1.8008,-1.8008,-1.8008,-1.8008,-1.8008,-1.8008,-1.8008,-1.8008,-1.8008,-1.8008,-1.8008,-1.8269,-1.8911,-1.9704,-2.042,-2.106,-2.1788,-2.2173,-2.2137,-2.2137,-2.1861,-2.1284,-2.0261,-1.9756,-1.9708,-1.9215,-1.8987,-1.8999,-1.8356,-1.7799,-1.7268,-1.6322,-1.5851,-1.5756,-1.5724,-1.5945,-1.6367,-1.6762,-1.6908,-1.6908,-2.6533,-2.6533,-2.6533,-2.6533,-2.6533,-2.6533,-2.6533,-2.6533,-2.6533,-2.6533,-2.6533,-2.6533,-2.6533,-2.6533,-2.6533,-2.6533,-2.6533,-2.6533,-2.6533,-2.6533,-2.6533,-2.6533,-2.6533,-2.6533,-2.6533,-2.6533,-2.6533,-2.6533,-2.6533,-2.6533,-2.6533,-2.6533,-2.6533,-2.6533,-2.6533,-2.6533,-2.6533,-2.6533,-2.6533,-2.6533,-2.6533,-2.6533,-2.6402,-2.5824,-2.5272,-2.4693,-2.3813,-2.3145,-2.2629,-2.2309,-2.2197,-2.2197,-2.2197,-2.2197,-2.2197,-2.2197,-2.2197,-2.2197,-2.2197,-2.2197,-2.2197,-2.2197,-2.1788,-2.1325,-2.1123,-2.0677,-2.0161,-1.9441,-1.9243,-1.9044,-1.8327,-1.8269,-1.8202,-1.8008,-1.8008,-1.8008,-1.8008,-1.8008,-1.8008,-1.8008,-1.8008,-1.8008,-1.8008,-1.8008,-1.8008,-1.8008,-1.8008,-1.8076,-1.8202,-1.9441,-2.042,-2.106,-2.1788,-2.1993,-2.1596,-2.1596,-2.1115,-2.0165,-1.9901,-1.9564,-1.9179,-1.9047,-1.8987,-1.8999,-1.8356,-1.7623,-1.68,-1.6151,-1.5664,-1.5325,-1.5597,-1.5945,-1.6367,-1.6762,-1.6908,-1.6908,-2.6452,-2.6164,-2.6094,-2.6465,-2.6533,-2.6533,-2.6533,-2.6533,-2.6533,-2.6533,-2.6533,-2.6533,-2.6533,-2.6533,-2.6533,-2.6533,-2.6533,-2.6533,-2.6533,-2.6533,-2.6533,-2.6533,-2.6533,-2.6533,-2.6533,-2.6533,-2.6533,-2.6533,-2.6533,-2.6533,-2.6533,-2.6533,-2.6533,-2.6533,-2.6533,-2.6533,-2.6533,-2.6533,-2.6533,-2.6533,-2.6533,-2.6533,-2.6445,-2.5548,-2.5071,-2.4655,-2.3529,-2.2936,-2.2629,-2.2309,-2.2197,-2.2197,-2.2197,-2.2197,-2.2197,-2.2197,-2.2197,-2.2197,-2.2197,-2.2197,-2.2123,-2.1788,-2.1026,-2.0266,-1.996,-1.9414,-1.8881,-1.8385,-1.8294,-1.8231,-1.8037,-1.8008,-1.8008,-1.8008,-1.8008,-1.8008,-1.8008,-1.8008,-1.8008,-1.8008,-1.8008,-1.8008,-1.8008,-1.8008,-1.8008,-1.8008,-1.8008,-1.8008,-1.8008,-1.9054,-1.9901,-2.0613,-2.144,-2.1692,-2.1404,-2.0911,-2.037,-1.978,-1.954,-1.9263,-1.8987,-1.8987,-1.8987,-1.8934,-1.8224,-1.7435,-1.6631,-1.5968,-1.5321,-1.4882,-1.546,-1.5826,-1.6101,-1.6688,-1.6908,-1.6908,-2.6176,-2.5886,-2.5664,-2.6383,-2.6533,-2.6533,-2.6533,-2.6533,-2.6533,-2.6533,-2.6533,-2.6533,-2.6533,-2.6533,-2.6533,-2.6533,-2.6533,-2.6533,-2.6533,-2.6533,-2.6533,-2.6533,-2.6533,-2.6533,-2.6533,-2.6533,-2.6533,-2.6533,-2.6533,-2.6533,-2.6533,-2.6533,-2.6533,-2.6533,-2.6533,-2.6533,-2.6533,-2.6533,-2.6533,-2.6533,-2.6533,-2.6483,-2.6214,-2.5209,-2.477,-2.4505,-2.317,-2.269,-2.2629,-2.2309,-2.2197,-2.2197,-2.2197,-2.2197,-2.2197,-2.2197,-2.2123,-2.2061,-2.2061,-2.1937,-2.1737,-2.1135,-2.0172,-1.9147,-1.852,-1.8092,-1.7665,-1.7357,-1.7285,-1.7412,-1.7842,-1.791,-1.7939,-1.7998,-1.8008,-1.8008,-1.8008,-1.8008,-1.8008,-1.8008,-1.8008,-1.8008,-1.8008,-1.8008,-1.8008,-1.8008,-1.8008,-1.7978,-1.792,-1.8562,-1.9238,-1.9888,-2.0769,-2.12,-2.1163,-2.0165,-1.966,-1.9648,-1.9203,-1.8934,-1.8881,-1.8934,-1.8934,-1.8827,-1.805,-1.7313,-1.6687,-1.5806,-1.5079,-1.4579,-1.5376,-1.5634,-1.578,-1.6541,-1.6853,-1.6908,-2.5453,-2.5955,-2.6383,-2.6465,-2.6533,-2.6533,-2.6533,-2.6533,-2.6533,-2.6533,-2.6533,-2.6533,-2.6533,-2.6533,-2.6533,-2.6533,-2.6533,-2.6533,-2.6533,-2.6533,-2.6533,-2.6533,-2.6533,-2.6533,-2.6533,-2.6533,-2.6533,-2.6533,-2.6533,-2.6533,-2.6533,-2.6533,-2.6533,-2.6533,-2.6533,-2.6533,-2.6533,-2.6533,-2.6533,-2.6533,-2.6533,-2.6163,-2.5661,-2.5059,-2.4531,-2.3979,-2.3034,-2.269,-2.2629,-2.2309,-2.2197,-2.2197,-2.2197,-2.2197,-2.2197,-2.2197,-2.1788,-2.1262,-2.1262,-2.088,-2.0431,-2.0291,-1.964,-1.8968,-1.8529,-1.789,-1.7327,-1.6894,-1.6836,-1.6973,-1.7402,-1.748,-1.7598,-1.7949,-1.8008,-1.8008,-1.8008,-1.8008,-1.8008,-1.8008,-1.8008,-1.8008,-1.8008,-1.8008,-1.8008,-1.8008,-1.8008,-1.7852,-1.75,-1.8106,-1.8628,-1.8916,-1.9962,-2.0334,-2.0033,-1.942,-1.9119,-1.9107,-1.9035,-1.8709,-1.8267,-1.8762,-1.8709,-1.8201,-1.7886,-1.7446,-1.6888,-1.5999,-1.5254,-1.4703,-1.5195,-1.5522,-1.5744,-1.623,-1.6624,-1.6908,-2.4707,-2.53,-2.5873,-2.5873,-2.6245,-2.6533,-2.6533,-2.6533,-2.6533,-2.6533,-2.6533,-2.6533,-2.6533,-2.6533,-2.6533,-2.6533,-2.6533,-2.6533,-2.6533,-2.6533,-2.6533,-2.6533,-2.6533,-2.6533,-2.6533,-2.6533,-2.6533,-2.6533,-2.6533,-2.6533,-2.6533,-2.6533,-2.6533,-2.6533,-2.6533,-2.6533,-2.6533,-2.6533,-2.6533,-2.6496,-2.6126,-2.5837,-2.5498,-2.4695,-2.4217,-2.3866,-2.2997,-2.269,-2.2629,-2.2309,-2.2197,-2.2197,-2.2197,-2.1925,-2.16,-2.16,-2.14,-2.0996,-2.0677,-2.0031,-1.9507,-1.9507,-1.8802,-1.8001,-1.756,-1.709,-1.6611,-1.6416,-1.6367,-1.6504,-1.6953,-1.7227,-1.7451,-1.7637,-1.7861,-1.8008,-1.8008,-1.8008,-1.8008,-1.8008,-1.8008,-1.8008,-1.8008,-1.8008,-1.792,-1.7686,-1.7676,-1.749,-1.7061,-1.7342,-1.7438,-1.7286,-1.9084,-1.9847,-1.936,-1.8774,-1.8536,-1.8483,-1.8201,-1.7863,-1.7644,-1.7929,-1.7875,-1.7589,-1.7146,-1.6765,-1.6446,-1.572,-1.5205,-1.489,-1.5191,-1.5529,-1.5873,-1.6166,-1.6569,-1.6908,-2.448,-2.5004,-2.5594,-2.5594,-2.6094,-2.6533,-2.6533,-2.6533,-2.6533,-2.6533,-2.6533,-2.6533,-2.6533,-2.6533,-2.6533,-2.6533,-2.6533,-2.6533,-2.6533,-2.6533,-2.6533,-2.6533,-2.6533,-2.6533,-2.6533,-2.6533,-2.6533,-2.6533,-2.6533,-2.6533,-2.6533,-2.6533,-2.6533,-2.6533,-2.6533,-2.6533,-2.6533,-2.6533,-2.6445,-2.6214,-2.5774,-2.5448,-2.5134,-2.4305,-2.3916,-2.3679,-2.3009,-2.2739,-2.2629,-2.2371,-2.2247,-2.2185,-2.1999,-2.1526,-2.106,-2.0933,-2.0741,-2.0473,-1.9966,-1.9309,-1.8787,-1.8787,-1.8155,-1.7412,-1.6982,-1.6543,-1.6191,-1.6145,-1.6037,-1.6045,-1.6494,-1.6846,-1.7109,-1.7217,-1.7588,-1.7861,-1.7861,-1.7949,-1.8008,-1.8008,-1.8008,-1.7969,-1.7871,-1.7861,-1.7686,-1.7266,-1.7227,-1.7041,-1.6602,-1.6572,-1.6429,-1.6158,-1.7988,-1.8881,-1.8602,-1.8093,-1.7875,-1.7875,-1.7534,-1.7257,-1.6978,-1.7257,-1.7257,-1.6978,-1.6472,-1.6255,-1.6104,-1.5488,-1.5147,-1.5067,-1.5209,-1.5508,-1.5919,-1.6121,-1.6545,-1.6968,-2.5087,-2.5886,-2.6383,-2.6383,-2.6452,-2.6533,-2.6533,-2.6533,-2.6533,-2.6533,-2.6533,-2.6533,-2.6533,-2.6533,-2.6533,-2.6533,-2.6533,-2.6533,-2.6533,-2.6533,-2.6533,-2.6533,-2.6533,-2.6533,-2.6533,-2.6533,-2.6533,-2.6533,-2.6533,-2.6533,-2.6533,-2.6533,-2.6533,-2.6533,-2.6533,-2.6533,-2.6533,-2.6533,-2.6151,-2.5649,-2.5611,-2.4996,-2.4104,-2.4029,-2.3665,-2.314,-2.2921,-2.28,-2.2678,-2.2494,-2.2309,-2.2061,-2.14,-2.1123,-2.1008,-2.0355,-1.9704,-1.9166,-1.911,-1.8596,-1.8076,-1.8076,-1.7978,-1.7852,-1.7432,-1.6992,-1.6562,-1.6213,-1.5742,-1.5596,-1.6035,-1.6194,-1.6299,-1.6709,-1.7148,-1.7432,-1.7432,-1.7764,-1.8008,-1.8008,-1.8008,-1.7852,-1.7471,-1.7432,-1.7246,-1.6816,-1.6777,-1.6582,-1.6194,-1.6113,-1.6208,-1.6259,-1.6467,-1.6786,-1.7313,-1.7313,-1.7257,-1.7257,-1.782,-1.7479,-1.6415,-1.7534,-1.7424,-1.6358,-1.6312,-1.6312,-1.6255,-1.5633,-1.5313,-1.5215,-1.5195,-1.551,-1.5891,-1.5919,-1.6495,-1.7166,-2.3936,-2.4874,-2.5746,-2.5746,-2.6176,-2.6533,-2.6533,-2.6533,-2.6533,-2.6533,-2.6533,-2.6533,-2.6533,-2.6533,-2.6533,-2.6533,-2.6533,-2.6533,-2.6533,-2.6533,-2.6533,-2.6533,-2.6533,-2.6533,-2.6533,-2.6533,-2.6533,-2.6533,-2.6533,-2.6533,-2.6533,-2.6533,-2.6533,-2.6533,-2.6533,-2.6533,-2.6508,-2.6076,-2.5799,-2.5536,-2.487,-2.4356,-2.3954,-2.3602,-2.3326,-2.3078,-2.2969,-2.28,-2.2678,-2.2482,-2.2037,-2.1463,-2.1198,-2.0805,-2.0355,-1.9639,-1.8921,-1.8395,-1.8395,-1.8202,-1.8008,-1.8008,-1.8008,-1.79,-1.748,-1.7051,-1.6602,-1.6152,-1.5713,-1.5459,-1.5625,-1.5879,-1.6184,-1.6289,-1.6689,-1.6982,-1.6982,-1.7119,-1.7217,-1.7217,-1.7217,-1.7158,-1.7002,-1.6982,-1.6797,-1.6348,-1.6318,-1.6123,-1.5684,-1.5664,-1.5694,-1.5758,-1.5748,-1.6197,-1.7202,-1.681,-1.6641,-1.6641,-1.6472,-1.6197,-1.5748,-1.6197,-1.6197,-1.5748,-1.5748,-1.5748,-1.5748,-1.5468,-1.5362,-1.5313,-1.5205,-1.5441,-1.5851,-1.6034,-1.644,-1.6975,-2.3423,-2.4215,-2.5004,-2.5241,-2.5746,-2.6245,-2.6452,-2.6533,-2.6533,-2.6533,-2.6533,-2.6533,-2.6533,-2.6533,-2.6533,-2.6533,-2.6533,-2.6533,-2.6533,-2.6533,-2.6533,-2.6533,-2.6533,-2.6533,-2.6533,-2.6533,-2.6533,-2.6533,-2.6533,-2.6533,-2.6533,-2.6533,-2.6533,-2.6533,-2.6533,-2.642,-2.6163,-2.5774,-2.5398,-2.5034,-2.4293,-2.3891,-2.369,-2.3288,-2.3078,-2.3078,-2.2969,-2.28,-2.2678,-2.2482,-2.1963,-2.14,-2.1187,-2.0484,-1.9639,-1.8921,-1.8327,-1.8008,-1.8008,-1.8008,-1.8008,-1.8008,-1.8008,-1.7939,-1.7646,-1.7139,-1.6641,-1.6338,-1.5811,-1.541,-1.541,-1.5654,-1.5859,-1.5859,-1.623,-1.6523,-1.6523,-1.6641,-1.6665,-1.6665,-1.6665,-1.668,-1.6533,-1.6523,-1.6338,-1.5889,-1.5859,-1.5723,-1.543,-1.541,-1.541,-1.541,-1.541,-1.5806,-1.6641,-1.6197,-1.6026,-1.6026,-1.5806,-1.5575,-1.541,-1.5584,-1.5575,-1.541,-1.541,-1.541,-1.541,-1.541,-1.541,-1.541,-1.5313,-1.5456,-1.5817,-1.6166,-1.6531,-1.6959,-2.3975,-2.412,-2.4337,-2.5158,-2.5312,-2.5594,-2.6383,-2.6465,-2.6465,-2.6533,-2.6533,-2.6533,-2.6533,-2.6533,-2.6533,-2.6533,-2.6533,-2.6533,-2.6533,-2.6533,-2.6533,-2.6533,-2.6533,-2.6533,-2.6533,-2.6533,-2.6533,-2.6533,-2.6533,-2.6533,-2.6533,-2.6533,-2.6533,-2.6533,-2.6521,-2.6138,-2.5598,-2.5586,-2.4971,-2.4004,-2.3991,-2.364,-2.3078,-2.3078,-2.3078,-2.3078,-2.2969,-2.28,-2.2678,-2.2482,-2.2309,-2.2061,-2.1325,-2.015,-1.8844,-1.8202,-1.8008,-1.8008,-1.8008,-1.8008,-1.8008,-1.8008,-1.8008,-1.8008,-1.8008,-1.7353,-1.6675,-1.6665,-1.6035,-1.542,-1.541,-1.541,-1.541,-1.541,-1.5771,-1.6115,-1.6115,-1.6445,-1.6719,-1.6719,-1.6719,-1.6543,-1.6103,-1.6115,-1.5879,-1.5449,-1.541,-1.541,-1.541,-1.541,-1.541,-1.541,-1.541,-1.541,-1.541,-1.541,-1.541,-1.541,-1.6026,-1.5968,-1.541,-1.6026,-1.5968,-1.541,-1.541,-1.541,-1.541,-1.541,-1.541,-1.541,-1.541,-1.5565,-1.5879,-1.6229,-1.6715,-1.7148,-2.3202,-2.335,-2.3559,-2.4348,-2.448,-2.4707,-2.5523,-2.5664,-2.5886,-2.6465,-2.6533,-2.6533,-2.6533,-2.6533,-2.6533,-2.6533,-2.6533,-2.6533,-2.6533,-2.6533,-2.6533,-2.6533,-2.6533,-2.6533,-2.6533,-2.6533,-2.6533,-2.6533,-2.6533,-2.6533,-2.6533,-2.6533,-2.6533,-2.6508,-2.6038,-2.5762,-2.5548,-2.4795,-2.4293,-2.3966,-2.3552,-2.3288,-2.3078,-2.3078,-2.3078,-2.3078,-2.3078,-2.2969,-2.286,-2.2787,-2.2025,-2.0933,-2.0237,-1.9396,-1.8731,-1.9008,-1.8741,-1.8347,-1.8212,-1.8202,-1.8212,-1.8008,-1.8008,-1.8008,-1.8008,-1.7588,-1.7109,-1.6797,-1.6269,-1.5771,-1.5469,-1.541,-1.541,-1.541,-1.5518,-1.5605,-1.5605,-1.5723,-1.5811,-1.5811,-1.5811,-1.5752,-1.5615,-1.5605,-1.5557,-1.542,-1.541,-1.541,-1.541,-1.541,-1.541,-1.541,-1.541,-1.541,-1.541,-1.541,-1.541,-1.541,-1.5575,-1.5575,-1.541,-1.5584,-1.5584,-1.541,-1.541,-1.541,-1.541,-1.541,-1.541,-1.541,-1.541,-1.5439,-1.5584,-1.6321,-1.6679,-1.6893,-2.236,-2.2777,-2.3213,-2.3975,-2.4337,-2.485,-2.5664,-2.5734,-2.5955,-2.6465,-2.6533,-2.6533,-2.6533,-2.6533,-2.6533,-2.6533,-2.6533,-2.6533,-2.6533,-2.6533,-2.6533,-2.6533,-2.6533,-2.6533,-2.6533,-2.6533,-2.6533,-2.6533,-2.6533,-2.6533,-2.6521,-2.6226,-2.6113,-2.6101,-2.5536,-2.5172,-2.4921,-2.428,-2.3866,-2.3627,-2.3276,-2.3078,-2.3078,-2.3078,-2.3078,-2.3078,-2.3017,-2.2969,-2.2848,-2.2519,-2.1565,-2.0484,-1.9791,-1.9274,-1.8942,-1.9152,-1.8885,-1.8482,-1.8414,-1.8337,-1.8269,-1.8144,-1.8076,-1.7969,-1.7803,-1.7432,-1.7002,-1.6553,-1.6113,-1.5723,-1.5459,-1.541,-1.541,-1.541,-1.541,-1.541,-1.541,-1.541,-1.541,-1.541,-1.541,-1.541,-1.541,-1.541,-1.541,-1.541,-1.541,-1.541,-1.541,-1.541,-1.541,-1.541,-1.541,-1.541,-1.541,-1.541,-1.541,-1.541,-1.541,-1.541,-1.541,-1.541,-1.541,-1.541,-1.541,-1.541,-1.541,-1.541,-1.541,-1.541,-1.541,-1.541,-1.5518,-1.6406,-1.6665,-1.6792,-2.16,-2.235,-2.308,-2.3777,-2.4507,-2.5308,-2.6096,-2.6233,-2.6233,-2.6314,-2.6382,-2.6382,-2.6382,-2.642,-2.6445,-2.6445,-2.6496,-2.6533,-2.6533,-2.6533,-2.6533,-2.6533,-2.6533,-2.6533,-2.6533,-2.6533,-2.6533,-2.6533,-2.6483,-2.6445,-2.6445,-2.5799,-2.5523,-2.5498,-2.4983,-2.4469,-2.4004,-2.3941,-2.3615,-2.3078,-2.3078,-2.3078,-2.3078,-2.3078,-2.3078,-2.3078,-2.2896,-2.2836,-2.2714,-2.1741,-2.106,-2.0442,-1.9802,-1.955,-1.9407,-1.8751,-1.8549,-1.8549,-1.8549,-1.8414,-1.8337,-1.8269,-1.8144,-1.79,-1.748,-1.708,-1.665,-1.6162,-1.5752,-1.5459,-1.542,-1.541,-1.541,-1.541,-1.541,-1.541,-1.541,-1.541,-1.541,-1.541,-1.541,-1.541,-1.541,-1.541,-1.541,-1.541,-1.541,-1.541,-1.541,-1.541,-1.541,-1.541,-1.541,-1.541,-1.541,-1.541,-1.541,-1.541,-1.541,-1.541,-1.541,-1.541,-1.541,-1.541,-1.541,-1.541,-1.541,-1.541,-1.541,-1.541,-1.541,-1.541,-1.5518,-1.6406,-1.6665,-1.6792,-2.07,-2.1296,-2.1865,-2.2066,-2.2603,-2.3349,-2.4104,-2.425,-2.4462,-2.5106,-2.5172,-2.5172,-2.5172,-2.5536,-2.5787,-2.5787,-2.6201,-2.6533,-2.6533,-2.6533,-2.6533,-2.6533,-2.6533,-2.6533,-2.6533,-2.6533,-2.6533,-2.6533,-2.6,-2.5787,-2.5774,-2.5234,-2.4996,-2.4971,-2.4418,-2.4117,-2.3966,-2.3514,-2.3251,-2.3078,-2.3078,-2.3078,-2.3078,-2.3078,-2.3078,-2.3005,-2.2494,-2.2237,-2.2051,-2.0858,-2.0355,-2.0107,-1.9396,-1.9198,-1.9208,-1.9008,-1.8942,-1.8942,-1.8808,-1.8617,-1.8405,-1.8337,-1.8144,-1.79,-1.748,-1.7314,-1.7021,-1.6282,-1.6047,-1.582,-1.5478,-1.541,-1.541,-1.541,-1.541,-1.541,-1.541,-1.541,-1.541,-1.541,-1.541,-1.541,-1.541,-1.541,-1.541,-1.541,-1.541,-1.541,-1.541,-1.541,-1.541,-1.541,-1.541,-1.541,-1.541,-1.541,-1.541,-1.541,-1.541,-1.541,-1.541,-1.541,-1.541,-1.541,-1.541,-1.541,-1.541,-1.541,-1.541,-1.541,-1.541,-1.541,-1.5518,-1.6406,-1.6665,-1.6792,-2.1274,-2.2012,-2.2491,-2.2491,-2.31,-2.3713,-2.412,-2.4186,-2.4329,-2.4755,-2.482,-2.482,-2.482,-2.5059,-2.5222,-2.5222,-2.5498,-2.5674,-2.5674,-2.5674,-2.5674,-2.5674,-2.5674,-2.5674,-2.5674,-2.5674,-2.5799,-2.605,-2.5498,-2.5222,-2.5222,-2.4682,-2.4431,-2.4406,-2.3841,-2.359,-2.3565,-2.3203,-2.3078,-2.3078,-2.3078,-2.3078,-2.3078,-2.3078,-2.3078,-2.3005,-2.2359,-2.1916,-2.1491,-2.0805,-2.0355,-1.9966,-1.933,-1.9075,-1.9075,-1.9075,-1.9075,-1.9075,-1.8875,-1.8684,-1.8482,-1.8337,-1.8144,-1.7842,-1.7217,-1.708,-1.6826,-1.5937,-1.5752,-1.5684,-1.5459,-1.541,-1.541,-1.541,-1.541,-1.541,-1.541,-1.541,-1.541,-1.541,-1.541,-1.541,-1.541,-1.541,-1.541,-1.541,-1.541,-1.541,-1.541,-1.541,-1.541,-1.541,-1.541,-1.541,-1.541,-1.541,-1.541,-1.541,-1.541,-1.541,-1.541,-1.541,-1.541,-1.541,-1.541,-1.541,-1.541,-1.541,-1.541,-1.541,-1.541,-1.541,-1.5518,-1.6406,-1.6928,-1.7402,-2.2003,-2.2819,-2.3424,-2.3424,-2.4045,-2.4531,-2.4531,-2.4531,-2.4531,-2.4531,-2.4531,-2.4531,-2.4531,-2.4619,-2.472,-2.4808,-2.482,-2.482,-2.482,-2.482,-2.482,-2.482,-2.482,-2.482,-2.482,-2.4732,-2.4946,-2.546,-2.4946,-2.4682,-2.4669,-2.4104,-2.3853,-2.3828,-2.3351,-2.3078,-2.3078,-2.3078,-2.3078,-2.3078,-2.3078,-2.3078,-2.3078,-2.3078,-2.3078,-2.3005,-2.2175,-2.1428,-2.0741,-2.0741,-2.0355,-1.9846,-1.9264,-1.9075,-1.9075,-1.9075,-1.9075,-1.9065,-1.8875,-1.8674,-1.8549,-1.8405,-1.8212,-1.787,-1.7076,-1.6841,-1.6475,-1.5596,-1.541,-1.542,-1.541,-1.541,-1.541,-1.541,-1.541,-1.541,-1.541,-1.541,-1.541,-1.541,-1.541,-1.541,-1.541,-1.541,-1.541,-1.541,-1.541,-1.541,-1.541,-1.541,-1.541,-1.541,-1.541,-1.541,-1.541,-1.541,-1.541,-1.541,-1.541,-1.541,-1.541,-1.541,-1.541,-1.541,-1.541,-1.541,-1.541,-1.541,-1.541,-1.541,-1.541,-1.541,-1.5518,-1.6406,-1.7275,-1.8008,-2.0846,-2.1753,-2.2578,-2.2702,-2.323,-2.3571,-2.3571,-2.3571,-2.3498,-2.3364,-2.3303,-2.3303,-2.3303,-2.3816,-2.4305,-2.4782,-2.482,-2.482,-2.482,-2.482,-2.482,-2.482,-2.482,-2.482,-2.482,-2.4356,-2.4381,-2.4921,-2.4381,-2.4117,-2.4104,-2.3527,-2.319,-2.3251,-2.3115,-2.3078,-2.3078,-2.3078,-2.3078,-2.3078,-2.3078,-2.3078,-2.3078,-2.3078,-2.3078,-2.2944,-2.169,-2.042,-1.9396,-1.9396,-1.933,-1.9198,-1.9131,-1.9075,-1.9075,-1.9075,-1.9075,-1.9065,-1.9075,-1.8942,-1.8741,-1.8741,-1.8607,-1.8285,-1.783,-1.7366,-1.6661,-1.5596,-1.5546,-1.5604,-1.541,-1.541,-1.541,-1.541,-1.541,-1.541,-1.541,-1.541,-1.541,-1.541,-1.541,-1.541,-1.541,-1.541,-1.541,-1.541,-1.541,-1.541,-1.541,-1.541,-1.541,-1.541,-1.541,-1.541,-1.541,-1.541,-1.541,-1.541,-1.541,-1.541,-1.541,-1.541,-1.541,-1.541,-1.541,-1.541,-1.541,-1.541,-1.541,-1.541,-1.541,-1.541,-1.5518,-1.6406,-1.7275,-1.8008,-2.1592,-2.2163,-2.2677,-2.3053,-2.3378,-2.3509,-2.3403,-2.3669,-2.3685,-2.3175,-2.3414,-2.3489,-2.3115,-2.3364,-2.3615,-2.3866,-2.3879,-2.3879,-2.3879,-2.3879,-2.3879,-2.3879,-2.3879,-2.3879,-2.3879,-2.364,-2.364,-2.3879,-2.364,-2.3514,-2.3502,-2.319,-2.3078,-2.3078,-2.3078,-2.3078,-2.3078,-2.3078,-2.3078,-2.3078,-2.3078,-2.3078,-2.3078,-2.3078,-2.2884,-2.2433,-2.1439,-2.0484,-1.9649,-1.9649,-1.9649,-1.9584,-1.9198,-1.9075,-1.9075,-1.9075,-1.9075,-1.9075,-1.8942,-1.8875,-1.8741,-1.8674,-1.8549,-1.8362,-1.7966,-1.7597,-1.704,-1.6267,-1.5889,-1.5672,-1.5604,-1.5478,-1.541,-1.541,-1.541,-1.541,-1.541,-1.541,-1.541,-1.541,-1.541,-1.541,-1.541,-1.541,-1.541,-1.541,-1.541,-1.541,-1.541,-1.541,-1.541,-1.541,-1.541,-1.541,-1.541,-1.541,-1.541,-1.541,-1.541,-1.541,-1.541,-1.541,-1.541,-1.541,-1.541,-1.541,-1.541,-1.541,-1.541,-1.541,-1.541,-1.5713,-1.623,-1.6865,-1.749,-1.8008]},{"header":{"parameterUnit":"m.s-1","parameterCategory":1,"la1":30.6,"la2":28.766,"lo1":-90.7593,"lo2":-88.6598,"dy":0.0162,"dx":0.0183,"nx":116,"ny":114,"refTime":"2023-07-11T06:00:00:Z","depth":0,"parameterNumber":3,"parameterNumberName":"V-component_of_WINDS"},"data":[0.0,0.0,0.0,0.0,0.0,0.0,0.0,0.0,0.0,0.0,0.0,0.0,0.0,0.0,0.0,0.0,0.0,0.0,0.0,0.0,0.0,0.0,0.0,0.0,0.0,0.0,0.0,0.0,0.0,0.0,0.0,0.0,0.0,0.0,0.0,0.0,0.0,0.0,0.0,0.0,0.0,0.0,0.0,0.0,0.0,0.0,0.0,0.0,0.0,0.0,0.0,0.0,0.0,0.0,0.0,0.0,0.0,0.0,0.0,0.0,0.0,0.0,0.0,0.0,0.0,0.0,0.0,0.0,0.0,0.0,0.0,0.0,0.0,0.0,0.0,0.0,0.0,0.0,0.0,0.0,0.0,0.0,0.0,0.0,0.0,0.0,0.0,0.0,0.0,0.0,0.0,0.0,0.0,0.0,0.0,0.0,0.0,0.0,0.0,0.0,0.0,0.0,0.0,0.0,0.0,0.0,0.0,0.0,0.0,0.0,0.0,0.0,0.0,0.0,0.0,0.0,0.0,0.0,0.0,0.0,0.0,0.0,0.0,0.0,0.0,0.0,0.0,0.0,0.0,0.0,0.0,0.0,0.0,0.0,0.0,0.0,0.0,0.0,0.0,0.0,0.0,0.0,0.0,0.0,0.0,0.0,0.0,0.0,0.0,0.0,0.0,0.0,0.0,0.0,0.0,0.0,0.0,0.0,0.0,0.0,0.0,0.0,0.0,0.0,0.0,0.0,0.0,0.0,0.0,0.0,0.0,0.0,0.0,0.0,0.0,0.0,0.0,0.0,0.0,0.0,0.0,0.0,0.0,0.0,0.0,0.0,0.0,0.0,0.0,0.0,0.0,0.0,0.0,0.0,0.0,0.0,0.0,0.0,0.0,0.0,0.0,0.0,0.0,0.0,0.0,0.0,0.0,0.0,0.0,0.0,0.0,0.0,0.0,0.0,0.0,0.0,0.0,0.0,0.0,0.0,0.0,0.0,0.0,0.0,0.0,0.0,0.0,0.0,0.0,0.0,0.0,0.0,0.0,0.0,0.0,0.0,0.0,0.0,0.0,0.0,0.0,0.0,0.0,0.0,0.0,0.0,0.0,0.0,0.0,0.0,0.0,0.0,0.0,0.0,0.0,0.0,0.0,0.0,0.0,0.0,0.0,0.0,0.0,0.0,0.0,0.0,0.0,0.0,0.0,0.0,0.0,0.0,0.0,0.0,0.0,0.0,0.0,0.0,0.0,0.0,0.0,0.0,0.0,0.0,0.0,0.0,0.0,0.0,0.0,0.0,0.0,0.0,0.0,0.0,0.0,0.0,0.0,0.0,0.0,0.0,0.0,0.0,0.0,0.0,0.0,0.0,0.0,0.0,0.0,0.0,0.0,0.0,0.0,0.0,0.0,0.0,0.0,0.0,0.0,0.0,0.0,0.0,0.0,0.0,0.0,0.0,0.0,0.0,0.0,0.0,0.0,0.0,0.0,0.0,0.0,0.0,0.0,0.0,0.0,0.0,0.0,0.0,0.0,0.0,0.0,0.0,0.0,0.0,0.0,0.0,0.0,0.0,0.0,0.0,0.0,0.0,0.0,0.0,0.0,0.0,0.0,0.0,0.0,0.0,0.0,0.0,0.0,0.0,0.0,0.0,0.0,0.0,0.0,0.0,0.0,0.0,0.0,0.0,0.0,0.0,0.0,0.0,0.0,0.0,0.0,0.0,0.0,0.0,0.0,0.0,0.0,0.0,0.0,0.0,0.0,0.0,0.0,0.0,0.0,0.0,0.0,0.0,0.0,0.0,0.0,0.0,0.0,0.0,0.0,0.0,0.0,0.0,0.0,0.0,0.0,0.0,0.0,0.0,0.0,0.0,0.0,0.0,0.0,0.0,0.0,0.0,0.0,0.0,0.0,0.0,0.0,0.0,0.0,0.0,0.0,0.0,0.0,0.0,0.0,0.0,0.0,0.0,0.0,0.0,0.0,0.0,0.0,0.0,0.0,0.0,0.0,0.0,0.0,0.0,0.0,0.0,0.0,0.0,0.0,0.0,0.0,0.0,0.0,0.0,0.0,0.0,0.0,0.0,0.0,0.0,0.0,0.0,0.0,0.0,0.0,0.0,0.0,0.0,0.0,0.0,0.0,0.0,0.0,0.0,0.0,0.0,0.0,0.0,0.0,0.0,0.0,0.0,0.0,0.0,0.0,0.0,0.0,0.0,0.0,0.0,0.0,0.0,0.0,0.0,0.0,0.0,0.0,0.0,0.0,0.0,0.0,0.0,0.0,0.0,0.0,0.0,0.0,0.0,0.0,0.0,0.0,0.0,0.0,0.0,0.0,0.0,0.0,0.0,0.0,0.0,0.0,0.0,0.0,0.0,0.0,0.0,0.0,0.0,0.0,0.0,0.0,0.0,0.0,0.0,0.0,0.0,0.0,0.0,0.0,0.0,0.0,0.0,0.0,0.0,0.0,0.0,0.0,0.0,0.0,0.0,0.0,0.0,0.0,0.0,0.0,0.0,0.0,0.0,0.0,0.0,0.0,0.0,0.0,0.0,0.0,0.0,0.0,0.0,0.0,0.0,0.0,0.0,0.0,0.0,0.0,0.0,0.0,0.0,0.0,0.0,0.0,0.0,0.0,0.0,0.0,0.0,0.0,0.0,0.0,0.0,0.0,0.0,0.0,0.0,0.0,0.0,0.0,0.0,0.0,0.0,0.0,0.0,0.0,0.0,0.0,0.0,0.0,0.0,0.0,0.0,0.0,0.0,0.0,0.0,0.0,0.0,0.0,0.0,0.0,0.0,0.0,0.0,0.0,0.0,0.0,0.0,0.0,0.0,0.0,0.0,0.0,0.0,0.0,0.0,0.0,0.0,0.0,0.0,0.0,0.0,0.0,0.0,0.0,0.0,0.0,0.0,0.0,0.0,0.0,0.0,0.0,0.0,0.0,0.0,0.0,0.0,0.0,0.0,0.0,0.0,0.0,0.0,0.0,0.0,0.0,0.0,0.0,0.0,0.0,0.0,0.0,0.0,0.0,0.0,0.0,0.0,0.0,0.0,0.0,0.0,0.0,0.0,0.0,0.0,0.0,0.0,0.0,0.0,0.0,0.0,0.0,0.0,0.0,0.0,0.0,0.0,0.0,0.0,0.0,0.0,0.0,0.0,0.0,0.0,0.0,0.0,0.0,0.0,0.0,0.0,0.0,0.0,0.0,0.0,0.0,0.0,0.0,0.0,0.0,0.0,0.0,0.0,0.0,0.0,0.0,0.0,0.0,0.0,0.0,0.0,0.0,0.0,0.0,0.0,0.0,0.0,0.0,0.0,0.0,0.0,0.0,0.0,0.0,0.0,0.0,0.0,0.0,0.0,0.0,0.0,0.0,0.0,0.0,0.0,0.0,0.0,0.0,0.0,0.0,0.0,0.0,0.0,0.0,0.0,0.0,0.0,0.0,0.0,0.0,0.0,0.0,0.0,0.0,0.0,0.0,0.0,0.0,0.0,0.0,0.0,0.0,0.0,0.0,0.0,0.0,0.0,0.0,0.0,0.0,0.0,0.0,0.0,0.0,0.0,0.0,0.0,0.0,0.0,0.0,0.0,0.0,0.0,0.0,0.0,0.0,0.0,0.0,0.0,0.0,0.0,0.0,0.0,0.0,0.0,0.0,0.0,0.0,0.0,0.0,0.0,0.0,0.0,0.0,0.0,0.0,0.0,0.0,0.0,0.0,0.0,0.0,0.0,0.0,0.0,0.0,0.0,0.0,0.0,0.0,0.0,0.0,0.0,0.0,0.0,0.0,0.0,0.0,0.0,0.0,0.0,0.0,0.0,0.0,0.0,0.0,0.0,0.0,0.0,0.0,0.0,0.0,0.0,0.0,0.0,0.0,0.0,0.0,0.0,0.0,0.0,0.0,0.0,0.0,0.0,0.0,0.0,0.0,0.0,0.0,0.0,0.0,0.0,0.0,0.0,0.0,0.0,0.0,0.0,0.0,0.0,0.0,0.0,0.0,0.0,0.0,0.0,0.0,0.0,0.0,0.0,0.0,0.0,0.0,0.0,0.0,0.0,0.0,0.0,0.0,0.0,0.0,0.0,0.0,0.0,0.0,0.0,0.0,0.0,0.0,0.0,0.0,0.0,0.0,0.0,0.0,0.0,0.0,0.0,0.0,0.0,0.0,0.0,0.0,0.0,0.0,0.0,0.0,0.0,0.0,0.0,0.0,0.0,0.0,0.0,0.0,0.0,0.0,0.0,0.0,0.0,0.0,0.0,0.0,0.0,0.0,0.0,0.0,0.0,0.0,0.0,0.0,0.0,0.0,0.0,0.0,0.0,0.0,0.0,0.0,0.0,0.0,0.0,0.0,0.0,0.0,0.0,0.0,0.0,0.0,0.0,0.0,0.0,0.0,0.0,0.0,0.0,0.0,0.0,0.0,0.0,0.0,0.0,0.0,0.0,0.0,0.0,0.0,0.0,0.0,0.0,0.0,0.0,0.0,0.0,0.0,0.0,0.0,0.0,0.0,0.0,0.0,0.0,0.0,0.0,0.0,0.0,0.0,0.0,0.0,0.0,0.0,0.0,0.0,0.0,0.0,0.0,0.0,0.0,0.0,0.0,0.0,0.0,0.0,0.0,0.0,0.0,0.0,0.0,0.0,0.0,0.0,0.0,0.0,0.0,0.0,0.0,0.0,0.0,0.0,0.0,0.0,0.0,0.0,0.0,0.0,0.0,0.0,0.0,0.0,0.0,0.0,0.0,0.0,0.0,0.0,0.0,0.0,0.0,0.0,0.0,0.0,0.0,0.0,0.0,0.0,0.0,0.0,0.0,0.0,0.0,0.0,0.0,0.0,0.0,0.0,0.0,0.0,0.0,0.0,0.0,0.0,0.0,0.0,0.0,0.0,0.0,0.0,0.0,0.0,0.0,0.0,0.0,0.0,0.0,0.0,0.0,0.0,0.0,0.0,0.0,0.0,0.0,0.0,0.0,0.0,0.0,0.0,0.0,0.0,0.0,0.0,0.0,0.0,0.0,0.0,0.0,0.0,0.0,0.0,0.0,0.0,0.0,0.0,0.0,0.0,0.0,0.0,0.0,0.0,0.0,0.0,0.0,0.0,0.0,0.0,0.0,0.0,0.0,0.0,0.0,0.0,0.0,0.0,0.0,0.0,0.0,0.0,0.0,0.0,0.0,0.0,0.0,0.0,0.0,0.0,0.0,0.0,0.0,0.0,0.0,0.0,0.0,0.0,0.0,0.0,0.0,0.0,0.0,0.0,0.0,0.0,0.0,0.0,0.0,0.0,0.0,0.0,0.0,0.0,0.0,0.0,0.0,0.0,0.0,0.0,0.0,0.0,0.0,0.0,0.0,0.0,0.0,0.0,0.0,0.0,0.0,0.0,0.0,0.0,0.0,0.0,0.0,0.0,0.0,0.0,0.0,0.0,0.0,0.0,0.0,0.0,0.0,0.0,0.0,0.0,0.0,0.0,0.0,0.0,0.0,0.0,0.0,0.0,0.0,0.0,0.0,0.0,0.0,0.0,0.0,0.0,0.0,0.0,0.0,0.0,0.0,0.0,0.0,0.0,0.0,0.0,0.0,0.0,0.0,0.0,0.0,0.0,0.0,0.0,0.0,0.0,0.0,0.0,0.0,0.0,0.0,0.0,0.0,0.0,0.0,0.0,0.0,0.0,0.0,0.0,0.0,0.0,0.0,0.0,0.0,0.0,0.0,0.0,0.0,0.0,0.0,0.0,0.0,0.0,0.0,0.0,0.0,0.0,0.0,0.0,0.0,0.0,0.0,0.0,0.0,0.0,0.0,0.0,0.0,0.0,0.0,0.0,0.0,0.0,0.0,0.0,0.0,0.0,0.0,0.0,0.0,0.0,0.0,0.0,0.0,0.0,0.0,0.0,0.0,0.0,0.0,0.0,0.0,0.0,0.0,0.0,0.0,0.0,0.0,0.0,0.0,0.0,0.0,0.0,0.0,0.0,0.0,0.0,0.0,0.0,0.0,0.0,0.0,0.0,0.0,0.0,0.0,0.0,0.0,0.0,0.0,0.0,0.0,0.0,0.0,0.0,0.0,0.0,0.0,0.0,0.0,0.0,0.0,0.0,0.0,-3.1482,-3.1482,0.0,0.0,0.0,0.0,0.0,0.0,0.0,0.0,0.0,0.0,0.0,0.0,0.0,0.0,0.0,0.0,0.0,0.0,0.0,0.0,0.0,0.0,0.0,0.0,0.0,0.0,0.0,0.0,0.0,0.0,0.0,0.0,0.0,0.0,0.0,0.0,0.0,0.0,0.0,0.0,0.0,0.0,0.0,0.0,0.0,0.0,0.0,0.0,0.0,0.0,0.0,0.0,0.0,0.0,0.0,0.0,0.0,0.0,0.0,0.0,0.0,0.0,0.0,0.0,0.0,0.0,0.0,0.0,0.0,0.0,0.0,0.0,0.0,0.0,0.0,0.0,0.0,0.0,0.0,0.0,0.0,0.0,0.0,0.0,0.0,0.0,0.0,0.0,0.0,0.0,0.0,0.0,0.0,0.0,0.0,0.0,0.0,0.0,0.0,0.0,0.0,0.0,0.0,0.0,0.0,0.0,0.0,0.0,0.0,0.0,0.0,0.0,0.0,0.0,-3.1482,-3.1482,0.0,0.0,0.0,0.0,0.0,0.0,0.0,0.0,0.0,0.0,0.0,0.0,0.0,0.0,0.0,0.0,0.0,0.0,0.0,0.0,0.0,0.0,0.0,0.0,0.0,0.0,0.0,0.0,0.0,0.0,0.0,0.0,0.0,0.0,0.0,0.0,0.0,0.0,0.0,0.0,0.0,0.0,0.0,0.0,0.0,0.0,0.0,0.0,0.0,0.0,0.0,0.0,0.0,0.0,0.0,0.0,0.0,0.0,0.0,0.0,0.0,0.0,0.0,0.0,0.0,0.0,0.0,0.0,0.0,0.0,0.0,0.0,0.0,0.0,0.0,0.0,0.0,0.0,0.0,0.0,0.0,0.0,0.0,0.0,0.0,0.0,0.0,0.0,0.0,0.0,0.0,0.0,0.0,0.0,0.0,0.0,0.0,0.0,0.0,0.0,0.0,0.0,0.0,0.0,0.0,0.0,0.0,0.0,-3.1482,-3.1482,-3.1482,-3.1482,-3.1482,-3.1482,-3.1482,-3.1482,-3.1482,-3.1482,0.0,0.0,0.0,0.0,0.0,0.0,0.0,0.0,0.0,0.0,0.0,0.0,0.0,0.0,0.0,0.0,0.0,0.0,0.0,0.0,0.0,0.0,0.0,0.0,0.0,0.0,0.0,0.0,0.0,0.0,0.0,0.0,0.0,0.0,0.0,0.0,0.0,0.0,-3.0228,-3.0905,-3.1931,-3.3242,-3.3941,0.0,0.0,0.0,0.0,0.0,0.0,0.0,0.0,0.0,0.0,0.0,0.0,0.0,0.0,0.0,0.0,0.0,0.0,0.0,0.0,0.0,0.0,0.0,0.0,0.0,0.0,0.0,0.0,0.0,0.0,0.0,0.0,0.0,0.0,0.0,0.0,0.0,0.0,0.0,0.0,0.0,0.0,0.0,-3.1336,-3.0584,0.0,0.0,0.0,0.0,0.0,0.0,0.0,0.0,0.0,0.0,0.0,0.0,0.0,-3.0926,-3.1467,-3.1482,-3.1482,-3.1482,-3.1482,-3.1482,-3.1482,-3.1482,-3.1482,-3.1482,-3.1482,0.0,-3.1482,-3.1482,0.0,0.0,0.0,0.0,0.0,0.0,0.0,0.0,0.0,0.0,0.0,0.0,0.0,0.0,0.0,0.0,0.0,0.0,0.0,0.0,0.0,0.0,0.0,0.0,0.0,0.0,0.0,0.0,0.0,0.0,0.0,0.0,0.0,0.0,0.0,0.0,-2.9665,-2.9915,-3.0025,-3.0626,-3.1267,-3.2055,-3.3538,-3.4388,-3.4738,-3.5052,0.0,0.0,0.0,0.0,0.0,0.0,0.0,0.0,0.0,0.0,0.0,0.0,0.0,0.0,0.0,0.0,0.0,0.0,0.0,0.0,0.0,0.0,0.0,0.0,0.0,0.0,0.0,0.0,0.0,0.0,0.0,0.0,0.0,0.0,0.0,0.0,0.0,0.0,0.0,-3.1697,-3.1087,-3.0072,-2.995,-2.9704,0.0,0.0,0.0,0.0,0.0,0.0,0.0,0.0,0.0,-3.0514,-3.0889,-3.1225,-3.1482,-3.1482,-3.1482,-3.1482,-3.1482,-3.1482,-3.1482,-3.1482,-3.1482,-3.1524,-3.1853,-3.2023,-3.2023,-3.2023,-3.2382,-3.3033,0.0,0.0,0.0,0.0,-3.4899,-3.4899,0.0,0.0,0.0,0.0,0.0,0.0,0.0,0.0,0.0,0.0,0.0,0.0,0.0,0.0,0.0,-2.9918,0.0,0.0,0.0,0.0,0.0,0.0,0.0,0.0,0.0,0.0,0.0,0.0,-2.977,-2.9902,-2.9918,-3.0453,-3.0884,-3.1303,-3.2944,-3.4108,-3.4952,-3.5586,-3.5985,0.0,0.0,0.0,0.0,0.0,0.0,0.0,0.0,0.0,0.0,0.0,0.0,0.0,0.0,0.0,0.0,0.0,0.0,0.0,0.0,0.0,0.0,0.0,0.0,0.0,0.0,0.0,0.0,0.0,0.0,0.0,0.0,0.0,0.0,0.0,0.0,0.0,0.0,-3.1482,-3.1029,-2.9628,-2.9378,-2.8983,0.0,0.0,0.0,0.0,0.0,0.0,-2.818,-2.9097,-2.9901,-3.0499,-3.0952,-3.136,-3.1482,-3.1482,-3.1482,-3.1482,-3.1482,-3.1482,-3.1482,-3.1482,-3.1582,-3.1754,-3.2231,-3.2563,-3.2819,-3.2656,-3.3124,-3.3882,-3.4034,-3.4349,-3.4724,-3.505,-3.5181,-3.5214,0.0,0.0,0.0,0.0,0.0,0.0,0.0,0.0,0.0,0.0,0.0,0.0,0.0,0.0,-2.9918,-2.9918,-2.9918,-2.9918,0.0,0.0,0.0,0.0,0.0,0.0,0.0,0.0,0.0,-3.0146,-2.9989,-2.9946,-2.9973,-3.0022,-3.0642,-3.1698,-3.2266,-3.3111,-3.4248,-3.5626,-3.6264,-3.6441,0.0,0.0,0.0,0.0,0.0,0.0,0.0,0.0,0.0,0.0,0.0,0.0,0.0,0.0,0.0,0.0,0.0,0.0,0.0,0.0,0.0,0.0,0.0,0.0,0.0,0.0,0.0,0.0,0.0,0.0,0.0,0.0,0.0,0.0,0.0,0.0,0.0,0.0,0.0,-2.9628,-2.9073,0.0,0.0,0.0,0.0,-2.761,-2.7686,-2.8227,-2.9333,-2.945,-2.9812,-3.0496,-3.0552,-3.0866,-3.1467,-3.1482,-3.1482,-3.1482,-3.1482,-3.1482,-3.1482,-3.1482,-3.1796,-3.2342,-3.2398,-3.3033,-3.3984,-3.3423,-3.3182,-3.3303,-3.3866,-3.4101,-3.4282,-3.5482,-3.5943,-3.6042,0.0,0.0,0.0,0.0,0.0,0.0,0.0,0.0,0.0,0.0,0.0,0.0,0.0,-2.9918,-2.9918,-2.9918,-2.9918,-2.9918,-2.9918,0.0,0.0,0.0,0.0,0.0,0.0,0.0,-3.0162,-3.0333,-3.0162,-3.0231,-3.0518,-3.0518,-3.0881,-3.1596,-3.2555,-3.3321,-3.4007,-3.5504,-3.6635,-3.7415,-3.7542,-3.7774,0.0,0.0,0.0,0.0,0.0,0.0,0.0,0.0,0.0,0.0,0.0,0.0,0.0,0.0,0.0,0.0,0.0,0.0,0.0,0.0,0.0,0.0,0.0,0.0,0.0,0.0,0.0,0.0,0.0,0.0,0.0,0.0,0.0,0.0,0.0,0.0,0.0,-2.9604,-2.9,0.0,-2.7893,-2.6985,-2.6904,-2.8227,-2.7591,-2.7825,-2.9552,-2.9639,-3.006,-3.1093,-3.1165,-3.1285,-3.1482,-3.1482,-3.1482,-3.1482,-3.1482,-3.1482,-3.1524,-3.191,-3.2176,-3.2437,-3.3193,-3.3729,-3.4133,-3.4772,-3.5002,-3.5051,-3.5759,-3.6007,-3.609,-3.6555,-3.6721,-3.6754,0.0,0.0,0.0,0.0,0.0,0.0,0.0,0.0,0.0,0.0,0.0,-2.9918,-2.9918,-2.9918,-2.9918,-2.9918,-2.9918,-2.9918,-2.9918,0.0,0.0,0.0,0.0,0.0,0.0,-3.0231,-3.0274,-3.0443,-3.0028,-3.0179,-3.0885,-3.0593,-3.0989,-3.1862,-3.2687,-3.3454,-3.4189,-3.5502,-3.6746,-3.7853,-3.8044,-3.8285,-3.8528,0.0,0.0,0.0,0.0,0.0,0.0,0.0,0.0,0.0,0.0,0.0,0.0,0.0,0.0,0.0,0.0,0.0,0.0,0.0,0.0,0.0,0.0,0.0,0.0,0.0,0.0,0.0,0.0,0.0,0.0,0.0,0.0,0.0,0.0,-3.0612,-3.003,-2.9552,-2.9015,-2.8641,-2.8549,-2.764,-2.7603,-2.895,-2.8285,-2.8491,-3.0235,-3.0322,-3.0644,-3.1452,-3.1482,-3.1482,-3.1482,-3.1482,-3.1482,-3.1482,-3.1482,-3.1582,-3.1796,-3.2231,-3.2602,-3.3033,-3.3781,-3.4201,-3.4448,-3.5547,-3.6158,-3.6423,-3.692,-3.7102,-3.7135,-3.7384,-3.7483,-3.7516,0.0,0.0,0.0,0.0,0.0,0.0,0.0,0.0,0.0,0.0,-3.0087,-2.9902,-2.9902,-2.9918,-2.9918,-2.9918,-2.9918,-2.9918,-2.9918,-2.9918,0.0,0.0,0.0,0.0,-3.0443,-3.0316,-3.0342,-3.0518,-2.9601,-2.9748,-3.096,-3.0285,-3.0866,-3.2512,-3.2613,-3.3409,-3.4736,-3.5622,-3.6575,-3.754,-3.8162,-3.859,-3.8803,0.0,0.0,0.0,0.0,0.0,0.0,0.0,0.0,0.0,0.0,0.0,0.0,0.0,0.0,0.0,0.0,0.0,0.0,0.0,0.0,0.0,0.0,0.0,0.0,0.0,0.0,0.0,0.0,0.0,0.0,0.0,0.0,0.0,-3.0507,-2.9968,-2.9584,-2.9566,-2.9071,-2.877,-2.8757,-2.8189,-2.8368,-2.9682,-2.9726,-3.0235,-3.1437,-3.1482,-3.1482,-3.1482,-3.1482,-3.1482,-3.1482,-3.1482,-3.1482,-3.1482,-3.1524,-3.1853,-3.2398,-3.2453,-3.3033,-3.4101,-3.4101,-3.4399,-3.4965,-3.5694,-3.6423,-3.7069,-3.7119,-3.7152,-3.7268,-3.798,-3.8245,-3.8344,0.0,0.0,0.0,0.0,0.0,0.0,0.0,0.0,0.0,0.0,-3.0215,-2.9973,-3.0156,-3.0017,-2.9918,-2.9918,-2.9918,-2.9918,-2.9918,0.0,0.0,0.0,0.0,0.0,-3.1189,-3.1244,-3.1028,-3.0503,-3.0245,-3.0209,-3.0431,-3.0865,-3.1519,-3.2376,-3.3049,-3.3679,-3.4395,-3.5229,-3.6255,-3.7445,-3.8495,-3.9152,-3.9524,0.0,0.0,0.0,0.0,0.0,0.0,0.0,0.0,0.0,0.0,0.0,0.0,0.0,0.0,0.0,0.0,0.0,0.0,0.0,0.0,0.0,0.0,0.0,0.0,0.0,0.0,0.0,0.0,0.0,0.0,0.0,-3.0845,-2.9998,-3.0447,-2.9968,-2.9749,-3.0193,-2.9718,-2.9529,-2.9982,-2.9406,-2.9566,-3.0908,-3.0573,-3.0646,-3.1467,-3.1482,-3.1482,-3.1482,-3.1482,-3.1482,-3.1482,-3.1482,-3.1482,-3.1539,-3.1966,-3.2231,-3.2453,-3.3245,-3.3781,-3.4101,-3.4497,-3.4739,-3.4965,-3.5694,-3.6125,-3.6406,-3.7483,-3.8228,-3.8709,-3.8907,-3.899,-3.906,0.0,0.0,0.0,0.0,0.0,0.0,0.0,0.0,0.0,0.0,-3.0368,-3.013,-3.0293,-3.0284,-3.0189,-2.9902,-3.0146,-3.0215,-3.0087,0.0,0.0,0.0,0.0,-3.181,-3.1881,-3.1603,-3.1429,-3.1307,-3.0661,-3.0712,-3.1494,-3.1696,-3.2301,-3.3235,-3.3753,-3.4186,-3.4578,-3.5388,-3.6235,-3.7154,-3.8575,-3.9404,-3.9797,-3.9797,-3.9797,-3.9797,-3.9797,-3.9797,-3.9797,-3.9797,0.0,0.0,0.0,0.0,0.0,0.0,0.0,0.0,0.0,0.0,0.0,0.0,0.0,0.0,0.0,0.0,0.0,0.0,0.0,0.0,0.0,0.0,0.0,0.0,-3.0948,-3.0362,-3.0503,-2.9968,-2.9804,-3.0432,-3.0178,-3.0223,-3.0866,-3.0584,-3.0689,-3.1452,-3.1161,-3.1087,-3.1467,-3.1482,-3.1482,-3.1482,-3.1482,-3.1482,-3.1482,-3.1754,-3.1853,-3.1853,-3.2477,-3.2857,-3.314,-3.3781,-3.4201,-3.4448,-3.4739,-3.4899,-3.4932,-3.5363,-3.5727,-3.6125,0.0,0.0,0.0,0.0,-3.9747,-4.0003,0.0,0.0,0.0,0.0,0.0,0.0,0.0,0.0,0.0,0.0,0.0,-3.0377,-3.0418,-3.0625,-3.0559,-3.0076,-3.0493,-3.0707,0.0,0.0,0.0,-3.2159,-3.2309,-3.2409,-3.2556,-3.188,-3.1809,-3.246,-3.11,-3.1369,-3.3175,-3.2621,-3.3083,-3.445,-3.4544,-3.4755,-3.5082,-3.5812,-3.6344,-3.6856,-3.8346,-3.9277,-3.9773,-3.9868,-3.9906,-3.9906,-3.9906,-3.9906,-3.9906,-3.9905,0.0,0.0,0.0,0.0,0.0,0.0,0.0,0.0,0.0,0.0,0.0,0.0,0.0,0.0,0.0,0.0,0.0,0.0,0.0,0.0,0.0,0.0,0.0,0.0,-3.1368,-3.1251,-3.0779,-3.0188,-2.9998,-3.0552,-3.0612,-3.0866,-3.1422,-3.1482,-3.1482,-3.1482,-3.1482,-3.1482,-3.1482,-3.1482,0.0,0.0,0.0,-3.1524,-3.1582,-3.212,-3.2437,-3.2492,-3.3055,-3.3578,-3.4101,-3.4151,-3.4448,-3.4899,-3.4899,-3.4899,-3.4899,-3.4899,-3.5297,-3.5959,-3.6787,-3.76,-3.8417,-3.9463,-4.0283,-4.0802,0.0,0.0,0.0,0.0,0.0,0.0,0.0,0.0,0.0,-3.1579,-3.1083,-3.0804,-3.1083,-3.0925,-3.0747,-3.0642,-3.0723,-3.0914,0.0,0.0,-3.2527,-3.2638,-3.31,-3.3411,-3.3606,-3.3441,-3.3206,-3.2882,-3.259,-3.2462,-3.2486,-3.3015,-3.3517,-3.4045,-3.4702,-3.5114,-3.5326,-3.5488,-3.6091,-3.6968,-3.7298,-3.8287,-3.9627,-4.0343,-4.0607,-4.0607,-4.0607,-4.0607,-4.0602,-4.0538,-4.0369,-4.0185,-4.0138,0.0,0.0,0.0,0.0,0.0,0.0,0.0,0.0,0.0,0.0,0.0,0.0,0.0,0.0,0.0,0.0,0.0,0.0,0.0,0.0,-3.2676,-3.1954,-3.1582,-3.1956,-3.1494,-3.121,-3.1315,-3.1345,-3.139,-3.1467,-3.1482,-3.1482,-3.1482,-3.1482,-3.1482,-3.1482,-3.1482,-3.1482,-3.1482,-3.1482,-3.1739,-3.2231,-3.2342,-3.2641,-3.3039,-3.3646,0.0,-3.4101,-3.4546,-3.4804,-3.4899,-3.4899,-3.4899,-3.4899,-3.4899,-3.4982,-3.5247,-3.6589,-3.7753,-3.8772,-3.9039,-3.9822,-4.0849,0.0,0.0,0.0,0.0,0.0,0.0,0.0,0.0,0.0,0.0,-3.1372,-3.1123,-3.1295,-3.1295,-3.124,-3.1055,-3.1405,0.0,0.0,-3.2925,-3.3451,-3.3788,-3.4104,-3.4315,-3.4461,-3.4047,-3.3922,-3.4049,-3.3655,-3.3595,-3.387,-3.4226,-3.4526,-3.4766,-3.5166,-3.5437,-3.5597,-3.5597,-3.5938,-3.6498,-3.6928,-3.7608,-3.8479,-3.9684,-4.0422,-4.081,-4.081,-4.081,-4.0781,-4.077,-4.0645,-4.0546,-4.0519,-4.0389,-4.0226,0.0,0.0,0.0,0.0,0.0,0.0,0.0,0.0,0.0,0.0,0.0,0.0,0.0,0.0,-3.4967,-3.3494,0.0,-3.3352,-3.3064,-3.286,-3.2694,-3.2446,-3.212,-3.1853,-3.1539,-3.1482,-3.1482,-3.1482,-3.1482,-3.1482,-3.1482,-3.1482,-3.1482,-3.1482,-3.1482,-3.1482,-3.1482,-3.1796,-3.2079,-3.2398,-3.298,-3.3403,-3.3646,-3.4234,-3.4497,-3.4497,-3.4804,-3.4899,-3.4899,-3.4899,-3.5024,-3.5287,-3.5481,-3.5554,-3.5639,-3.6354,-3.7267,-3.8225,-3.8831,-3.9877,-4.0998,0.0,0.0,0.0,0.0,0.0,0.0,0.0,0.0,0.0,0.0,-3.1542,-3.1389,-3.1389,-3.1634,-3.1711,0.0,0.0,0.0,0.0,-3.3795,-3.4304,-3.4813,-3.4889,-3.4975,-3.5081,-3.4438,-3.4462,-3.5195,-3.4555,-3.4661,-3.5483,-3.5403,-3.5477,-3.5657,-3.5639,-3.5703,-3.5799,-3.5799,-3.5829,-3.5946,-3.6651,-3.7048,-3.7333,-3.858,-3.9694,-4.0636,-4.0772,-4.0843,-4.0848,-4.0832,-4.0835,-4.0837,-4.082,-4.0751,-4.0667,-4.0444,-4.031,0.0,0.0,0.0,0.0,0.0,0.0,0.0,0.0,-3.7828,-3.7197,-3.5814,-3.5451,-3.4957,-3.3506,-3.3682,-3.3865,-3.3421,-3.3761,-3.3729,-3.2695,-3.2437,-3.2176,-3.1582,-3.1482,-3.1482,-3.1482,-3.1482,-3.1482,-3.1482,-3.1482,-3.1524,-3.1697,-3.1582,-3.1582,-3.1838,-3.2176,-3.2508,-3.2711,-3.3626,-3.4151,-3.425,-3.4691,-3.4899,-3.4899,-3.4899,-3.4899,-3.4899,-3.4977,-3.527,-3.5732,-3.6062,-3.6172,-3.6215,-3.6298,-3.6721,-3.7446,-3.8583,-3.9805,-4.0877,0.0,0.0,0.0,0.0,0.0,0.0,0.0,0.0,0.0,0.0,0.0,0.0,0.0,0.0,0.0,0.0,0.0,0.0,-3.371,-3.4342,-3.4775,-3.4986,-3.4966,-3.5086,-3.5339,-3.5271,-3.5332,-3.5541,-3.5451,-3.5528,-3.576,-3.5624,-3.5677,-3.5864,-3.5806,-3.5791,-3.5806,-3.5806,-3.5802,-3.5817,-3.5914,-3.6462,-3.7229,-3.7395,-3.8472,-4.0013,-4.0716,-4.1015,-4.105,-4.0932,-4.093,-4.0967,-4.0837,-4.0781,-4.0771,-4.068,-4.0477,-4.0271,-4.0194,-3.9835,-3.9502,-3.9433,-3.8876,-3.835,0.0,-3.7949,-3.7431,-3.6833,-3.64,-3.5908,-3.5379,-3.5011,-3.4767,-3.4719,-3.435,-3.3882,-3.3198,-3.2695,-3.2176,-3.1582,-3.1482,-3.1482,-3.1482,-3.1482,-3.1482,-3.1482,-3.1482,-3.1739,-3.2287,-3.1796,-3.1951,-3.2986,-3.2586,-3.2873,-3.3882,-3.405,-3.4349,-3.4787,-3.4899,-3.4899,-3.4899,-3.4899,-3.4899,-3.4947,-3.5316,-3.5732,-3.6147,-3.6172,-3.6172,-3.6215,-3.6643,-3.6873,-3.7048,-3.7918,-3.8992,-4.0039,0.0,0.0,0.0,0.0,0.0,0.0,0.0,0.0,0.0,0.0,0.0,0.0,0.0,0.0,0.0,0.0,0.0,0.0,-3.398,-3.4639,-3.5133,-3.5341,-3.5355,-3.5435,-3.5627,-3.5627,-3.5672,-3.5761,-3.5706,-3.5685,-3.5743,-3.5606,-3.5593,-3.5674,-3.5648,-3.563,-3.563,-3.563,-3.5676,-3.5729,-3.5729,-3.6001,-3.6442,-3.6949,-3.7592,-3.8402,-3.9806,-4.0628,0.0,0.0,-4.0994,-4.1055,-4.098,-4.0953,-4.0918,-4.0885,-4.0742,-4.0546,-4.0323,-4.0117,-3.9907,-3.9585,-3.9136,-3.8741,-3.846,-3.8119,-3.7667,-3.7017,-3.6724,-3.6399,-3.5749,-3.5453,-3.5241,-3.493,-3.4691,-3.4382,-3.3799,-3.3559,-3.3033,-3.212,-3.2007,-3.191,-3.1524,-3.1482,-3.1482,-3.1482,-3.1811,-3.212,-3.2398,-3.2477,-3.2718,-3.3182,-3.3335,-3.3626,-3.4101,-3.4399,-3.4691,-3.4899,-3.4899,-3.5024,-3.5316,-3.5316,-3.5453,-3.5688,-3.6147,-3.644,-3.6643,-3.69,-3.7017,-3.7017,-3.7243,-3.7319,-3.7372,-3.7691,-3.8407,-3.9272,0.0,0.0,0.0,0.0,0.0,0.0,0.0,0.0,0.0,0.0,0.0,0.0,0.0,0.0,0.0,0.0,0.0,0.0,0.0,-3.4849,-3.5331,-3.562,-3.565,-3.5704,-3.5834,-3.578,-3.5794,-3.5846,-3.5714,-3.5638,-3.5629,-3.5523,-3.547,-3.5495,-3.5489,-3.5477,-3.5477,-3.5477,-3.5526,-3.5637,-3.5637,-3.5718,-3.5877,-3.6498,-3.6887,-3.7292,-3.8867,-3.9798,0.0,0.0,-4.0313,-4.0407,-4.0641,-4.0698,-4.0706,-4.0911,-4.0882,-4.0732,-4.048,-4.0346,-4.02,-3.9797,-3.9402,-3.9017,-3.867,-3.83,-3.7827,-3.7321,-3.7055,-3.6661,-3.5907,-3.5661,-3.5453,-3.4994,-3.4899,-3.4691,-3.4201,-3.3933,-3.3507,-3.2508,-3.2231,-3.1966,-3.1524,-3.164,-3.1754,-3.1754,-3.2272,-3.2695,-3.2873,-3.3108,-3.3355,-3.3665,-3.3968,-3.4151,-3.43,-3.4707,-3.4899,-3.4899,-3.4899,-3.5148,-3.5616,-3.5688,-3.5994,-3.6399,-3.6764,-3.6978,-3.7111,-3.7449,-3.7577,-3.7577,-3.7577,-3.7577,-3.7577,-3.7577,-3.7969,-3.8469,0.0,0.0,0.0,0.0,0.0,0.0,0.0,0.0,0.0,0.0,0.0,0.0,0.0,0.0,0.0,0.0,0.0,0.0,0.0,-3.5005,-3.5335,-3.5685,-3.5768,-3.5836,-3.5899,-3.5766,-3.571,-3.5698,-3.5574,-3.5507,-3.5507,-3.543,-3.543,-3.5495,-3.543,-3.5393,-3.5393,-3.5393,-3.5443,-3.5507,-3.5507,-3.5629,-3.5799,-3.5838,-3.6362,-3.7217,-3.8119,0.0,0.0,0.0,-3.8483,-3.8631,-3.9486,-3.9789,-3.998,-4.0693,-4.085,-4.0791,-4.0711,-4.0491,-4.0268,-4.0194,-3.9645,-3.9099,-3.9099,-3.8511,-3.7984,-3.7984,-3.7413,-3.6764,-3.6256,-3.5864,-3.5453,-3.4994,-3.4899,-3.4691,-3.4201,-3.3594,-3.3039,-3.2437,-3.1853,-3.1524,-3.1482,-3.2007,-3.2398,-3.2398,-3.2895,-3.3423,-3.4,-3.3527,-3.3716,-3.4787,-3.4349,-3.4349,-3.4899,-3.4899,-3.4899,-3.4899,-3.4899,-3.5148,-3.5616,-3.602,-3.644,-3.686,-3.69,-3.715,-3.7577,-3.7577,-3.7577,-3.7577,-3.7577,-3.7577,-3.7577,-3.7577,-3.7612,-3.763,0.0,0.0,0.0,0.0,0.0,0.0,0.0,0.0,0.0,0.0,0.0,0.0,0.0,0.0,0.0,0.0,0.0,0.0,0.0,-3.5021,-3.5345,-3.5691,-3.5752,-3.5781,-3.5761,-3.5723,-3.5582,-3.538,-3.5411,-3.5273,-3.4973,-3.5051,-3.5088,-3.5083,-3.5088,-3.5141,-3.5273,-3.5273,-3.5374,-3.5495,-3.5495,-3.5629,-3.5799,-3.5799,-3.5974,-3.6284,0.0,0.0,0.0,0.0,-3.833,-3.8377,-3.8688,-3.8809,-3.9025,-3.9856,-4.0526,-4.0964,-4.0855,-4.0801,-4.0673,-4.035,-4.0079,-3.9811,-3.9443,-3.9026,-3.8645,-3.8269,-3.7893,-3.7432,-3.6764,-3.635,-3.5898,-3.5453,-3.5102,-3.4851,-3.4659,-3.4134,-3.3713,-3.3559,-3.2656,-3.212,-3.212,-3.2287,-3.2398,-3.2398,-3.3282,-3.3882,-3.4101,-3.4218,-3.4513,-3.4899,-3.4739,-3.4691,-3.4899,-3.4899,-3.4899,-3.4899,-3.5481,-3.602,-3.6481,-3.6956,-3.7206,-3.7374,-3.7374,-3.7449,-3.7577,-3.7577,-3.7577,-3.7577,-3.7577,-3.7577,-3.7577,-3.7577,-3.7577,-3.7577,0.0,0.0,0.0,0.0,0.0,0.0,0.0,0.0,0.0,0.0,0.0,0.0,0.0,0.0,0.0,0.0,0.0,0.0,0.0,0.0,-3.5207,-3.5549,-3.5714,-3.578,-3.5739,-3.5696,-3.5543,-3.5306,-3.5247,-3.5069,-3.4774,-3.4754,-3.4812,-3.4908,-3.4908,-3.5019,-3.5209,-3.5209,-3.5503,-3.5939,-3.563,-3.5803,-3.6226,-3.5915,-3.5799,0.0,0.0,0.0,0.0,0.0,-3.7394,-3.742,-3.7739,-3.8072,-3.8541,-3.9478,-4.0142,-4.0644,-4.0845,-4.0933,-4.089,-4.0556,-4.0386,-4.0216,-3.985,-3.943,-3.898,-3.8659,-3.8273,-3.7792,-3.7152,-3.662,-3.6139,-3.5661,-3.5195,-3.4899,-3.4899,-3.4448,-3.4034,-3.3815,-3.2964,-3.2398,-3.2398,-3.2586,-3.2695,-3.2695,-3.3748,-3.4399,-3.4399,-3.4691,-3.4899,-3.4899,-3.4899,-3.4899,-3.4899,-3.4899,-3.4977,-3.5148,-3.602,-3.6603,-3.69,-3.7374,-3.7577,-3.7577,-3.7577,-3.7577,-3.7577,-3.7577,-3.7577,-3.7577,-3.7577,-3.7577,-3.7577,-3.7577,-3.7577,-3.7577,0.0,0.0,0.0,0.0,0.0,0.0,0.0,0.0,0.0,0.0,0.0,0.0,0.0,0.0,0.0,0.0,0.0,0.0,0.0,0.0,0.0,-3.5276,-3.5632,-3.5788,-3.5781,-3.5671,-3.5572,-3.5476,-3.5117,-3.4926,-3.4889,-3.4634,-3.4655,-3.4908,-3.4889,-3.5019,-3.5209,-3.5209,-3.5806,-3.6665,-3.5835,-3.6123,-3.6953,-3.6118,0.0,0.0,0.0,0.0,0.0,-3.5803,-3.5747,-3.585,-3.6665,-3.7531,-3.8427,-3.9388,-3.9657,-3.9806,-4.0562,-4.0762,-4.0762,-4.0696,-4.0467,-4.0269,-4.0254,-3.969,-3.916,-3.9107,-3.8542,-3.7879,-3.7433,-3.6729,-3.6062,-3.5688,-3.5241,-3.4899,-3.4899,-3.4448,-3.3917,-3.3355,-3.2803,-3.2437,-3.2492,-3.2949,-3.3251,-3.3251,-3.4251,-3.4899,-3.4899,-3.4899,-3.4899,-3.4899,-3.4899,-3.4899,-3.4947,-3.493,-3.5195,-3.5661,-3.6481,-3.69,-3.6939,-3.7411,-3.7577,-3.7577,-3.7577,-3.7577,-3.7577,-3.7577,-3.7577,-3.7577,-3.7577,-3.7577,-3.7577,-3.7577,-3.7577,-3.7577,0.0,0.0,0.0,0.0,0.0,0.0,0.0,0.0,0.0,0.0,0.0,0.0,0.0,0.0,0.0,0.0,0.0,0.0,0.0,0.0,0.0,0.0,0.0,0.0,0.0,0.0,0.0,0.0,0.0,-3.517,-3.4829,-3.4868,-3.4905,-3.4959,-3.4926,-3.5072,-3.535,-3.535,-3.5592,-3.5958,0.0,-3.5862,-3.6183,0.0,0.0,0.0,0.0,0.0,0.0,-3.5771,-3.5718,-3.5753,-3.5968,-3.6639,-3.7384,-3.7697,-3.8241,-3.8789,-3.8974,-3.9073,-3.9079,-3.8967,-3.9403,-3.981,-3.9663,-3.9826,-3.9871,-3.9435,-3.8915,-3.8382,-3.7895,-3.6925,-3.619,-3.6062,-3.5391,-3.4899,-3.4899,-3.4448,-3.4184,-3.4431,-3.363,-3.3161,-3.361,-3.3764,-3.3866,-3.3866,-3.448,-3.4899,-3.4899,-3.4899,-3.4899,-3.4899,-3.4899,-3.5071,-3.5407,-3.5732,-3.6105,-3.6563,-3.6781,-3.7073,-3.7411,-3.754,-3.7577,-3.7577,-3.7577,-3.7577,-3.7577,-3.7577,-3.7577,-3.7577,-3.7577,-3.7577,-3.7577,-3.7577,-3.7577,-3.7577,0.0,0.0,0.0,0.0,0.0,0.0,0.0,0.0,0.0,0.0,0.0,0.0,0.0,0.0,0.0,0.0,0.0,0.0,0.0,0.0,0.0,0.0,0.0,0.0,0.0,0.0,0.0,0.0,0.0,0.0,0.0,-3.474,-3.4988,-3.5092,-3.5054,-3.5211,-3.5495,-3.5496,0.0,0.0,0.0,0.0,0.0,0.0,0.0,0.0,0.0,0.0,-3.5896,-3.5807,-3.5764,-3.5763,-3.5784,-3.6082,-3.6522,-3.6961,-3.7452,-3.7914,-3.8306,-3.8456,-3.8474,-3.8415,-3.8768,-3.9098,-3.8995,-3.9361,-3.9608,-3.9178,-3.8883,-3.8608,-3.8234,-3.7079,-3.6172,-3.6172,-3.5481,-3.4899,-3.4899,-3.4643,-3.4382,-3.4202,-3.3614,-3.3303,-3.3697,-3.3697,-3.3917,-3.4399,-3.4756,-3.4899,-3.4899,-3.4899,-3.4899,-3.4899,-3.4899,-3.5118,-3.5588,-3.5977,-3.644,-3.69,-3.7111,-3.7337,-3.7577,-3.7577,-3.7577,-3.7577,-3.7577,-3.7577,-3.7577,-3.7577,-3.7649,-3.7792,-3.7792,-3.7863,-3.7949,-3.7949,-3.7949,-3.7949,0.0,0.0,0.0,0.0,0.0,0.0,0.0,0.0,0.0,0.0,0.0,0.0,0.0,0.0,0.0,0.0,0.0,0.0,0.0,0.0,0.0,0.0,0.0,0.0,0.0,0.0,0.0,0.0,0.0,0.0,0.0,0.0,0.0,0.0,0.0,0.0,0.0,0.0,0.0,0.0,0.0,0.0,0.0,0.0,0.0,0.0,0.0,0.0,0.0,-3.5918,-3.5869,-3.5805,-3.5873,-3.5813,-3.5888,-3.6696,-3.6943,-3.7106,-3.7845,-3.8096,-3.8151,-3.8143,-3.8202,-3.8246,-3.8221,-3.8586,-3.8862,-3.8725,-3.8625,-3.8519,-3.8442,-3.7175,-3.6172,-3.6172,-3.5481,-3.4899,-3.4899,-3.4851,-3.4431,-3.3407,-3.3251,-3.3251,-3.3303,-3.3303,-3.3783,-3.4835,-3.4899,-3.4899,-3.4899,-3.4899,-3.4899,-3.4899,-3.5024,-3.5287,-3.5661,-3.6147,-3.6603,-3.6995,-3.7411,-3.7577,-3.7577,-3.7577,-3.7577,-3.7577,-3.7577,-3.7577,-3.7577,-3.7577,-3.7757,-3.7949,-3.7984,-3.8153,-3.835,-3.8382,-3.8382,-3.8382,0.0,0.0,0.0,0.0,0.0,0.0,0.0,0.0,0.0,0.0,-3.2126,0.0,0.0,0.0,0.0,0.0,0.0,0.0,0.0,0.0,0.0,0.0,0.0,0.0,0.0,0.0,0.0,-3.5217,-3.5437,0.0,0.0,0.0,0.0,0.0,0.0,0.0,0.0,0.0,0.0,0.0,0.0,0.0,0.0,0.0,0.0,0.0,0.0,0.0,0.0,0.0,-3.5895,-3.5802,-3.5877,-3.5873,-3.5899,-3.6056,-3.6107,-3.6129,-3.6214,-3.629,-3.6342,-3.6348,-3.6933,-3.7457,-3.7356,-3.7891,-3.8462,-3.8663,-3.8294,-3.8044,-3.8363,-3.7175,-3.6172,-3.6172,-3.5481,-3.4899,-3.4899,-3.4497,-3.4151,-3.3984,-3.3527,-3.3423,-3.3882,-3.3933,-3.4234,-3.4851,-3.4899,-3.4899,-3.4899,-3.4899,-3.4899,-3.4899,-3.5599,-3.602,-3.6105,-3.6939,-3.7411,-3.7485,-3.7577,-3.7577,-3.7577,-3.7577,-3.7577,-3.7577,-3.7577,-3.7577,-3.7577,-3.7577,-3.7613,-3.7685,-3.7915,-3.8018,-3.8086,-3.8318,-3.8382,-3.8382,0.0,0.0,0.0,0.0,0.0,0.0,0.0,0.0,0.0,0.0,-3.1929,-3.2055,0.0,0.0,0.0,0.0,0.0,0.0,0.0,0.0,0.0,0.0,0.0,0.0,0.0,-3.4759,-3.4826,-3.4372,0.0,-3.5152,-3.4831,-3.5246,-3.5502,-3.5605,-3.5644,-3.5684,0.0,0.0,0.0,0.0,0.0,0.0,0.0,0.0,0.0,0.0,0.0,0.0,0.0,0.0,-3.5916,-3.5858,-3.5937,-3.593,-3.5893,-3.5909,-3.5903,-3.5884,-3.5869,-3.5882,-3.5898,-3.5893,-3.6269,-3.6609,-3.6504,-3.7078,-3.7704,-3.7972,-3.7901,-3.7912,-3.8327,-3.7175,-3.6172,-3.6172,-3.5481,-3.4804,-3.4497,-3.425,-3.3882,-3.3298,-3.2964,-3.2911,-3.3193,-3.3439,-3.385,-3.4448,-3.4739,-3.4899,-3.4899,-3.4899,-3.4899,-3.4899,-3.5526,-3.5977,-3.6172,-3.69,-3.7374,-3.7577,-3.7577,-3.7577,-3.7577,-3.7577,-3.7577,-3.7577,-3.7577,-3.7577,-3.7577,-3.7577,-3.7685,-3.7828,-3.7949,-3.8186,-3.8415,-3.8559,-3.8664,-3.8766,0.0,0.0,0.0,0.0,0.0,0.0,0.0,-3.18,-3.18,-3.18,-3.18,-3.1893,-3.2144,-3.1965,-3.202,0.0,0.0,0.0,0.0,0.0,0.0,0.0,0.0,0.0,0.0,0.0,0.0,-3.3486,-3.4416,0.0,0.0,0.0,0.0,0.0,-3.5535,-3.5573,-3.5565,-3.5616,0.0,0.0,0.0,-3.5693,0.0,0.0,0.0,0.0,0.0,-3.563,-3.5676,-3.5767,-3.582,-3.5878,-3.5919,-3.5932,-3.5912,-3.5918,-3.5917,-3.5929,-3.5906,-3.5916,-3.5917,-3.5898,-3.5951,-3.5985,-3.5919,-3.6285,-3.6762,-3.7092,-3.731,-3.759,-3.7908,-3.6993,-3.613,-3.5899,-3.5237,-3.4546,-3.3968,-3.3832,-3.3403,-3.2508,-3.2287,-3.2231,-3.2398,-3.2895,-3.3475,-3.405,-3.4594,-3.4899,-3.4899,-3.4899,-3.4947,-3.5071,-3.5481,-3.595,-3.6357,-3.6821,-3.7243,-3.7577,-3.7577,-3.7577,-3.7577,-3.7577,-3.7577,-3.7577,-3.7577,-3.7577,-3.7577,-3.7577,-3.7721,-3.7915,-3.7984,-3.8285,-3.8713,-3.8792,-3.8921,-3.9101,0.0,0.0,0.0,0.0,0.0,0.0,0.0,-3.18,-3.18,-3.18,-3.18,-3.18,-3.1819,-3.1837,-3.1819,0.0,0.0,0.0,0.0,0.0,0.0,0.0,0.0,0.0,0.0,0.0,0.0,-3.3759,-3.405,0.0,0.0,0.0,0.0,0.0,0.0,-3.5156,-3.5168,-3.5342,0.0,0.0,0.0,0.0,0.0,0.0,0.0,0.0,0.0,-3.5449,-3.559,-3.5474,-3.5563,-3.571,-3.5737,-3.5855,-3.5999,-3.5996,-3.5999,-3.5986,-3.5918,-3.5933,-3.5982,-3.5917,-3.5951,-3.5985,-3.5919,-3.5721,-3.5693,-3.6195,-3.6329,-3.6423,-3.663,-3.6415,-3.5899,-3.4998,-3.4464,-3.3968,-3.3355,-3.2857,-3.2508,-3.2382,-3.191,-3.1796,-3.2342,-3.2895,-3.3475,-3.405,-3.4594,-3.4899,-3.4899,-3.4899,-3.5118,-3.5526,-3.5933,-3.6357,-3.6821,-3.7281,-3.754,-3.7577,-3.7577,-3.7577,-3.7577,-3.7577,-3.7577,-3.7577,-3.7577,-3.7577,-3.7577,-3.7577,-3.7613,-3.7649,-3.7915,-3.8186,-3.8446,-3.8713,-3.8921,-3.9101,0.0,0.0,0.0,0.0,0.0,0.0,0.0,-3.18,-3.1726,-3.1542,-3.1504,-3.1411,-3.1218,-3.1218,-3.1372,0.0,0.0,0.0,0.0,0.0,0.0,0.0,0.0,0.0,0.0,0.0,-3.3076,-3.3141,-3.3358,0.0,0.0,0.0,0.0,0.0,0.0,-3.4935,-3.4988,-3.5073,0.0,0.0,0.0,0.0,0.0,0.0,0.0,0.0,0.0,0.0,-3.5178,-3.5168,-3.5218,-3.5303,-3.5474,-3.5571,-3.5682,-3.588,-3.5978,-3.5994,-3.5966,-3.5982,-3.5996,-3.5966,-3.5949,-3.5904,-3.5807,-3.5553,-3.5488,-3.6042,-3.6157,-3.6256,-3.6471,-3.6341,-3.5899,-3.4841,-3.4366,-3.3781,-3.2857,-3.2547,-3.2287,-3.191,-3.164,-3.1582,-3.1853,-3.268,-3.3563,-3.4497,-3.4804,-3.4899,-3.4899,-3.4899,-3.5118,-3.5588,-3.5977,-3.644,-3.69,-3.7374,-3.7577,-3.7577,-3.7577,-3.7577,-3.7577,-3.7577,-3.7577,-3.7577,-3.7577,-3.7577,-3.7577,-3.7577,-3.7577,-3.7613,-3.7721,-3.8018,-3.8415,-3.8528,-3.8785,-3.9101,0.0,0.0,0.0,0.0,0.0,0.0,-3.18,-3.18,-3.1671,-3.1334,-3.1295,-3.1162,-3.0845,-3.0804,-3.1004,-3.1466,0.0,0.0,0.0,0.0,0.0,0.0,0.0,0.0,0.0,0.0,-3.2332,-3.2435,-3.2565,-3.2955,0.0,0.0,-3.3806,-3.4274,0.0,0.0,0.0,0.0,0.0,0.0,0.0,0.0,0.0,0.0,0.0,0.0,0.0,0.0,0.0,0.0,0.0,-3.4897,-3.5163,0.0,0.0,-3.5733,-3.5869,-3.5923,-3.5955,-3.5978,-3.5978,-3.5978,-3.5885,-3.5762,-3.5621,-3.5335,-3.519,-3.5472,-3.5572,-3.5642,-3.579,-3.5605,-3.5155,0.0,-3.3903,-3.3245,-3.2287,-3.1936,-3.1709,-3.1263,-3.1029,-3.097,-3.1161,-3.2391,-3.3665,-3.4787,-3.4899,-3.4899,-3.4899,-3.4899,-3.5148,-3.5776,-3.6062,-3.6481,-3.7111,-3.7411,-3.7577,-3.7577,-3.7577,-3.7577,-3.7577,-3.7577,-3.7577,-3.7577,-3.7577,-3.7577,-3.7577,-3.7577,-3.7577,-3.7577,-3.7577,-3.788,-3.8285,-3.8382,-3.8664,-3.9017,0.0,0.0,0.0,0.0,0.0,0.0,0.0,-3.18,-3.1671,-3.1334,-3.1295,-3.1162,-3.0845,-3.0804,-3.0804,-3.0788,0.0,0.0,0.0,0.0,0.0,0.0,0.0,0.0,0.0,0.0,-3.1167,-3.1825,-3.1825,-3.2196,-3.2903,-3.2903,-3.2947,-3.3021,0.0,0.0,0.0,0.0,0.0,0.0,0.0,0.0,0.0,0.0,0.0,0.0,0.0,0.0,0.0,0.0,0.0,0.0,0.0,0.0,0.0,0.0,-3.5702,-3.5737,-3.5852,-3.5889,-3.5889,-3.5889,-3.5742,-3.5542,-3.5354,-3.4999,-3.4602,-3.4292,-3.421,-3.4217,-3.4209,-3.3922,-3.3529,-3.3264,-3.2803,-3.2231,-3.1582,-3.097,-3.0524,-3.0524,-2.995,-2.9766,-3.045,-3.2124,-3.3665,-3.4787,-3.4899,-3.4899,-3.4899,-3.4899,-3.5316,-3.619,-3.6172,-3.6643,-3.7577,-3.7577,-3.7577,-3.7577,-3.7577,-3.7577,-3.7577,-3.7577,-3.7577,-3.7577,-3.7577,-3.7577,-3.7577,-3.7577,-3.7577,-3.7577,-3.7577,-3.7757,-3.8052,-3.8318,-3.859,-3.8833,0.0,0.0,0.0,0.0,0.0,0.0,0.0,-3.1596,-3.1334,-3.1004,-3.0764,-3.0518,-3.0231,-3.0172,-3.0172,-3.0172,0.0,0.0,0.0,0.0,0.0,0.0,0.0,0.0,0.0,0.0,-3.0908,-3.1128,-3.1128,-3.1363,-3.1827,-3.2039,-3.2297,-3.2592,-3.2836,-3.2947,0.0,0.0,0.0,0.0,0.0,0.0,-3.357,0.0,0.0,0.0,0.0,0.0,0.0,0.0,0.0,0.0,0.0,0.0,0.0,0.0,-3.496,-3.5299,-3.5334,-3.5345,-3.5345,-3.5345,-3.527,-3.5124,-3.4885,-3.4585,-3.4195,-3.3674,-3.378,-3.3897,-3.3792,-3.3667,-3.3512,-3.3264,-3.2749,-3.2048,-3.0955,-3.1029,-3.1029,-3.0524,-3.0718,-3.1276,-3.225,-3.2848,-3.3665,-3.4787,-3.4899,-3.4899,-3.4899,-3.4899,-3.5316,-3.6172,-3.6172,-3.6643,-3.7577,-3.7577,-3.7577,-3.7577,-3.7577,-3.7577,-3.7577,-3.7577,-3.7577,-3.7577,-3.7577,-3.7577,-3.7577,-3.7577,-3.7577,-3.7577,-3.7577,-3.7757,-3.8018,-3.8086,-3.8415,-3.8822,0.0,0.0,0.0,0.0,0.0,0.0,0.0,-3.1334,-3.1004,-3.0683,-3.0418,-3.0199,-2.9946,-2.9918,-2.9918,-2.9918,0.0,0.0,0.0,0.0,0.0,0.0,0.0,0.0,0.0,-3.0452,-3.0518,-3.0625,-3.0625,-3.0771,-3.1133,-3.1342,-3.1571,-3.181,-3.2004,-3.2126,0.0,0.0,0.0,0.0,0.0,0.0,-3.284,0.0,0.0,0.0,0.0,0.0,0.0,0.0,0.0,0.0,0.0,0.0,0.0,0.0,-3.392,-3.4183,-3.4668,-3.4805,-3.4805,-3.4805,-3.471,-3.4529,-3.4189,-3.3918,-3.3588,-3.2973,-3.3097,-3.3328,-3.3209,-3.311,-3.3015,-3.2914,-3.2226,-3.1522,-3.0955,-3.0777,-3.0584,-3.0147,-3.0703,-3.1522,-3.24,-3.2902,-3.3578,-3.4546,-3.4804,-3.4899,-3.4899,-3.4899,-3.5316,-3.6172,-3.6172,-3.6643,-3.7577,-3.7577,-3.7577,-3.7577,-3.7577,-3.7577,-3.7577,-3.7577,-3.7577,-3.7577,-3.7577,-3.7577,0.0,-3.7577,-3.7577,-3.7577,-3.7577,-3.7721,-3.7845,-3.7949,-3.8219,-3.851,0.0,0.0,0.0,0.0,0.0,0.0,0.0,0.0,0.0,0.0,-3.0293,-3.0199,-2.9902,-2.9918,-2.9858,0.0,0.0,0.0,0.0,0.0,0.0,0.0,0.0,0.0,0.0,-2.9918,-3.0017,-3.0267,-3.0267,-3.0418,-3.0723,-3.0764,-3.0747,-3.0764,-3.0804,-3.0804,0.0,0.0,0.0,0.0,0.0,0.0,0.0,0.0,0.0,0.0,0.0,0.0,0.0,0.0,0.0,0.0,0.0,0.0,0.0,0.0,0.0,0.0,0.0,-3.4135,-3.4156,-3.4156,-3.4023,-3.3777,-3.3305,-3.3069,0.0,-3.2231,-3.2337,-3.2513,-3.2514,-3.2273,-3.2118,-3.2329,-3.1276,-3.0703,-3.1278,-3.0329,-2.9566,-2.9566,-3.0147,-3.0793,-3.1317,-3.2509,-3.3475,-3.405,-3.4594,-3.4899,-3.4899,-3.4899,-3.5316,-3.6172,-3.6172,-3.6643,-3.7577,-3.7577,-3.7577,-3.7577,-3.7577,-3.7577,-3.7577,-3.7577,-3.7577,-3.7577,-3.7577,-3.7577,-3.7577,-3.7577,-3.7577,-3.7577,-3.7577,-3.7577,-3.7613,-3.788,-3.7984,-3.8052,0.0,0.0,0.0,0.0,0.0,0.0,0.0,0.0,0.0,0.0,-3.013,-2.9989,-2.9918,-2.9918,-2.9681,0.0,0.0,0.0,0.0,0.0,0.0,0.0,0.0,0.0,0.0,-2.9918,-2.9946,-2.9973,-2.9973,-3.0017,-3.0103,-3.0309,-3.0418,-3.0418,-3.0683,-3.0804,0.0,0.0,0.0,0.0,0.0,0.0,0.0,0.0,0.0,0.0,-3.177,-3.1696,0.0,0.0,0.0,0.0,0.0,0.0,0.0,0.0,-3.1933,-3.1933,-3.2225,0.0,-3.2865,-3.2865,-3.2823,-3.2706,0.0,-3.2331,-3.2284,-3.2226,-3.1931,-3.1928,-3.2735,-3.2111,-3.1497,-3.1641,-3.1013,-3.0389,-3.0011,-3.0133,-3.0269,-3.0269,-3.0837,-3.1306,-3.139,-3.2509,-3.3475,-3.405,-3.4594,-3.4899,-3.4899,-3.4899,-3.5316,-3.6172,-3.6172,-3.6643,-3.7577,-3.7577,-3.7577,-3.7577,-3.7577,-3.7577,-3.7577,-3.7577,-3.7577,-3.7577,-3.7577,-3.7577,-3.7577,-3.7577,-3.7577,-3.7577,-3.7577,-3.7577,-3.7631,-3.7685,-3.781,-3.8018,0.0,0.0,0.0,0.0,0.0,0.0,0.0,0.0,0.0,0.0,0.0,0.0,0.0,0.0,0.0,0.0,0.0,0.0,0.0,0.0,0.0,0.0,0.0,0.0,-2.9531,-2.9515,-2.9665,-2.9918,-2.9918,-2.9918,-2.9902,-3.006,-3.013,-3.0113,-3.0284,-3.0368,0.0,0.0,0.0,0.0,-3.0518,0.0,0.0,0.0,0.0,0.0,-3.1397,-3.1283,0.0,-3.1128,-3.1167,-3.1189,0.0,0.0,0.0,0.0,-3.0874,-3.0435,-3.0673,-3.1405,-3.2092,-3.2092,-3.1917,-3.1668,-3.1387,0.0,-3.1032,-3.1166,-3.1222,-3.1467,-3.2082,-3.1986,-3.1607,-3.1071,-3.0733,-3.0269,-2.9566,-2.9827,-3.0147,-3.045,-3.0837,-3.1131,-3.1392,-3.254,-3.3355,-3.3646,-3.4431,-3.4899,-3.4899,-3.4899,-3.5316,-3.6172,-3.6172,-3.6643,-3.7577,-3.7577,-3.7577,-3.7577,-3.7577,-3.7577,-3.7577,-3.7577,-3.7577,-3.7577,-3.7577,-3.7577,-3.7577,-3.7577,-3.7577,-3.7577,-3.7577,-3.7685,-3.7774,-3.7774,-3.7898,-3.8018,0.0,0.0,0.0,0.0,0.0,0.0,0.0,0.0,0.0,0.0,0.0,0.0,0.0,0.0,0.0,0.0,0.0,0.0,0.0,0.0,0.0,0.0,0.0,-2.8448,-2.8935,-2.8935,-2.9166,-2.9621,-2.9665,-2.971,-2.977,-2.977,-2.9814,-2.9918,-2.9918,-2.9918,0.0,0.0,-2.9918,-2.9902,-3.0156,0.0,0.0,0.0,0.0,0.0,0.0,0.0,0.0,-3.0683,-3.0683,-3.0683,-3.0584,0.0,0.0,0.0,0.0,0.0,-2.9393,-3.0369,-3.1266,-3.1304,-3.0999,-3.0606,-3.0269,0.0,0.0,0.0,0.0,-3.0947,-3.1366,-3.1763,-3.1622,-3.051,-3.0329,-3.0208,-2.969,-2.9766,-2.995,-3.045,-3.0584,-3.0837,-3.1278,-3.2446,-3.3182,-3.3182,-3.4153,-3.4717,-3.4717,-3.4618,-3.498,-3.5845,-3.5845,-3.6347,-3.7398,-3.7523,-3.7577,-3.7577,-3.7577,-3.7577,-3.7577,-3.7577,-3.7577,-3.7577,-3.7577,-3.7577,-3.7577,-3.7577,-3.7577,-3.7577,-3.7577,-3.7757,-3.7949,-3.7984,-3.7984,-3.8052,0.0,0.0,0.0,0.0,0.0,0.0,0.0,0.0,0.0,0.0,0.0,0.0,0.0,0.0,0.0,0.0,0.0,0.0,0.0,0.0,0.0,0.0,-2.7464,-2.7997,-2.8094,-2.8192,-2.8273,-2.8369,-2.848,-2.8779,-2.9227,-2.9227,-2.947,-2.9918,-2.9918,-2.9918,-2.9918,-2.9918,-2.9918,-2.9902,-2.9946,0.0,0.0,0.0,0.0,0.0,0.0,0.0,0.0,-3.0033,-3.006,-3.0044,-2.9649,0.0,0.0,0.0,0.0,0.0,-2.8951,-2.9166,-2.9361,-2.9451,-2.9451,-2.9361,-2.9332,-2.9241,0.0,0.0,-3.0233,-3.0114,-3.1873,-3.0998,-2.986,-2.969,-2.9628,-2.9827,-3.0269,-3.0837,-3.1029,-3.0584,-3.1029,-3.1161,-3.0703,-3.2195,-3.3182,-3.3182,-3.3681,-3.3955,-3.3955,-3.3375,-3.3436,-3.4312,-3.4352,-3.5039,-3.6577,-3.7255,-3.7577,-3.7577,-3.7577,-3.7577,-3.7577,-3.7577,-3.7577,-3.7577,-3.7577,-3.7577,-3.7577,-3.7577,-3.7577,-3.7577,-3.7577,-3.7631,-3.7685,-3.7915,-3.7984,-3.8086,0.0,0.0,0.0,0.0,0.0,0.0,0.0,0.0,0.0,0.0,0.0,0.0,0.0,0.0,0.0,0.0,0.0,0.0,0.0,0.0,0.0,-2.6056,-2.6563,-2.7004,-2.7464,-2.76,-2.7834,-2.8128,-2.824,-2.8448,-2.8685,-2.8685,-2.8795,-2.9028,-2.9028,-2.9182,-2.947,-2.947,-2.9621,-2.9918,0.0,0.0,0.0,0.0,0.0,0.0,0.0,0.0,0.0,0.0,-2.971,-2.9454,-2.9273,0.0,0.0,0.0,0.0,0.0,-2.7769,-2.767,-2.755,-2.7253,-2.7966,-2.8528,-2.7871,-2.7769,-2.8062,-2.9077,-2.8799,-2.9055,-3.1023,-3.036,-2.9628,-2.995,-2.9456,-2.9331,-3.0329,-3.045,-3.045,-3.0524,-3.0777,-3.0822,-3.0513,-3.1767,-3.2471,-3.2092,-3.2769,-3.3193,-3.3193,-3.2862,-3.2988,-3.3646,-3.3888,-3.4492,-3.5473,-3.6008,-3.6738,-3.7577,-3.7577,-3.7577,-3.7577,-3.7577,-3.7577,-3.7577,-3.7577,-3.7577,-3.7577,-3.7577,-3.7577,-3.7577,-3.7577,-3.7685,-3.7863,-3.8119,-3.8364,-3.8597,0.0,0.0,0.0,0.0,0.0,0.0,0.0,0.0,0.0,0.0,0.0,0.0,0.0,0.0,0.0,0.0,0.0,0.0,0.0,0.0,-2.5481,-2.5481,-2.5481,-2.5906,-2.6864,-2.7004,-2.7297,-2.7735,-2.7864,-2.8012,-2.8094,-2.824,-2.8288,-2.8288,-2.8288,-2.8543,-2.8919,-2.8919,-2.9136,-2.9531,0.0,0.0,0.0,0.0,0.0,0.0,0.0,0.0,0.0,0.0,0.0,0.0,0.0,0.0,0.0,-2.7459,-2.7039,-2.6509,-2.6433,-2.6347,-2.6122,-2.5508,-2.6544,-2.747,-2.6605,-2.6453,-2.6694,-2.754,-2.7561,-2.8057,-2.9918,-2.9704,-2.9518,-3.0147,-2.9393,-2.9219,-3.0524,-3.0269,-3.009,-3.0425,-3.0484,-3.0455,-3.0287,-3.1248,-3.1665,-3.1144,-3.1938,-3.2431,-3.2431,-3.2282,-3.2383,-3.2831,-3.3237,-3.3751,-3.4408,-3.4782,-3.5739,-3.7309,-3.7309,-3.7398,-3.7577,-3.7577,-3.7577,-3.7577,-3.7577,-3.7577,-3.7577,-3.7577,-3.7577,-3.7577,-3.7577,-3.7757,-3.8018,-3.8219,-3.8615,-3.8989,0.0,0.0,0.0,0.0,0.0,0.0,0.0,0.0,0.0,0.0,0.0,0.0,0.0,0.0,0.0,0.0,0.0,0.0,0.0,0.0,-2.4137,-2.4137,-2.4137,-2.4781,-2.6165,-2.6272,-2.6472,-2.6616,-2.6803,-2.71,-2.7565,-2.8046,-2.8288,-2.8288,-2.8288,-2.8336,-2.8352,-2.8352,-2.84,-2.84,-2.84,0.0,0.0,0.0,0.0,0.0,0.0,0.0,0.0,0.0,0.0,0.0,0.0,0.0,-2.6455,-2.5435,-2.5099,-2.5068,-2.5301,-2.5398,-2.5342,-2.4908,-2.5398,-2.5946,-2.5892,-2.5837,-2.6188,-2.7425,-2.7221,-2.7366,-2.9232,-2.903,-2.8776,-2.9442,-2.9504,-2.9889,-3.1219,-3.1409,-3.117,-3.0586,-3.0511,-3.0272,-2.9699,-3.0552,-3.116,-3.1097,-3.1453,-3.1702,-3.1702,-3.104,-3.0866,-3.1235,-3.1661,-3.2416,-3.3564,-3.3983,-3.4954,-3.6488,-3.6488,-3.6881,-3.7577,-3.7577,-3.7577,-3.7577,-3.7577,-3.7577,-3.7577,-3.7577,-3.7577,-3.7577,-3.7577,-3.7757,-3.8018,-3.8018,-3.835,-3.8822,0.0,0.0,0.0,0.0,0.0,0.0,0.0,0.0,0.0,0.0,0.0,0.0,0.0,0.0,0.0,0.0,0.0,0.0,0.0,0.0,-2.4021,-2.4021,-2.4021,-2.4323,-2.4978,-2.5425,-2.5865,-2.6379,-2.6674,-2.687,-2.7063,-2.7255,-2.7357,-2.7357,-2.7357,-2.753,-2.7799,-2.7799,-2.7997,-2.8288,-2.8288,-2.8288,0.0,0.0,0.0,0.0,0.0,0.0,0.0,0.0,-2.7819,-2.7149,0.0,-2.6094,-2.5482,-2.5034,-2.4871,-2.4838,-2.4576,-2.4681,-2.4738,-2.4118,-2.4363,-2.4765,-2.4765,-2.5048,-2.5431,-2.5892,-2.6096,-2.6591,-2.7994,-2.8403,-2.8597,-2.8839,-2.9205,-2.9685,-3.0178,-3.0597,-3.0657,-3.0013,-2.9924,-2.9684,-2.9026,-2.9855,-3.0275,-2.9864,-3.0538,-3.094,-3.094,-3.0634,-3.0551,-3.0699,-3.1338,-3.1942,-3.2383,-3.3015,-3.3901,-3.4989,-3.5935,-3.656,-3.6863,-3.7362,-3.7577,-3.7577,-3.7484,-3.7484,-3.7577,-3.7484,-3.7484,-3.7577,-3.7577,-3.7757,-3.7984,-3.7984,-3.8219,-3.859,0.0,0.0,0.0,0.0,0.0,0.0,0.0,0.0,0.0,0.0,0.0,0.0,0.0,0.0,0.0,0.0,0.0,0.0,0.0,-2.3458,-2.3458,-2.3458,-2.3458,-2.3577,-2.393,-2.4496,-2.5119,-2.5756,-2.6204,-2.6539,-2.6712,-2.6779,-2.6779,-2.6779,-2.6779,-2.6974,-2.7291,-2.7291,-2.7479,-2.783,-2.783,-2.783,0.0,0.0,0.0,0.0,0.0,0.0,0.0,0.0,0.0,0.0,0.0,0.0,0.0,0.0,-2.4302,-2.4216,-2.3909,-2.3943,-2.4073,-2.3628,-2.3819,-2.4067,-2.4067,-2.4274,-2.4596,-2.4908,-2.5586,-2.6282,-2.6818,-2.7445,-2.7951,-2.7877,-2.8512,-2.9029,-2.9218,-2.9802,-2.9983,-2.934,-2.9265,-2.9011,-2.8338,-2.9144,-2.9564,-2.9121,-2.9984,-3.0485,-3.0485,-3.0485,-3.0443,-3.0401,-3.1123,-3.1528,-3.1623,-3.2369,-3.3022,-3.3624,-3.4957,-3.5722,-3.599,-3.6791,-3.7093,-3.7037,-3.7135,-3.7297,-3.7392,-3.7259,-3.7334,-3.7521,-3.7521,-3.7649,-3.788,-3.788,-3.8086,-3.8415,0.0,0.0,0.0,0.0,0.0,0.0,0.0,0.0,0.0,0.0,0.0,0.0,0.0,0.0,0.0,0.0,0.0,0.0,-2.2247,-2.2197,-2.2197,-2.2197,-2.2197,-2.2469,-2.3088,-2.3669,-2.4137,-2.4526,-2.5273,-2.5906,-2.651,-2.6712,-2.6779,-2.6779,-2.6779,-2.6779,-2.6779,-2.6779,-2.6779,-2.6779,-2.6779,-2.6779,-2.6779,0.0,0.0,0.0,0.0,0.0,0.0,0.0,-2.5357,0.0,0.0,0.0,0.0,0.0,-2.2989,-2.3031,-2.3107,-2.3271,-2.3403,-2.3403,-2.3641,-2.3891,-2.3891,-2.3654,-2.3748,-2.4797,-2.5876,-2.6426,-2.5753,-2.6231,-2.6656,-2.658,-2.7193,-2.791,-2.8566,-2.9222,-2.9325,-2.8667,-2.8592,-2.8323,-2.7685,-2.8511,-2.9074,-2.912,-2.9984,-3.0485,-3.0417,-3.0417,-3.0333,-3.0189,-3.0699,-3.1184,-3.1497,-3.2039,-3.2386,-3.2606,-3.3385,-3.4199,-3.4995,-3.5738,-3.5982,-3.5849,-3.6619,-3.697,-3.6987,-3.6987,-3.7105,-3.7297,-3.7297,-3.741,-3.7577,-3.7631,-3.7949,-3.8382,0.0,0.0,0.0,0.0,0.0,0.0,0.0,0.0,0.0,0.0,0.0,0.0,0.0,0.0,0.0,0.0,0.0,0.0,-2.2197,-2.2197,-2.2197,-2.2197,-2.2197,-2.2309,-2.2469,-2.2653,-2.3695,-2.5646,-2.5934,-2.615,-2.6379,-2.6447,-2.65,-2.6578,-2.6578,-2.6659,-2.6779,-2.6779,-2.6779,-2.6779,-2.6779,-2.6779,-2.6779,0.0,0.0,0.0,0.0,0.0,0.0,0.0,0.0,0.0,0.0,0.0,0.0,-2.3053,-2.2989,-2.3031,-2.3107,-2.3271,-2.3403,-2.3403,-2.3582,-2.3688,-2.3688,-2.4116,-2.4702,-2.5273,-2.532,-2.5307,-2.5396,-2.5702,-2.5894,-2.59,-2.6922,-2.7581,-2.7329,-2.8203,-2.8637,-2.7964,-2.7874,-2.7936,-2.8091,-2.8685,-2.9212,-2.9438,-3.0044,-3.0359,-3.029,-3.0274,-3.0231,-3.0189,-3.0617,-3.1027,-3.1338,-3.1804,-3.2144,-3.2386,-3.2615,-3.316,-3.397,-3.4763,-3.5359,-3.5794,-3.5885,-3.6361,-3.6987,-3.6987,-3.7027,-3.7143,-3.7466,-3.7613,-3.7703,-3.8052,-3.8252,-3.8415,0.0,0.0,0.0,0.0,0.0,0.0,0.0,0.0,0.0,0.0,0.0,0.0,0.0,0.0,0.0,0.0,0.0,0.0,0.0,0.0,-2.2197,-2.2197,-2.2197,-2.2309,-2.2531,-2.2592,-2.3458,-2.5245,-2.5175,-2.5356,-2.5879,-2.5988,-2.619,-2.651,-2.6578,-2.6712,-2.6779,-2.6553,-2.6447,-2.6394,-2.615,-2.6096,-2.6096,0.0,0.0,0.0,0.0,0.0,0.0,0.0,0.0,0.0,0.0,0.0,0.0,-2.3335,-2.3362,-2.3406,-2.3463,-2.3378,-2.3271,-2.3271,-2.339,-2.3573,-2.391,-2.4232,-2.4473,-2.4515,-2.457,-2.4583,-2.4555,-2.4882,-2.5159,-2.5158,-2.6095,-2.6821,-2.6732,-2.7568,-2.8038,-2.767,-2.7745,-2.7978,-2.824,-2.8919,-2.9393,-2.9572,-3.0044,-3.0274,-3.0103,-3.0103,-3.0103,-3.0076,-3.0468,-3.0845,-3.1218,-3.1654,-3.1984,-3.2232,-3.2232,-3.2441,-3.2841,-3.3719,-3.4277,-3.4673,-3.5161,-3.5896,-3.6731,-3.6731,-3.6771,-3.6908,-3.7203,-3.7466,-3.7667,-3.7984,-3.8252,-3.851,0.0,0.0,0.0,0.0,0.0,0.0,0.0,0.0,0.0,0.0,0.0,0.0,0.0,0.0,0.0,0.0,0.0,0.0,0.0,0.0,-2.2197,-2.2197,-2.2197,-2.2469,-2.3027,-2.3027,-2.3267,-2.3846,-2.3492,-2.3962,-2.5119,-2.5342,-2.5783,-2.6283,-2.6486,-2.6606,-2.6553,-2.6002,-2.577,-2.5715,-2.5189,-2.5007,-2.5077,-2.5605,0.0,0.0,0.0,0.0,0.0,0.0,0.0,0.0,0.0,-2.3426,-2.3912,-2.39,-2.4003,-2.4095,-2.4076,-2.3721,-2.3245,-2.3138,-2.3271,-2.353,-2.4208,-2.3927,-2.3463,-2.3092,-2.3761,-2.417,-2.3492,-2.393,-2.4387,-2.4371,-2.5063,-2.5837,-2.651,-2.7152,-2.7575,-2.7575,-2.7978,-2.8304,-2.8336,-2.9104,-2.9633,-2.9633,-2.9957,-3.0103,-2.9973,-2.9973,-2.9973,-2.9946,-3.0274,-3.0699,-3.1123,-3.1542,-3.1856,-3.2073,-3.2073,-3.1982,-3.1817,-3.2676,-3.3023,-3.299,-3.4456,-3.5508,-3.6197,-3.6197,-3.6392,-3.6643,-3.6725,-3.7048,-3.754,-3.7595,-3.8034,-3.8585,0.0,0.0,0.0,0.0,0.0,0.0,0.0,0.0,0.0,0.0,0.0,0.0,0.0,0.0,0.0,0.0,0.0,0.0,0.0,0.0,-2.2197,-2.2197,-2.2197,-2.2247,-2.242,-2.242,-2.2482,-2.2592,-2.3446,-2.4021,-2.4253,-2.4509,-2.4624,-2.4794,-2.4908,-2.5007,-2.4993,-2.4881,-2.4867,-2.4937,-2.4811,-2.4881,-2.5007,-2.5133,-2.5189,0.0,0.0,0.0,0.0,0.0,0.0,0.0,-2.3688,-2.3775,-2.3912,-2.39,-2.4263,-2.4638,-2.4191,-2.4337,-2.4323,-2.3365,-2.3138,-2.3236,-2.3336,-2.3286,-2.3311,-2.3801,-2.3783,-2.353,-2.3223,-2.3419,-2.3662,-2.3641,-2.4738,-2.5673,-2.5783,-2.6774,-2.7437,-2.7437,-2.7845,-2.8255,-2.8591,-2.9196,-2.9677,-2.9886,-2.9973,-3.0033,-2.9902,-2.9902,-3.0017,-3.0182,-3.0309,-3.0642,-3.1257,-3.1334,-3.1542,-3.1856,-3.1856,-3.1837,-3.18,-3.1992,-3.2389,-3.2955,-3.3921,-3.4749,-3.5439,-3.5439,-3.5825,-3.6426,-3.6781,-3.6999,-3.719,-3.7524,-3.8011,-3.8436,0.0,0.0,0.0,0.0,0.0,0.0,0.0,0.0,0.0,0.0,0.0,0.0,0.0,0.0,0.0,0.0,0.0,0.0,0.0,0.0,0.0,-2.2197,-2.2197,-2.2197,-2.2197,-2.2197,-2.2197,-2.2197,-2.2823,-2.328,-2.3551,-2.3741,-2.3989,-2.4292,-2.4439,-2.4483,-2.4469,-2.4182,-2.4137,-2.4137,-2.3904,-2.3859,-2.393,-2.4266,-2.4381,-2.4359,-2.4382,0.0,0.0,0.0,0.0,0.0,0.0,0.0,-2.535,-2.5635,-2.5997,-2.6218,-2.5969,-2.5877,-2.5576,-2.4305,-2.3568,-2.3078,-2.3078,-2.3078,-2.3213,-2.3611,-2.346,-2.321,-2.3138,-2.3198,-2.3497,-2.4176,-2.4894,-2.5618,-2.6283,-2.6893,-2.7284,-2.7284,-2.7944,-2.8448,-2.8685,-2.9348,-2.9826,-2.9973,-2.9989,-2.9946,-2.9918,-2.9918,-2.9973,-3.0087,-3.0393,-3.0723,-3.1044,-3.1372,-3.1634,-3.18,-3.18,-3.18,-3.18,-3.18,-3.2196,-3.2921,-3.3335,-3.3955,-3.4697,-3.5042,-3.5421,-3.5842,-3.6641,-3.7076,-3.7285,-3.772,-3.818,-3.8597,0.0,0.0,0.0,0.0,0.0,0.0,0.0,0.0,0.0,0.0,0.0,0.0,0.0,0.0,0.0,0.0,0.0,0.0,0.0,0.0,0.0,-2.2197,-2.2197,-2.2197,-2.2197,-2.2197,-2.2197,-2.2197,-2.2197,-2.2469,-2.298,-2.3088,-2.3446,-2.3943,-2.4079,-2.4124,-2.4066,-2.3564,-2.3339,-2.3339,-2.2957,-2.28,-2.28,-2.3352,-2.3518,-2.3467,-2.3738,-2.4108,-2.4515,-2.4135,0.0,0.0,0.0,0.0,-2.7002,-2.7523,-2.7824,-2.7909,-2.785,-2.7367,-2.6619,-2.5595,-2.4377,-2.3419,-2.3271,-2.3198,-2.3138,-2.3258,-2.3198,-2.3078,-2.3078,-2.3078,-2.3531,-2.4781,-2.5119,-2.5618,-2.6841,-2.713,-2.7181,-2.7269,-2.8125,-2.8685,-2.8779,-2.9499,-2.9973,-2.9973,-2.9946,-2.9918,-2.9918,-2.9918,-2.9946,-3.006,-3.0518,-3.0845,-3.0965,-3.1504,-3.18,-3.18,-3.18,-3.18,-3.18,-3.18,-3.2127,-3.2714,-3.2714,-3.3162,-3.3921,-3.4542,-3.4956,-3.529,-3.6242,-3.6932,-3.7432,-3.7756,-3.8216,-3.8713,0.0,0.0,0.0,0.0,0.0,0.0,0.0,0.0,0.0,0.0,0.0,0.0,0.0,0.0,0.0,0.0,0.0,0.0,-2.1761,0.0,0.0,-2.2197,-2.2197,-2.2197,-2.2197,-2.2197,-2.2197,-2.2197,-2.2197,-2.2247,-2.2309,-2.2469,-2.2531,-2.2482,-2.2592,-2.2592,-2.2482,-2.242,-2.2482,-2.2531,-2.2482,-2.2555,-2.2678,-2.28,-2.286,-2.2896,-2.3546,-2.3858,-2.4019,-2.4426,-2.5025,0.0,0.0,0.0,-2.7443,-2.7475,-2.8006,-2.8497,-2.7967,-2.7367,-2.6859,-2.6634,-2.5662,-2.4614,-2.406,-2.3543,-2.3245,-2.3839,-2.3484,-2.3078,-2.3078,-2.3078,-2.3365,-2.4118,-2.4794,-2.5453,-2.6176,-2.6698,-2.7181,-2.7595,-2.8174,-2.8654,-2.9028,-2.9633,-2.9989,-2.9902,-2.9918,-2.9918,-2.9918,-2.9918,-3.0146,-3.0683,-3.0764,-3.1083,-3.1671,-3.1763,-3.18,-3.18,-3.18,-3.18,-3.18,-3.18,-3.1852,-3.1955,-3.1955,-3.2369,-3.3076,-3.3179,-3.399,-3.5197,-3.5382,-3.6063,-3.6978,-3.7055,-3.7578,-3.8296,0.0,0.0,0.0,0.0,0.0,0.0,0.0,0.0,0.0,0.0,0.0,0.0,0.0,0.0,0.0,-2.1698,-2.1698,-2.1761,-2.1812,-2.1874,-2.1999,-2.2197,-2.2197,-2.2197,-2.2197,-2.2197,-2.2197,-2.2197,-2.2197,-2.2197,-2.2197,-2.2247,-2.2247,-2.2197,-2.2247,-2.2247,-2.2197,-2.2197,-2.2247,-2.2309,-2.2359,-2.2432,-2.2445,-2.2494,-2.2494,-2.2494,-2.2884,-2.322,-2.3603,-2.4327,-2.5195,-2.6076,-2.6724,0.0,0.0,0.0,-2.9289,-2.955,-2.9432,-2.8626,-2.7847,-2.7453,-2.6442,-2.5346,-2.4758,-2.4394,-2.4279,-2.4567,-2.4394,-2.415,-2.415,-2.3884,-2.4002,-2.4978,-2.5077,-2.5412,-2.6365,-2.6712,-2.7078,-2.753,-2.8061,-2.8591,-2.9028,-2.9605,-2.9946,-2.9918,-2.9918,-2.9918,-2.9918,-2.9918,-3.0017,-3.03,-3.0435,-3.0747,-3.124,-3.1428,-3.1634,-3.18,-3.18,-3.18,-3.18,-3.18,-3.18,-3.18,-3.18,-3.1972,-3.2317,-3.2731,-3.33,-3.4029,-3.5114,-3.5832,-3.6397,-3.7272,-3.7826,-3.8183,0.0,0.0,0.0,0.0,0.0,0.0,0.0,0.0,0.0,0.0,0.0,0.0,0.0,0.0,0.0,0.0,-2.1572,-2.1624,-2.1737,-2.18,-2.1937,-2.2135,-2.2185,-2.2197,-2.2197,-2.2197,-2.2197,-2.2197,-2.2197,-2.2197,-2.2197,-2.2197,-2.2197,-2.2197,-2.2197,-2.2197,-2.2197,-2.2197,-2.2197,-2.2197,-2.2309,-2.2309,-2.2197,-2.2309,-2.2309,-2.2185,-2.2359,-2.2788,-2.3364,-2.3914,-2.514,-2.6622,-2.7475,-2.8441,0.0,0.0,0.0,-3.0387,-3.0568,-2.9791,-2.8805,-2.8181,-2.7055,-2.5972,-2.5382,-2.5133,-2.5063,-2.5189,-2.5245,-2.53,-2.5412,-2.4851,-2.4694,-2.5729,-2.5536,-2.5632,-2.6803,-2.6974,-2.7203,-2.7799,-2.824,-2.8732,-2.9273,-2.9665,-2.9918,-2.9918,-2.9918,-2.9918,-2.9918,-2.9973,-3.006,-3.0146,-3.041,-3.0723,-3.1044,-3.1295,-3.1542,-3.18,-3.18,-3.18,-3.18,-3.18,-3.18,-3.18,-3.18,-3.18,-3.1834,-3.2386,-3.2769,-3.3142,-3.4516,-3.5425,-3.6072,-3.7218,-3.7853,-3.8153,0.0,0.0,0.0,0.0,0.0,0.0,0.0,0.0,0.0,0.0,0.0,0.0,-2.1221,-2.1233,-2.1221,-2.1221,-2.1221,-2.1285,-2.1388,-2.1612,-2.1761,-2.1937,-2.2123,0.0,-2.2197,-2.2197,-2.2197,-2.2197,-2.2197,-2.2197,-2.2197,-2.2197,-2.2197,-2.2197,-2.2197,-2.2197,-2.2197,-2.2197,-2.2197,-2.2197,-2.2197,-2.2197,-2.2197,-2.2197,-2.2197,-2.2185,-2.2359,-2.2748,-2.3238,-2.3262,-2.4874,-2.6863,-2.6788,-2.8143,-2.9842,0.0,0.0,0.0,-3.0568,-3.0103,-2.9407,-2.8784,-2.7711,-2.661,-2.5965,-2.5425,-2.5133,-2.5729,-2.5839,-2.6002,-2.6606,-2.5756,-2.5133,-2.5784,-2.5893,-2.6244,-2.7312,-2.7464,-2.7864,-2.8889,-2.9028,-2.9273,-2.9814,-2.9858,-2.9918,-2.9918,-2.9918,-2.9918,-2.9918,-3.0113,-3.0418,-3.0764,-3.1083,-3.1428,-3.1746,-3.1763,-3.18,-3.18,-3.18,-3.18,-3.18,-3.18,-3.18,-3.18,-3.18,-3.18,-3.18,-3.1834,-3.247,-3.3351,-3.3124,-3.4366,-3.6275,-3.6452,-3.718,-3.8153,0.0,0.0,0.0,0.0,0.0,0.0,0.0,0.0,0.0,0.0,0.0,0.0,0.0,-2.1221,-2.1221,-2.1221,-2.1221,-2.1285,-2.1388,-2.1463,-2.1612,-2.1749,-2.1937,-2.1999,-2.1999,-2.2123,-2.2197,-2.2197,-2.2197,-2.2197,-2.2197,-2.2197,-2.2197,-2.2197,-2.2197,-2.2197,-2.2197,-2.2197,-2.2197,-2.2197,-2.2197,-2.2197,-2.2197,-2.2197,-2.2197,-2.2234,-2.2633,-2.2938,-2.314,-2.3803,-2.493,-2.6165,-2.6987,-2.8021,-2.9093,-2.9685,-3.0007,-3.0129,-3.0219,-3.0168,-2.9896,-2.932,-2.8555,-2.7866,-2.7193,-2.6557,-2.6218,-2.6447,-2.65,-2.6553,-2.6779,-2.6111,-2.577,-2.6394,-2.6165,-2.6244,-2.7363,-2.7515,-2.7898,-2.8982,-2.8679,-2.8589,-2.9119,-2.8757,-2.8565,-2.8739,-2.9222,-2.9584,-2.9773,-3.031,-3.0683,-3.0804,-3.0925,-3.114,-3.1466,-3.1709,-3.18,-3.18,-3.18,-3.18,-3.18,-3.18,-3.18,-3.18,-3.18,-3.18,-3.18,-3.18,-3.2029,-3.2435,-3.2978,-3.372,-3.4641,-3.6143,-3.697,-3.7479,0.0,0.0,0.0,0.0,0.0,0.0,0.0,0.0,0.0,-2.1221,0.0,0.0,0.0,0.0,-2.1221,-2.1221,-2.1221,-2.1221,-2.1336,-2.1388,-2.1463,-2.1624,-2.1749,-2.1874,-2.1925,-2.2061,-2.2123,-2.2197,-2.2197,-2.2197,-2.2197,-2.2197,-2.2197,-2.2197,-2.2197,-2.2197,-2.2197,-2.2197,-2.2197,-2.2197,-2.2197,-2.2197,-2.2197,-2.2197,-2.2306,-2.2498,-2.2859,-2.3207,-2.3604,-2.429,-2.5117,-2.6072,-2.7167,-2.8048,-2.8726,-2.9299,-2.9572,-2.9647,-2.9736,-2.9843,-2.9774,-2.9418,-2.8973,-2.845,-2.7758,-2.735,-2.7041,-2.6823,-2.6779,-2.6779,-2.6779,-2.6447,-2.634,-2.6727,-2.6447,-2.6578,-2.7615,-2.775,-2.8066,-2.8894,-2.8554,-2.8318,-2.8408,-2.7996,-2.781,-2.8073,-2.8613,-2.9013,-2.9326,-2.9878,-3.0263,-3.0378,-3.0378,-3.059,-3.109,-3.131,-3.1558,-3.18,-3.18,-3.18,-3.18,-3.18,-3.18,-3.18,-3.18,-3.18,-3.18,-3.18,-3.1856,-3.2036,-3.2631,-3.316,-3.3776,-3.537,-3.6338,-3.7043,0.0,0.0,0.0,0.0,0.0,0.0,0.0,0.0,0.0,-2.1221,0.0,0.0,0.0,0.0,0.0,-2.1221,-2.1221,-2.1233,-2.1244,-2.136,-2.1423,-2.1434,-2.1659,-2.1796,-2.191,0.0,-2.2035,-2.2209,-2.2209,-2.2209,-2.2247,-2.2197,-2.2197,-2.2247,-2.2197,-2.2197,-2.2197,-2.2197,-2.2197,-2.2197,-2.2197,-2.2197,-2.2197,-2.2209,-2.2534,-2.2991,-2.3015,-2.3676,-2.4518,-2.4542,-2.5362,-2.6483,-2.7258,-2.8085,-2.8859,-2.8859,-2.9021,-2.9183,0.0,0.0,0.0,-2.9095,-2.8755,-2.8239,-2.7677,-2.7628,-2.7549,-2.691,-2.6779,-2.6779,-2.6779,-2.6832,-2.6832,-2.6832,-2.6832,-2.7167,-2.8158,-2.8288,-2.8436,-2.8801,-2.8773,-2.8482,-2.7769,-2.7672,-2.7745,-2.8046,-2.8063,-2.8235,-2.8574,-2.8854,-2.9158,-2.9506,-2.9506,-2.9886,-3.0644,-3.0662,-3.1024,-3.1765,-3.1765,-3.1765,-3.18,-3.18,-3.18,-3.18,-3.18,-3.18,-3.18,-3.18,-3.1984,-3.2249,-3.1929,-3.2686,-3.3957,-3.399,-3.522,-3.6898,0.0,0.0,0.0,0.0,0.0,0.0,0.0,0.0,-2.1221,0.0,0.0,0.0,-2.1221,-2.1221,-2.1221,-2.1221,-2.1221,-2.1319,-2.1686,-2.1709,-2.1935,-2.2304,-2.2515,-2.2647,-2.2845,0.0,0.0,0.0,0.0,0.0,0.0,0.0,0.0,-2.2811,-2.242,-2.2197,-2.2197,-2.2197,-2.2197,-2.2197,-2.2197,-2.2197,-2.2234,-2.2618,-2.2859,-2.3087,-2.3821,-2.4278,-2.4578,-2.4963,-2.5332,-2.5718,-2.6514,-2.7412,-2.8074,-2.8074,-2.8457,-2.881,-2.881,0.0,0.0,0.0,0.0,0.0,-2.814,-2.7765,-2.7371,-2.6722,-2.6712,-2.6779,-2.6779,-2.7063,-2.7291,-2.7291,-2.7291,-2.753,-2.8207,-2.8638,-2.9057,-2.9539,-2.8644,-2.7931,-2.7721,-2.6961,-2.6566,-2.6842,-2.7595,-2.8164,-2.8425,-2.9025,-2.9386,-2.9506,-2.9316,-2.9401,-2.9834,-2.9642,-2.9911,-3.0626,-3.0881,-3.1156,-3.1466,-3.1671,-3.18,-3.18,-3.18,-3.18,-3.18,-3.18,-3.1856,-3.1965,-3.2091,-3.2424,-3.2892,-3.397,-3.4708,-3.5393,0.0,0.0,0.0,0.0,0.0,0.0,0.0,-2.1702,-2.1221,0.0,0.0,0.0,-2.1221,-2.1353,-2.1479,-2.1479,-2.1675,-2.1927,-2.2226,-2.2237,-2.2375,-2.2662,-2.2741,-2.3001,-2.3471,0.0,0.0,0.0,0.0,0.0,0.0,0.0,0.0,-2.3088,-2.2408,-2.2123,-2.2185,-2.2123,-2.2123,-2.2209,-2.2426,-2.2522,-2.2582,-2.3111,-2.3436,-2.3701,-2.4302,-2.4518,-2.4602,-2.5131,-2.5378,-2.5524,-2.6297,-2.6733,-2.7065,-2.7311,-2.7818,-2.831,-2.831,-2.8989,-2.9713,-2.9713,0.0,0.0,-2.8397,-2.8194,-2.7893,-2.6818,-2.7049,-2.7357,-2.7152,-2.7479,-2.7849,-2.7849,-2.7997,-2.8304,-2.8591,-2.8889,-2.9162,-2.9394,-2.8401,-2.7591,-2.7316,-2.6515,-2.6118,-2.6383,-2.7063,-2.7639,-2.7937,-2.8351,-2.8508,-2.8373,-2.8237,-2.8321,-2.8715,-2.8539,-2.8839,-2.9583,-3.0071,-3.052,-3.0874,-3.135,-3.1671,-3.18,-3.18,-3.18,-3.18,-3.18,-3.18,-3.1837,-3.2037,-3.2197,-3.2439,-3.3409,-3.4099,-3.4685,0.0,0.0,0.0,0.0,0.0,0.0,0.0,-2.1666,-2.1394,0.0,-2.1394,-2.1394,-2.1394,-2.1743,-2.2007,-2.2007,-2.2421,-2.2696,-2.2765,-2.2765,-2.2856,-2.2971,-2.2982,-2.33,-2.4026,0.0,0.0,0.0,0.0,0.0,0.0,0.0,0.0,0.0,0.0,-2.2085,-2.2282,-2.2083,-2.2181,-2.2402,-2.2811,-2.3015,-2.3123,-2.3652,-2.4097,-2.4446,-2.4494,-2.4482,-2.4506,-2.4975,-2.532,-2.5595,-2.6142,-2.6148,-2.5983,-2.6525,-2.7214,-2.7776,-2.7776,-2.8675,-2.9602,-2.9602,-2.9713,0.0,-2.8483,-2.8679,-2.8714,-2.7199,-2.7595,-2.8094,-2.7615,-2.7997,-2.8336,-2.84,-2.8842,-2.9182,-2.912,-2.9136,-2.9141,-2.8941,-2.8232,-2.7502,-2.6863,-2.6356,-2.6189,-2.6383,-2.6691,-2.6973,-2.7282,-2.725,-2.7105,-2.6825,-2.6741,-2.6944,-2.7458,-2.7439,-2.7808,-2.8528,-2.9219,-2.9736,-3.0116,-3.0832,-3.1342,-3.1746,-3.1746,-3.1763,-3.18,-3.18,-3.18,-3.18,-3.18,-3.1984,-3.2283,-3.2619,-3.34,-3.4371,-2.4112,0.0,0.0,0.0,0.0,0.0,0.0,-2.2441,-2.2386,-2.2386,-2.2386,-2.2386,-2.2386,-2.2478,-2.2524,-2.2524,-2.2616,-2.2857,-2.327,-2.3223,-2.3676,-2.4484,-2.4566,-2.4917,-2.5691,-2.5704,0.0,0.0,0.0,0.0,0.0,0.0,0.0,0.0,0.0,-2.2551,-2.2619,-2.2759,-2.2934,-2.3227,-2.2905,-2.3102,-2.3676,-2.4181,-2.4181,-2.3977,-2.4374,-2.4254,-2.3929,-2.4037,-2.4462,-2.4978,-2.5088,-2.5464,-2.5897,-2.6021,-2.6877,-2.7776,-2.7776,-2.8675,-2.9602,-2.9602,-2.9602,0.0,-2.8555,-2.8553,-2.8469,-2.7461,-2.7524,-2.7745,-2.7815,-2.824,-2.8685,-2.8935,-2.9364,-2.956,-2.9166,-2.947,-2.9722,-2.968,-2.869,-2.7882,-2.7527,-2.6972,-2.659,-2.6418,-2.6892,-2.7218,-2.7299,-2.7055,-2.6858,-2.6808,-2.6383,-2.6327,-2.6636,-2.6405,-2.6677,-2.7403,-2.7851,-2.8519,-2.9497,-2.9884,-3.0581,-3.1389,-3.1389,-3.1542,-3.18,-3.18,-3.18,-3.18,-3.18,-3.1819,-3.1929,-3.2283,-3.2725,-3.3275,-2.4491,0.0,0.0,0.0,0.0,0.0,0.0,0.0,-2.2685,-2.2685,-2.2685,-2.2685,-2.2685,-2.2903,-2.3064,-2.3064,-2.3282,-2.3546,-2.3798,-2.3821,-2.4128,-2.4933,-2.5004,-2.5429,-2.644,-2.644,-2.6506,0.0,0.0,0.0,0.0,0.0,0.0,0.0,-2.3941,-2.3344,-2.3587,-2.3144,-2.3266,-2.3727,-2.3656,-2.3838,-2.4169,-2.4422,-2.4362,-2.4145,-2.4145,-2.3989,-2.3725,-2.346,-2.3622,-2.3991,-2.458,-2.4845,-2.5077,-2.5715,-2.6778,-2.7776,-2.7776,-2.8675,-2.9602,-2.9602,-2.9789,0.0,0.0,-2.8931,-2.9,-2.7757,-2.7959,-2.8286,-2.811,-2.8559,-2.8997,-2.9273,-2.9531,-2.9665,-2.9515,-2.971,-2.9946,-3.0087,-2.9288,-2.8563,-2.8184,-2.7679,-2.725,-2.6893,-2.7122,-2.7299,-2.7299,-2.6973,-2.6758,-2.6607,-2.6208,-2.601,-2.601,-2.5881,-2.6003,-2.6363,-2.6911,-2.7531,-2.824,-2.9141,-2.9911,-3.0577,-3.1104,-3.1389,-3.1542,-3.1709,-3.18,-3.18,-3.18,-3.18,-3.1819,-3.2197,-3.2403,-3.2672,-2.504,0.0,0.0,0.0,0.0,0.0,0.0,0.0,-2.3098,-2.2972,-2.2972,-2.2972,-2.2972,-2.3339,-2.3521,-2.3521,-2.4019,-2.4334,-2.42,-2.4406,-2.4743,-2.5146,-2.5288,-2.5791,-2.685,-2.685,-2.7053,0.0,0.0,0.0,0.0,0.0,0.0,-2.6414,-2.4847,-2.4365,-2.4517,-2.3723,-2.3661,-2.4155,-2.4372,-2.445,-2.4369,-2.4273,-2.4246,-2.409,-2.364,-2.346,-2.34,-2.2967,-2.3001,-2.3355,-2.4365,-2.4518,-2.4553,-2.5605,-2.6778,-2.7776,-2.7776,-2.8675,-2.9602,-2.9727,-3.0021,-3.004,0.0,0.0,0.0,-2.8047,-2.8414,-2.8826,-2.8463,-2.8716,-2.9121,-2.938,-2.947,-2.9621,-2.9902,-2.9946,-3.006,-3.0251,-2.9766,-2.9224,-2.8858,-2.8313,-2.7827,-2.7351,-2.7299,-2.725,-2.7218,-2.6908,-2.6624,-2.6314,-2.6046,-2.5824,-2.5616,-2.5616,-2.5616,-2.5616,-2.6199,-2.6694,-2.7054,-2.8369,-2.9261,-2.9744,-3.0779,-3.1257,-3.1334,-3.1671,-3.18,-3.18,-3.18,-3.18,-3.1819,-3.2091,-3.2249,-3.2386,-2.572,-2.5733,0.0,0.0,0.0,0.0,0.0,0.0,-2.4566,-2.4089,-2.4028,-2.4028,-2.4028,-2.4074,-2.4108,-2.4108,-2.4564,-2.4743,-2.4261,-2.517,-2.5721,-2.5791,-2.622,-2.6782,-2.739,-2.739,-2.7456,0.0,0.0,0.0,0.0,0.0,0.0,-2.7063,-2.607,-2.5422,-2.4927,-2.5006,-2.4873,-2.4672,-2.4457,-2.4198,-2.4001,-2.3621,-2.3226,-2.2881,-2.2495,-2.2378,-2.2366,-2.2306,-2.2971,-2.3891,-2.4067,-2.4835,-2.5715,-2.5839,-2.6778,-2.7776,-2.7776,-2.8675,-2.9727,-3.0144,-3.0266,-3.016,-2.9669,0.0,-2.9493,-2.8526,0.0,-2.8541,-2.8637,0.0,0.0,-2.9121,-2.9335,-2.9605,-2.9941,-3.014,-3.0267,-3.0309,-2.9928,-2.966,-2.9671,-2.8653,-2.7827,-2.7351,-2.7299,-2.7169,-2.6858,-2.659,-2.6314,-2.6046,-2.5787,-2.5616,-2.5616,-2.5616,-2.5616,-2.5616,-2.5697,-2.6069,-2.6756,-2.7518,-2.8421,-2.9426,-3.0406,-3.1044,-3.1334,-3.1671,-3.18,-3.18,-3.18,-3.18,-3.18,-3.1819,-3.2055,-3.2335,-2.6321,-2.6321,-2.6361,0.0,0.0,0.0,0.0,0.0,-2.53,-2.4743,-2.4671,-2.4539,-2.4261,-2.42,-2.4334,-2.4671,-2.4874,-2.5087,-2.517,-2.5652,-2.607,-2.6358,-2.6577,-2.6918,-2.7456,-2.7523,-2.7523,-2.7523,-2.7523,0.0,0.0,0.0,0.0,-2.7666,-2.6961,-2.6515,-2.624,-2.6038,-2.5399,-2.4495,-2.4154,-2.3558,-2.2805,-2.306,-2.285,-2.236,-2.2145,-2.2123,-2.2247,-2.258,-2.304,-2.3623,-2.4337,-2.4935,-2.5453,-2.5784,-2.6778,-2.7776,-2.7776,-2.8675,-2.9727,-3.019,-3.0493,-3.0514,-2.9834,-2.9925,-2.977,-2.8639,0.0,0.0,0.0,0.0,0.0,0.0,-2.8967,-2.9273,-2.9897,-3.0054,-3.0293,-3.0845,-3.0735,-3.0552,-3.0333,-2.9041,-2.8337,-2.8575,-2.8178,-2.8044,-2.8356,-2.7941,-2.7618,-2.7507,-2.7049,-2.683,-2.683,-2.6442,-2.6247,-2.6231,-2.581,-2.5778,-2.6102,-2.6798,-2.7575,-2.8437,-2.9468,-3.0339,-3.1044,-3.1372,-3.1617,-3.18,-3.18,-3.18,-3.18,-3.18,-3.1893,-3.2055,-2.6909,-2.6909,-2.704,-2.7458,0.0,0.0,0.0,-2.622,-2.5709,-2.5288,-2.5097,-2.4873,-2.4472,-2.4272,-2.4319,-2.4716,-2.4936,-2.5144,-2.5406,-2.5692,-2.6038,-2.6405,-2.662,-2.6966,-2.7456,-2.7523,-2.7523,-2.7523,0.0,0.0,0.0,0.0,0.0,0.0,-2.7656,-2.7364,-2.7162,-2.6799,-2.5803,-2.4562,-2.4141,-2.3197,-2.211,-2.2432,-2.2333,-2.2073,-2.1937,-2.2111,-2.2531,-2.298,-2.3327,-2.38,-2.4708,-2.5118,-2.5369,-2.598,-2.6919,-2.7818,-2.7987,-2.8802,-2.9727,-3.0312,-3.0601,-3.0584,-3.0021,-2.9999,-2.9812,-2.8642,-2.8411,0.0,0.0,0.0,-2.8444,-2.8605,0.0,-2.9166,-2.9865,-3.0182,-3.0559,-3.1218,-3.1372,-3.125,-3.0765,-2.9679,-2.9161,-2.9489,-2.9006,-2.887,-2.9212,-2.8834,-2.8536,-2.8345,-2.7931,-2.7705,-2.7705,-2.7219,-2.6976,-2.6976,-2.6264,-2.5907,-2.5924,-2.6458,-2.7073,-2.7753,-2.8821,-2.9831,-3.0683,-3.1004,-3.1372,-3.1671,-3.1671,-3.1709,-3.18,-3.18,-3.18,-3.1856,-2.7497,-2.7497,-2.751,-2.7523,-2.7456,-2.7323,-2.6782,-2.622,-2.5861,-2.5861,-2.5338,-2.5019,-2.4951,-2.4462,-2.4144,-2.4132,-2.4638,-2.4768,-2.421,-2.5205,-2.5794,-2.5851,-2.6362,-2.6961,-2.7523,-2.7523,-2.7523,-2.7523,0.0,0.0,0.0,0.0,0.0,0.0,-2.8079,-2.7723,-2.7229,-2.7162,-2.6438,-2.5239,-2.4694,-2.3636,-2.2321,-2.1675,-2.1549,-2.1761,-2.1874,-2.2396,-2.3088,-2.3088,-2.393,-2.4948,-2.5005,-2.5397,-2.6006,-2.661,-2.7256,-2.7902,-2.8493,-2.9125,-2.9851,-3.0732,-3.0499,-3.0078,-3.0304,-2.9869,-2.9258,-2.855,-2.8411,-2.8411,-2.8411,-2.8411,-2.8411,-2.8411,-2.8951,0.0,0.0,-3.0642,-3.1173,-3.1295,-3.1596,-3.1507,-3.0765,-3.0644,-3.03,-2.9558,-2.9489,-2.9212,-2.8649,-2.8611,-2.8345,-2.7745,-2.7705,-2.7705,-2.7705,-2.7688,-2.7672,-2.7672,-2.6992,-2.6652,-2.6668,-2.6685,-2.7073,-2.7753,-2.8821,-2.9708,-3.0335,-3.0683,-3.1004,-3.1334,-3.1334,-3.1504,-3.18,-3.18,-3.18,-3.1856,-2.7523,-2.7523,-2.7523,-2.7523,-2.7523,-2.7456,-2.7255,-2.7053,-2.6697,-2.5912,-2.5632,-2.5249,-2.448,-2.4206,-2.4292,-2.4653,-2.4859,-2.5052,-2.5231,-2.5623,-2.5777,-2.5768,-2.5985,-2.6386,-2.6948,-2.6961,-2.7144,-2.7523,-2.7523,0.0,0.0,0.0,0.0,0.0,-2.8013,-2.7868,-2.7417,-2.7236,-2.6414,-2.5048,-2.3791,-2.2836,-2.2161,-2.1588,-2.1537,-2.1698,-2.16,-2.2199,-2.304,-2.3446,-2.4221,-2.5061,-2.5453,-2.6008,-2.654,-2.675,-2.727,-2.7818,-2.8029,-2.8462,-2.8957,-2.9576,-2.9752,-2.9808,-2.9751,-2.9581,-2.9227,-2.855,-2.8411,-2.8411,-2.8411,-2.8411,-2.8411,-2.8411,-2.8873,-2.9377,0.0,-3.0828,-3.1466,-3.1504,-3.1671,-3.1696,-3.1438,-3.0989,-3.0782,-3.1007,-3.0575,-3.0311,-3.04,-3.0185,-2.9852,-2.9419,-2.9241,-2.9146,-2.9146,-2.866,-2.8417,-2.8417,-2.7705,-2.7365,-2.7348,-2.6895,-2.7073,-2.7721,-2.8087,-2.8756,-2.9692,-3.0237,-3.0666,-3.0965,-3.0965,-3.1162,-3.1504,-3.1709,-3.18,-3.1856,-2.7523,-2.7523,-2.7523,-2.7523,-2.7523,-2.7523,-2.7523,-2.7353,-2.6947,-2.6244,-2.5948,-2.5549,-2.4795,-2.4693,-2.4886,-2.5243,-2.5256,-2.5447,-2.5762,-2.5628,-2.5615,-2.5811,-2.5628,-2.5785,-2.636,-2.6373,-2.6648,-2.7223,-2.7223,-2.7327,0.0,0.0,0.0,0.0,-2.7499,-2.7315,-2.6896,-2.6773,-2.6096,-2.4935,-2.3477,-2.2763,-2.2531,-2.2002,-2.1839,-2.1812,-2.1726,-2.2433,-2.3505,-2.3917,-2.4771,-2.5714,-2.6106,-2.6497,-2.6849,-2.7088,-2.7284,-2.7481,-2.772,-2.8111,-2.8497,-2.8987,-2.9193,-2.935,-2.9403,-2.9227,-2.8935,-2.8488,-2.8411,-2.8411,-2.8411,-2.8411,-2.8444,-2.8621,-2.9044,-2.9601,0.0,-3.1083,-3.1559,-3.1579,-3.1709,-3.18,-3.18,-3.1369,-3.1282,-3.1765,-3.1351,-3.1082,-3.1106,-3.0925,-3.0601,-3.0156,-2.9973,-2.9918,-2.9918,-2.9448,-2.9178,-2.9162,-2.8249,-2.7811,-2.7795,-2.7105,-2.7024,-2.7442,-2.7623,-2.8233,-2.914,-2.9583,-3.012,-3.0625,-3.0747,-3.1004,-3.1334,-3.1542,-3.1709,-3.1819,-2.7656,-2.7523,-2.7536,-2.7562,-2.7549,-2.7536,-2.7562,-2.7092,-2.6713,-2.6713,-2.6216,-2.585,-2.5824,-2.5824,-2.5824,-2.5824,-2.5824,-2.5824,-2.5824,-2.5315,-2.5249,-2.5798,-2.5275,-2.5236,-2.5811,-2.5798,-2.6059,-2.6634,-2.6634,-2.6909,0.0,0.0,0.0,0.0,-2.6634,-2.6334,-2.5824,-2.5785,-2.5458,-2.4883,-2.3859,-2.3403,-2.333,-2.2859,-2.2433,-2.2161,-2.2185,-2.3173,-2.4452,-2.4549,-2.5486,-2.6708,-2.6807,-2.6807,-2.6933,-2.7551,-2.7298,-2.6947,-2.7623,-2.8039,-2.8452,-2.8899,-2.8875,-2.8776,-2.9265,-2.8873,-2.8411,-2.8411,-2.8411,-2.8411,-2.8411,-2.8396,-2.8573,-2.9044,-2.9528,-3.0182,-3.1179,-3.1406,-3.15,-3.1596,-3.1709,-3.18,-3.18,-3.18,-3.18,-3.18,-3.18,-3.1504,-3.0845,-3.0804,-3.0518,-2.9918,-2.9918,-2.9902,-2.9858,-2.9902,-2.9874,-2.9858,-2.8634,-2.8079,-2.8063,-2.7308,-2.6961,-2.6988,-2.7483,-2.8077,-2.8692,-2.8757,-2.9375,-3.0243,-3.0608,-3.1004,-3.1295,-3.1334,-3.1542,-3.18,-2.7656,-2.7523,-2.7667,-2.8085,-2.7811,-2.7667,-2.8098,-2.768,-2.7301,-2.7301,-2.6804,-2.6295,-2.5876,-2.5824,-2.5824,-2.5824,-2.5824,-2.5824,-2.5824,-2.568,-2.5667,-2.5811,-2.5275,-2.5236,-2.5811,-2.5406,-2.5471,-2.6046,-2.6046,-2.6112,-2.6269,0.0,0.0,0.0,-2.6046,-2.5955,-2.5798,-2.5367,-2.4857,-2.4321,-2.4047,-2.37,-2.3403,-2.3271,-2.3138,-2.303,-2.2628,-2.3148,-2.4099,-2.478,-2.5395,-2.5967,-2.6624,-2.6807,-2.6835,-2.7017,-2.6933,-2.6891,-2.7384,-2.7469,-2.7533,-2.8032,-2.8319,-2.8511,-2.8609,-2.8535,-2.8411,-2.8411,-2.8411,-2.8411,-2.8411,-2.87,-2.8951,-2.9074,-2.9777,-3.0518,-3.1134,-3.1291,-3.1389,-3.15,-3.1596,-3.1709,-3.18,-3.18,-3.18,-3.18,-3.18,-3.1504,-3.0845,-3.0804,-3.0518,-2.9918,-2.9918,-2.9814,-2.9621,-2.9814,-2.9681,-2.9305,-2.8962,-2.8912,-2.9077,-2.8123,-2.7667,-2.7483,-2.7664,-2.7527,-2.7316,-2.8352,-2.8929,-2.9267,-3.0095,-3.0804,-3.1334,-3.1579,-3.1726,-3.18,-2.8879,-2.8486,-2.8399,-2.8712,-2.8281,-2.8007,-2.8333,-2.7902,-2.7445,-2.7183,-2.687,-2.6556,-2.6229,-2.6425,-2.6569,-2.6569,-2.6569,-2.6569,-2.6569,-2.6334,-2.619,-2.619,-2.5924,-2.5767,-2.5786,-2.58,-2.58,-2.5786,-2.5786,-2.5796,-2.5824,0.0,0.0,0.0,-2.5445,-2.5315,-2.5053,-2.4726,-2.4413,-2.4112,-2.4112,-2.3936,0.0,-2.397,-2.412,-2.4086,-2.3999,-2.4214,-2.4596,-2.5117,-2.5716,-2.6282,-2.6566,-2.6693,-2.6807,-2.6807,-2.6722,-2.6716,-2.6935,-2.7208,-2.7458,-2.774,-2.8103,-2.8411,-2.8411,-2.8411,-2.8411,-2.8411,-2.8411,-2.8411,-2.8411,-2.8779,-2.9212,-2.9645,-3.0351,-3.0878,-3.1151,-3.1252,-3.1351,-3.1406,-3.1483,-3.1596,-3.1709,-3.1763,-3.18,-3.1709,-3.1709,-3.1372,-3.0625,-3.0584,-3.0267,-2.9576,-2.9547,-2.9486,-2.935,-2.9486,-2.9305,-2.8826,-2.8606,-2.8559,-2.8685,-2.8233,-2.7899,-2.7662,-2.7711,-2.7494,-2.7203,-2.7996,-2.8498,-2.8897,-3.0071,-3.0925,-3.1542,-3.1709,-3.18,-3.18,-3.0541,-2.9937,-2.95,-2.9508,-2.9022,-2.8628,-2.8628,-2.8009,-2.7379,-2.6948,-2.6831,-2.6778,-2.6778,-2.7236,-2.7523,-2.7523,-2.7523,-2.7523,-2.7523,-2.7053,-2.6778,-2.6778,-2.6881,-2.6666,-2.6031,-2.6634,-2.6608,-2.5963,-2.5963,-2.5913,0.0,0.0,0.0,0.0,-2.5024,-2.4642,-2.4112,-2.4112,-2.4112,-2.4125,-2.4204,-2.423,-2.4282,-2.487,-2.5079,-2.5145,-2.5641,-2.563,-2.5382,-2.5462,-2.6121,-2.6872,-2.6489,-2.6524,-2.6694,-2.6694,-2.6576,-2.651,-2.6563,-2.7203,-2.779,-2.789,-2.8152,-2.8411,-2.8411,-2.8411,-2.8411,-2.8411,-2.8411,-2.8411,-2.8411,-2.8779,-2.9393,-3.0267,-3.0781,-3.1112,-3.1112,-3.1196,-3.1295,-3.1295,-3.1406,0.0,-3.1596,-3.1709,-3.1746,-3.1617,-3.1617,-3.124,-3.0377,-3.0293,-2.9924,-2.9121,-2.9075,-2.9075,-2.9029,-2.9075,-2.8873,-2.8479,-2.8027,-2.778,-2.783,-2.8046,-2.7951,-2.7654,-2.7662,-2.7615,-2.7535,-2.7672,-2.8232,-2.9111,-3.031,-3.1179,-3.1763,-3.18,-3.18,-3.18,-3.1425,-3.0718,-3.0335,-3.0764,-3.0373,-2.9996,-2.9996,-2.8543,-2.7667,-2.8033,-2.7667,-2.7379,-2.7379,-2.7471,-2.7523,-2.7523,-2.7523,-2.7523,-2.7523,-2.7432,-2.7379,-2.7379,-2.7511,-2.7509,-2.7339,-2.7555,-2.7328,-2.6637,-2.6637,-2.6329,0.0,0.0,0.0,0.0,-2.4997,-2.4656,-2.4112,-2.4112,-2.4112,-2.4151,-2.4622,-2.4818,-2.4883,-2.5458,-2.5667,-2.568,-2.5785,-2.552,-2.5148,-2.5927,-2.5813,-2.5486,-2.6169,-2.6231,-2.6062,-2.6062,-2.629,-2.6563,-2.6916,-2.7408,-2.789,-2.8201,-2.8348,-2.8411,-2.8411,-2.8411,-2.8411,-2.8411,-2.8411,-2.8411,-2.8411,-2.8779,-2.9257,-2.9837,-3.0309,-3.0601,-3.0601,-3.0958,-3.1252,-3.1295,-3.1295,-3.1389,-3.15,-3.1596,-3.1671,-3.1746,-3.1671,-3.1257,-3.0518,-3.0335,-2.9924,-2.9121,-2.9075,-2.8982,-2.8779,-2.8982,-2.8858,-2.8444,-2.8286,-2.8304,-2.8542,-2.8352,-2.8155,-2.7895,-2.7593,-2.7112,-2.6615,-2.7381,-2.8616,-3.0086,-3.0575,-3.1044,-3.1428,-3.1709,-3.18,-3.18,-3.2188,-3.1914,-3.1848,-3.1751,-3.1267,-3.077,-3.0386,-2.9299,-2.8498,-2.8478,-2.7894,-2.7523,-2.7523,-2.7523,-2.7656,-2.7973,-2.8039,-2.8157,-2.8519,-2.8519,-2.8519,-2.8519,-2.8927,-2.9003,-2.8619,-2.903,-2.8726,-2.7768,-2.7438,-2.6944,-2.6315,-2.5937,-2.5687,-2.5425,-2.5104,-2.4838,-2.4557,-2.4557,-2.4726,-2.5027,-2.5301,-2.5406,-2.5471,-2.6046,-2.6269,-2.6269,-2.6269,-2.6015,-2.5699,-2.5794,-2.5647,-2.5524,-2.5852,-2.6077,-2.6204,-2.6204,-2.6669,-2.7203,-2.7408,-2.7775,-2.8152,-2.8348,-2.8411,-2.8411,-2.8411,-2.8411,-2.8411,-2.8411,-2.8411,-2.8493,-2.87,-2.9136,-2.9617,-3.0097,-3.0576,-3.0878,-3.0878,-3.1055,-3.123,-3.1252,-3.1252,-3.1291,-3.1406,-3.1428,-3.1504,-3.1614,-3.1351,-3.0908,-3.0234,-2.9848,-2.9393,-2.8763,-2.8716,-2.8668,-2.8525,-2.8668,-2.8525,-2.8103,-2.7795,-2.7879,-2.822,-2.7978,-2.7887,-2.7837,-2.7524,-2.699,-2.6366,-2.7332,-2.8805,-3.0601,-3.0764,-3.1123,-3.1579,-3.1763,-3.18,-3.18,-3.3035,-3.3036,-3.3041,-3.2351,-3.1797,-3.1217,-3.0672,-3.0114,-2.9456,-2.8776,-2.8274,-2.7894,-2.7894,-2.7894,-2.8157,-2.8661,-2.8725,-2.8967,-2.9442,-2.9504,-2.9504,-2.9504,-3.0133,-3.0218,-2.9725,-3.0362,-3.0164,-2.9051,-2.8554,-2.7998,-2.7397,-2.6728,-2.6321,-2.6157,-2.5644,-2.5396,-2.5374,-2.5205,-2.5406,-2.5837,-2.5955,-2.6007,-2.6073,-2.6648,-2.6857,-2.6831,-2.6582,-2.6443,-2.6188,-2.5541,-2.5536,-2.5802,-2.5675,-2.6056,-2.651,-2.6616,-2.7203,-2.779,-2.779,-2.8103,-2.8411,-2.8411,-2.8411,-2.8411,-2.8411,-2.8411,-2.8411,-2.8411,-2.8411,-2.8525,-2.8873,-2.9273,-2.9661,-3.0123,-3.0617,-3.0935,-3.1055,-3.1151,-3.119,-3.119,-3.119,-3.123,-3.1274,-3.1295,-3.1351,-3.1462,-3.1021,-3.0485,-2.9946,-2.9361,-2.8873,-2.8396,-2.8411,-2.8411,-2.8411,-2.8411,-2.825,-2.794,-2.756,-2.756,-2.794,-2.7745,-2.7677,-2.7641,-2.7395,-2.7029,-2.6639,-2.7381,-2.8886,-3.0707,-3.0747,-3.1179,-3.1709,-3.1746,-3.18,-3.18,-3.448,-3.3783,-3.3165,-3.2529,-3.1864,-3.1401,-3.1344,-3.0794,-3.0147,-2.9504,-2.9317,-2.9317,-2.9317,-2.9317,-2.9317,-2.938,-2.938,-2.9442,-2.9504,-2.9504,-2.9504,-2.9504,-3.0133,-3.0495,-3.0437,-3.1057,-3.1034,-3.0347,-3.0287,-2.9918,-2.9297,-2.8643,-2.8051,-2.7498,-2.6909,-2.6652,-2.6586,-2.5968,-2.5772,-2.5876,-2.6386,-2.6595,-2.6661,-2.7236,-2.7458,-2.7314,-2.6282,-2.6038,-2.6195,-2.5293,-2.5283,-2.5619,-2.5948,-2.6244,-2.6563,-2.6916,-2.7408,-2.779,-2.779,-2.8103,-2.8411,-2.8411,-2.8411,-2.8411,-2.8411,-2.8411,-2.8411,-2.8411,-2.8411,-2.8396,-2.8444,-2.8493,-2.8653,-2.9166,-2.9617,-3.0097,-3.0518,-3.0918,-3.119,-3.119,-3.119,-3.119,-3.123,-3.1274,-3.1295,-3.1295,-3.0868,-3.0402,-2.9946,-2.9361,-2.8873,-2.8396,-2.8411,-2.8411,-2.8411,-2.8411,-2.8396,-2.8348,-2.8299,-2.8299,-2.8348,-2.8299,-2.7979,-2.7396,-2.7133,-2.7259,-2.7567,-2.7672,-2.8739,-3.0393,-3.0666,-3.1004,-3.1372,-3.1671,-3.18,-3.18,-3.3948,-3.3687,-3.3229,-3.2579,-3.2239,-3.1929,-3.153,-3.1265,-3.1029,-3.0718,-3.0011,-2.9504,-2.9504,-2.9504,-2.9628,-3.0072,-3.0072,-3.0269,-3.0644,-3.0703,-3.0703,-3.0703,-3.097,-3.1087,-3.1087,-3.1351,-3.1405,-3.112,-3.0717,-3.0372,-3.0118,-2.949,-2.8892,-2.8315,-2.804,-2.7947,-2.7894,-2.7666,-2.7501,-2.7424,-2.7651,-2.7563,-2.721,-2.7445,-2.7314,-2.6909,-2.6112,-2.6068,-2.6325,-2.5589,-2.5591,-2.5934,-2.6244,-2.6774,-2.7306,-2.7458,-2.7825,-2.8152,-2.8152,-2.8299,-2.8411,-2.8411,-2.8411,-2.8411,-2.8411,-2.8411,-2.8411,-2.8411,-2.8411,-2.8411,-2.8411,-2.8621,-2.8951,-2.9438,-2.9908,-3.0393,-3.0838,-3.1095,-3.119,-3.119,-3.119,-3.119,-3.119,-3.1213,-3.1252,-3.1252,-3.0845,-3.0402,-2.9946,-2.9361,-2.8873,-2.8396,-2.8411,-2.8411,-2.8411,-2.8411,-2.8411,-2.8411,-2.8152,-2.8152,-2.8396,-2.771,-2.7072,-2.6514,-2.602,-2.6286,-2.7138,-2.7543,-2.8616,-3.0042,-3.0597,-3.114,-3.1634,-3.1746,-3.18,-3.18,-3.3245,-3.32,-3.3006,-3.2332,-3.2228,-3.2078,-3.1541,-3.1482,-3.1482,-3.1482,-3.0703,-3.0072,-3.0072,-3.0072,-3.0269,-3.0777,-3.0777,-3.097,-3.1467,-3.1482,-3.1482,-3.1482,-3.1482,-3.1482,-3.1482,-3.1482,-3.1482,-3.1482,-3.1046,-3.0806,-3.0791,-3.0357,-2.9807,-2.9251,-2.9216,-2.9203,-2.9203,-2.9021,-2.8892,-2.8776,-2.8776,-2.8532,-2.8078,-2.8078,-2.7717,-2.713,-2.6618,-2.654,-2.6666,-2.6089,-2.6215,-2.6602,-2.6826,-2.7306,-2.784,-2.794,-2.8201,-2.8411,-2.8411,-2.8411,-2.8411,-2.8411,-2.8411,-2.8411,-2.8411,-2.8411,-2.8411,-2.8411,-2.8411,-2.8444,-2.8573,-2.8873,-2.9303,-2.9924,-3.0267,-3.0658,-3.1134,-3.119,-3.119,-3.119,-3.119,-3.119,-3.119,-3.119,-3.119,-3.119,-3.0958,-3.0502,-2.9876,-2.9377,-2.8873,-2.8396,-2.8411,-2.8411,-2.8411,-2.8411,-2.8411,-2.8411,-2.8103,-2.7997,-2.8073,-2.6822,-2.6166,-2.5894,-2.5282,-2.5616,-2.6622,-2.7266,-2.8415,-2.9839,-3.0421,-3.1108,-3.18,-3.18,-3.18,-3.18,-3.2647,-3.2527,-3.2317,-3.1601,-3.1482,-3.1482,-3.1482,-3.1482,-3.1482,-3.1482,-3.1482,-3.1467,-3.1467,-3.1467,-3.1467,-3.1482,-3.1482,-3.1482,-3.1482,-3.1482,-3.1482,-3.1482,-3.1482,-3.1482,-3.1482,-3.1482,-3.1482,-3.1482,-3.1467,-3.1467,-3.1467,-3.1452,-3.115,-3.0466,-3.0456,-3.051,-3.0435,-2.9752,-2.9504,-2.9504,-2.9504,-2.9504,-2.9504,-2.9504,-2.9063,-2.8446,-2.802,-2.7698,-2.7291,-2.6842,-2.7174,-2.779,-2.779,-2.779,-2.789,-2.8299,-2.8411,-2.8411,-2.8411,-2.8411,-2.8411,-2.8411,-2.8411,-2.8411,-2.8411,-2.8411,-2.8411,-2.8411,-2.8411,-2.8525,-2.8997,-2.909,-2.9438,-3.0335,-3.0518,-3.0658,-3.1134,-3.119,-3.119,-3.119,-3.119,-3.119,-3.119,-3.119,-3.119,-3.119,-3.119,-3.0797,-2.9837,-2.9348,-2.8873,-2.8396,-2.8411,-2.8411,-2.8411,-2.8411,-2.8411,-2.8411,-2.8411,-2.8057,-2.7349,-2.598,-2.5435,-2.5675,-2.5201,-2.5505,-2.6343,-2.6885,-2.8163,-2.9827,-3.0112,-3.0871,-3.18,-3.18,-3.18,-3.18,-3.1884,-3.1839,-3.1779,-3.1511,-3.1482,-3.1482,-3.1482,-3.1482,-3.1482,-3.1482,-3.1482,-3.1482,-3.1482,-3.1482,-3.1482,-3.1482,-3.1482,-3.1482,-3.1482,-3.1482,-3.1482,-3.1482,-3.1482,-3.1482,-3.1482,-3.1482,-3.1482,-3.1482,-3.1482,-3.1482,-3.1482,-3.1482,-3.1362,-3.1153,-3.1188,-3.1161,-3.1161,-3.097,-3.0584,-3.0208,-3.0208,-2.9889,-2.9504,-2.9504,-2.8872,-2.7945,-2.7923,-2.758,-2.7193,-2.7115,-2.758,-2.8201,-2.8201,-2.8201,-2.825,-2.8348,-2.8411,-2.8411,-2.8411,-2.8411,-2.8411,-2.8411,-2.8411,-2.8411,-2.8411,-2.8411,-2.8493,-2.8826,-2.8873,-2.8997,-2.9483,-2.9572,-2.9793,-3.0393,-3.0518,-3.0658,-3.1134,-3.119,-3.119,-3.119,-3.119,-3.119,-3.119,-3.119,-3.119,-3.119,-3.119,-3.0797,-2.9837,-2.9661,-2.9227,-2.8396,-2.8411,-2.8411,-2.8411,-2.8411,-2.8411,-2.8396,-2.7934,-2.7103,-2.5964,-2.5518,-2.5157,-2.4957,-2.4981,-2.5352,-2.5962,-2.6787,-2.7961,-2.9367,-2.9966,-3.0854,-3.18,-3.18,-3.18,-3.18,-3.1482,-3.1482,-3.1482,-3.1482,-3.1482,-3.1482,-3.1482,-3.1482,-3.1482,-3.1482,-3.1482,-3.1482,-3.1482,-3.1482,-3.1482,-3.1482,-3.1482,-3.1482,-3.1482,-3.1482,-3.1482,-3.1482,-3.1482,-3.1482,-3.1482,-3.1482,-3.1482,-3.1482,-3.1482,-3.1482,-3.1482,-3.1482,-3.1482,-3.1482,-3.1482,-3.1482,-3.1482,-3.1482,-3.1278,-3.0896,-3.0896,-3.0644,-3.024,-2.9995,-2.9275,-2.841,-2.8347,-2.7915,-2.7458,-2.763,-2.8008,-2.8411,-2.8411,-2.8411,-2.8411,-2.8411,-2.8411,-2.8411,-2.8411,-2.8411,-2.8411,-2.8411,-2.8411,-2.8444,-2.8621,-2.8653,-2.8795,-2.9273,-2.9348,-2.9528,-2.9968,-3.0054,-3.0225,-3.0699,-3.074,-3.0878,-3.1151,-3.119,-3.119,-3.119,-3.119,-3.119,-3.119,-3.119,-3.119,-3.119,-3.119,-3.0878,-3.0097,-2.9881,-2.9454,-2.87,-2.8493,-2.8411,-2.8411,-2.8411,-2.8273,-2.8011,-2.7057,-2.6164,-2.5302,-2.5056,-2.4744,-2.4508,-2.4846,-2.5224,-2.5642,-2.6488,-2.7557,-2.8764,-2.9602,-3.0516,-3.142,-3.1696,-3.18,-3.18,-3.1482,-3.1482,-3.1482,-3.1482,-3.1482,-3.1482,-3.1482,-3.1482,-3.1482,-3.1482,-3.1482,-3.1482,-3.1482,-3.1482,-3.1482,-3.1482,-3.1482,-3.1482,-3.1482,-3.1482,-3.1482,-3.1482,-3.1482,-3.1482,-3.1482,-3.1482,-3.1482,-3.1482,-3.1482,-3.1482,-3.1482,-3.1482,-3.1482,-3.1482,-3.1482,-3.1482,-3.1482,-3.1482,-3.1482,-3.1482,-3.1482,-3.1482,-3.1465,-3.0776,-3.0118,-2.9559,-2.9146,-2.8581,-2.8069,-2.8299,-2.8411,-2.8411,-2.8411,-2.8411,-2.8411,-2.8411,-2.8411,-2.8411,-2.8411,-2.8411,-2.8411,-2.8411,-2.8396,-2.8573,-2.8997,-2.912,-2.9257,-2.975,-2.9837,-3.0011,-3.0477,-3.0559,-3.0699,-3.1151,-3.119,-3.119,-3.119,-3.119,-3.119,-3.119,-3.119,-3.119,-3.119,-3.119,-3.119,-3.119,-3.119,-3.1015,-3.0559,-3.0054,-2.9572,-2.912,-2.8653,-2.8381,-2.8334,-2.8334,-2.798,-2.7242,-2.5933,-2.5287,-2.5226,-2.4594,-2.4302,-2.4317,-2.4806,-2.5185,-2.5481,-2.612,-2.7045,-2.8135,-2.9111,-2.9989,-3.0782,-3.1524,-3.18,-3.18,-3.1482,-3.1482,-3.1482,-3.1482,-3.1482,-3.1482,-3.1482,-3.1482,-3.1482,-3.1482,-3.1482,-3.1482,-3.1482,-3.1482,-3.1482,-3.1482,-3.1482,-3.1482,-3.1482,-3.1482,-3.1482,-3.1482,-3.1482,-3.1482,-3.1482,-3.1482,-3.1482,-3.1482,-3.1482,-3.1482,-3.1482,-3.1482,-3.1482,-3.1482,-3.1482,-3.1482,-3.1482,-3.1482,-3.1482,-3.1482,-3.1482,-3.1482,-3.1465,-3.0776,-3.0118,-2.9559,-2.9146,-2.8581,-2.8069,-2.8299,-2.8411,-2.8411,-2.8411,-2.8411,-2.8411,-2.8411,-2.8411,-2.8411,-2.8411,-2.8411,-2.8411,-2.8411,-2.8653,-2.8951,-2.9074,-2.9393,-2.975,-3.0225,-3.0351,-3.0477,-3.0958,-3.1015,-3.1055,-3.119,-3.119,-3.119,-3.119,-3.119,-3.119,-3.119,-3.119,-3.119,-3.119,-3.119,-3.119,-3.119,-3.119,-3.1151,-3.1055,-3.0225,-2.9572,-2.912,-2.8653,-2.815,-2.7642,-2.7642,-2.7026,-2.581,-2.5472,-2.5041,-2.4548,-2.4379,-2.4302,-2.4317,-2.4806,-2.5285,-2.5746,-2.6227,-2.7131,-2.8372,-2.9179,-2.9989,-3.0782,-3.1524,-3.18,-3.18,-3.1524,-3.1739,-3.1796,-3.1539,-3.1482,-3.1482,-3.1482,-3.1482,-3.1482,-3.1482,-3.1482,-3.1482,-3.1482,-3.1482,-3.1482,-3.1482,-3.1482,-3.1482,-3.1482,-3.1482,-3.1482,-3.1482,-3.1482,-3.1482,-3.1482,-3.1482,-3.1482,-3.1482,-3.1482,-3.1482,-3.1482,-3.1482,-3.1482,-3.1482,-3.1482,-3.1482,-3.1482,-3.1482,-3.1482,-3.1482,-3.1482,-3.1482,-3.1377,-3.0447,-2.9879,-2.9514,-2.8798,-2.8323,-2.8069,-2.8299,-2.8411,-2.8411,-2.8411,-2.8411,-2.8411,-2.8411,-2.8411,-2.8411,-2.8411,-2.8411,-2.8444,-2.8653,-2.8807,-2.8942,-2.9178,-2.9193,-2.9354,-3.0149,-3.0296,-3.0493,-3.1083,-3.119,-3.119,-3.119,-3.119,-3.119,-3.119,-3.119,-3.119,-3.119,-3.119,-3.119,-3.119,-3.119,-3.119,-3.119,-3.119,-3.119,-3.119,-3.0493,-2.9924,-2.9438,-2.8451,-2.7765,-2.7396,-2.6765,-2.6072,-2.5318,-2.501,-2.4656,-2.4302,-2.4302,-2.4302,-2.4343,-2.4855,-2.5368,-2.5855,-2.6315,-2.708,-2.7989,-2.9075,-2.9765,-3.0282,-3.1386,-3.18,-3.18,-3.1754,-3.1966,-3.212,-3.1582,-3.1482,-3.1482,-3.1482,-3.1482,-3.1482,-3.1482,-3.1482,-3.1482,-3.1482,-3.1482,-3.1482,-3.1482,-3.1482,-3.1482,-3.1482,-3.1482,-3.1482,-3.1482,-3.1482,-3.1482,-3.1482,-3.1482,-3.1482,-3.1482,-3.1482,-3.1482,-3.1482,-3.1482,-3.1482,-3.1482,-3.1482,-3.1482,-3.1482,-3.1482,-3.1482,-3.1482,-3.1482,-3.1422,-3.124,-3.0043,-2.952,-2.9334,-2.8359,-2.802,-2.8069,-2.8299,-2.8411,-2.8411,-2.8411,-2.8411,-2.8411,-2.8411,-2.8444,-2.8493,-2.8493,-2.8589,-2.8716,-2.909,-2.9079,-2.9065,-2.9353,-2.8953,-2.8826,-2.9762,-2.9939,-3.0159,-3.0903,-3.1021,-3.1072,-3.1173,-3.119,-3.119,-3.119,-3.119,-3.119,-3.119,-3.119,-3.119,-3.119,-3.119,-3.119,-3.119,-3.119,-3.114,-3.1038,-3.059,-3.0053,-2.9486,-2.8196,-2.7381,-2.7088,-2.581,-2.5164,-2.5149,-2.4579,-2.4343,-2.4385,-2.4343,-2.4343,-2.4426,-2.4958,-2.5427,-2.5819,-2.6436,-2.6925,-2.742,-2.8766,-2.9403,-2.9679,-3.111,-3.1696,-3.18,-3.2287,-3.191,-3.1582,-3.1539,-3.1482,-3.1482,-3.1482,-3.1482,-3.1482,-3.1482,-3.1482,-3.1482,-3.1482,-3.1482,-3.1482,-3.1482,-3.1482,-3.1482,-3.1482,-3.1482,-3.1482,-3.1482,-3.1482,-3.1482,-3.1482,-3.1482,-3.1482,-3.1482,-3.1482,-3.1482,-3.1482,-3.1482,-3.1482,-3.1482,-3.1482,-3.1482,-3.1482,-3.1482,-3.1482,-3.1482,-3.1482,-3.118,-3.0582,-2.9864,-2.9235,-2.8704,-2.8193,-2.802,-2.8069,-2.8299,-2.8411,-2.8411,-2.8411,-2.8411,-2.8411,-2.8411,-2.8653,-2.8997,-2.8997,-2.9273,-2.9589,-2.9661,-2.9956,-3.0063,-2.9509,-2.9627,-2.9711,-2.9262,-2.9161,-2.9397,-3.0142,-3.0277,-3.048,-3.1089,-3.119,-3.119,-3.119,-3.119,-3.119,-3.119,-3.119,-3.119,-3.119,-3.119,-3.119,-3.119,-3.119,-3.092,-3.0311,-2.9838,-2.9099,-2.8045,-2.7985,-2.723,-2.5641,-2.4856,-2.4471,-2.4456,-2.4364,-2.4492,-2.4799,-2.4451,-2.4492,-2.4823,-2.5075,-2.5384,-2.5758,-2.6365,-2.6825,-2.722,-2.8131,-2.8887,-2.961,-3.0524,-3.1265,-3.18,-3.2788,-3.2382,-3.1951,-3.1951,-3.1697,-3.1482,-3.1482,-3.1482,-3.1482,-3.1482,-3.1482,-3.1482,-3.1482,-3.1482,-3.1482,-3.1482,-3.1482,-3.1482,-3.1482,-3.1482,-3.1482,-3.1482,-3.1482,-3.1482,-3.1482,-3.1482,-3.1482,-3.1482,-3.1482,-3.1482,-3.1482,-3.1482,-3.1482,-3.1482,-3.1482,-3.1482,-3.1482,-3.1482,-3.1482,-3.1437,-3.1135,-3.0791,-3.0387,-2.943,-2.8861,-2.8569,-2.8147,-2.802,-2.8069,-2.8299,-2.8411,-2.8411,-2.8411,-2.8573,-2.8795,-2.8795,-2.892,-2.9166,-2.9393,-2.9837,-3.0182,-3.0182,-3.0236,-3.0107,-2.937,-2.9013,-2.8772,-2.8433,-2.8349,-2.8586,-2.9364,-2.9837,-3.0226,-3.0548,-3.0937,-3.119,-3.119,-3.119,-3.119,-3.119,-3.119,-3.119,-3.119,-3.119,-3.1038,-3.0632,-3.0615,-3.0294,-2.955,-2.9295,-2.8736,-2.7798,-2.7003,-2.5982,-2.4779,-2.4688,-2.4599,-2.4639,-2.4823,-2.5044,-2.5198,-2.502,-2.5059,-2.5237,-2.554,-2.5815,-2.6066,-2.6555,-2.6876,-2.7141,-2.7978,-2.875,-2.9541,-3.0403,-3.1162,-3.18,-3.2933,-3.2586,-3.2176,-3.2176,-3.1796,-3.1482,-3.1482,-3.1482,-3.1482,-3.1482,-3.1482,-3.1482,-3.1482,-3.1482,-3.1482,-3.1482,-3.1482,-3.1482,-3.1482,-3.1482,-3.1482,-3.1482,-3.1482,-3.1482,-3.1482,-3.1482,-3.1482,-3.1482,-3.1482,-3.1482,-3.1482,-3.1482,-3.1482,-3.1482,-3.1482,-3.1482,-3.1482,-3.1482,-3.1377,-3.124,-3.0717,-3.0328,-2.9953,-2.8966,-2.8502,-2.8344,-2.8037,-2.7955,-2.8069,-2.825,-2.8348,-2.8396,-2.8541,-2.8826,-2.912,-2.9212,-2.9348,-2.9512,-2.9881,-3.0309,-3.0658,-3.0658,-3.0516,-3.0159,-2.9414,-2.8653,-2.8044,-2.7823,-2.7637,-2.7791,-2.8569,-2.9178,-2.9634,-2.982,-3.0463,-3.0937,-3.0937,-3.1089,-3.119,-3.119,-3.119,-3.1123,-3.0954,-3.0937,-3.0632,-2.9905,-2.9837,-2.9516,-2.8755,-2.8704,-2.8313,-2.7431,-2.6172,-2.517,-2.4574,-2.4902,-2.5059,-2.5059,-2.5275,-2.5465,-2.5652,-2.5465,-2.5465,-2.5652,-2.598,-2.6139,-2.6279,-2.6691,-2.6909,-2.7043,-2.7723,-2.8561,-2.9472,-3.0161,-3.0953,-3.1746,-3.2547,-3.1966,-3.1582,-3.1582,-3.1524,-3.1482,-3.1482,-3.1482,-3.1482,-3.1482,-3.1482,-3.1482,-3.1482,-3.1482,-3.1482,-3.1482,-3.1482,-3.1482,-3.1482,-3.1482,-3.1482,-3.1482,-3.1482,-3.1482,-3.1482,-3.1482,-3.1482,-3.1482,-3.1482,-3.1482,-3.1482,-3.1482,-3.1482,-3.1482,-3.1482,-3.1482,-3.1482,-3.1482,-3.1165,-3.0567,-3.0522,-2.9789,-2.8727,-2.8637,-2.8203,-2.77,-2.7806,-2.7905,-2.8005,-2.8152,-2.8299,-2.8493,-2.892,-2.9074,-2.9182,-2.9617,-3.0054,-3.0377,-3.0435,-3.0797,-3.1151,-3.1151,-3.114,-3.092,-3.0192,-2.9431,-2.8687,-2.7941,-2.7266,-2.7012,-2.7774,-2.7908,-2.823,-2.8941,-2.9702,-3.0192,-3.0192,-3.0768,-3.119,-3.119,-3.119,-3.092,-3.026,-3.0192,-2.9871,-2.9127,-2.9059,-2.8721,-2.7908,-2.7909,-2.7379,-2.6274,-2.6099,-2.5848,-2.5427,-2.5427,-2.5465,-2.5465,-2.5098,-2.5313,-2.6016,-2.5275,-2.5351,-2.6052,-2.6104,-2.6104,-2.6139,-2.6539,-2.6792,-2.6893,-2.6994,-2.7981,-2.942,-2.9472,-3.0381,-3.1617,-3.3403,-3.2711,-3.2079,-3.2079,-3.1754,-3.1482,-3.1482,-3.1482,-3.1482,-3.1482,-3.1482,-3.1482,-3.1482,-3.1482,-3.1482,-3.1482,-3.1482,-3.1482,-3.1482,-3.1482,-3.1482,-3.1482,-3.1482,-3.1482,-3.1482,-3.1482,-3.1482,-3.1482,-3.1482,-3.1482,-3.1482,-3.1482,-3.1482,-3.1482,-3.1482,-3.1482,-3.1452,-3.1076,-3.0746,-3.0432,-2.9639,-2.9026,-2.8547,-2.8128,-2.7799,-2.7625,-2.774,-2.7905,-2.8005,-2.8137,-2.8462,-2.8873,-2.9044,-2.9303,-2.9617,-3.0097,-3.0576,-3.0918,-3.0918,-3.1055,-3.119,-3.119,-3.119,-3.1004,-3.0277,-2.9533,-2.8755,-2.7977,-2.7215,-2.6776,-2.7063,-2.7503,-2.7891,-2.8213,-2.8907,-2.9414,-2.9414,-2.9651,-2.982,-2.982,-2.982,-2.9719,-2.9448,-2.9414,-2.9093,-2.8315,-2.8264,-2.7926,-2.7165,-2.7131,-2.691,-2.6487,-2.647,-2.6175,-2.5503,-2.5762,-2.5872,-2.5872,-2.598,-2.6175,-2.647,-2.6175,-2.6175,-2.647,-2.647,-2.647,-2.647,-2.6657,-2.6742,-2.6792,-2.6876,-2.7572,-2.8596,-2.9075,-2.9966,-3.0942,-3.3764,-3.3177,-3.2586,-3.2453,-3.2079,-3.1697,-3.1524,-3.1482,-3.1482,-3.1482,-3.1482,-3.1482,-3.1482,-3.1482,-3.1482,-3.1482,-3.1482,-3.1482,-3.1482,-3.1482,-3.1482,-3.1482,-3.1482,-3.1482,-3.1482,-3.1482,-3.1482,-3.1482,-3.1482,-3.1482,-3.1482,-3.1482,-3.1482,-3.1482,-3.1482,-3.1347,-3.118,-3.0717,-3.0268,-2.9834,-2.8951,-2.8472,-2.8233,-2.7754,-2.7625,-2.7625,-2.774,-2.7905,-2.8005,-2.8137,-2.8494,-2.892,-2.9028,-2.9528,-3.0097,-3.0576,-3.0958,-3.119,-3.119,-3.119,-3.119,-3.119,-3.119,-3.1072,-3.0565,-2.9685,-2.8822,-2.8298,-2.7385,-2.6691,-2.6691,-2.7114,-2.7469,-2.7469,-2.8112,-2.8619,-2.8619,-2.8822,-2.9011,-2.9011,-2.9011,-2.889,-2.8636,-2.8619,-2.8298,-2.752,-2.7469,-2.7232,-2.6725,-2.6691,-2.6691,-2.6691,-2.6691,-2.6436,-2.5872,-2.6175,-2.628,-2.628,-2.6436,-2.6573,-2.6691,-2.659,-2.6573,-2.6691,-2.6691,-2.6691,-2.6691,-2.6691,-2.6691,-2.6691,-2.6792,-2.7318,-2.81,-2.8867,-2.967,-3.0438,-3.3303,-3.3198,-3.3039,-3.2492,-3.2398,-3.2176,-3.1582,-3.1539,-3.1539,-3.1482,-3.1482,-3.1482,-3.1482,-3.1482,-3.1482,-3.1482,-3.1482,-3.1482,-3.1482,-3.1482,-3.1482,-3.1482,-3.1482,-3.1482,-3.1482,-3.1482,-3.1482,-3.1482,-3.1482,-3.1482,-3.1482,-3.1482,-3.1482,-3.1482,-3.1467,-3.115,-3.0507,-3.0492,-2.9759,-2.8607,-2.8592,-2.8173,-2.7625,-2.7625,-2.7625,-2.7625,-2.774,-2.7905,-2.8005,-2.8137,-2.8299,-2.8493,-2.8951,-2.9733,-3.0601,-3.1055,-3.119,-3.119,-3.119,-3.119,-3.119,-3.119,-3.119,-3.119,-3.119,-3.0057,-2.9028,-2.9011,-2.7774,-2.6708,-2.6691,-2.6691,-2.6691,-2.6691,-2.7317,-2.7772,-2.7772,-2.8484,-2.8958,-2.8958,-2.8958,-2.8653,-2.7892,-2.7772,-2.7503,-2.6759,-2.6691,-2.6691,-2.6691,-2.6691,-2.6691,-2.6691,-2.6691,-2.6691,-2.6691,-2.6691,-2.6691,-2.6691,-2.628,-2.6315,-2.6691,-2.628,-2.6315,-2.6691,-2.6691,-2.6691,-2.6691,-2.6691,-2.6691,-2.6691,-2.6691,-2.7233,-2.8066,-2.8832,-2.9544,-3.0309,-3.3917,-3.3815,-3.3646,-3.3055,-3.2933,-3.2788,-3.2231,-3.212,-3.1966,-3.1539,-3.1482,-3.1482,-3.1482,-3.1482,-3.1482,-3.1482,-3.1482,-3.1482,-3.1482,-3.1482,-3.1482,-3.1482,-3.1482,-3.1482,-3.1482,-3.1482,-3.1482,-3.1482,-3.1482,-3.1482,-3.1482,-3.1482,-3.1482,-3.1452,-3.1031,-3.0702,-3.0447,-2.9549,-2.8951,-2.8562,-2.8068,-2.7754,-2.7625,-2.7625,-2.7625,-2.7625,-2.7625,-2.774,-2.7855,-2.789,-2.8446,-2.9212,-2.9722,-3.03,-3.0716,-3.0568,-3.0733,-3.0992,-3.1072,-3.1055,-3.1072,-3.119,-3.119,-3.119,-3.119,-3.0463,-2.9634,-2.9093,-2.818,-2.7317,-2.6793,-2.6691,-2.6691,-2.6691,-2.6877,-2.7029,-2.7029,-2.7232,-2.7385,-2.7385,-2.7385,-2.7283,-2.7046,-2.7029,-2.6945,-2.6708,-2.6691,-2.6691,-2.6691,-2.6691,-2.6691,-2.6691,-2.6691,-2.6691,-2.6691,-2.6691,-2.6691,-2.6691,-2.6573,-2.6573,-2.6691,-2.659,-2.659,-2.6691,-2.6691,-2.6691,-2.6691,-2.6691,-2.6691,-2.6691,-2.6691,-2.6877,-2.7267,-2.8556,-2.9183,-2.9556,-3.4431,-3.425,-3.3933,-3.3303,-3.3039,-3.268,-3.212,-3.2064,-3.191,-3.1539,-3.1482,-3.1482,-3.1482,-3.1482,-3.1482,-3.1482,-3.1482,-3.1482,-3.1482,-3.1482,-3.1482,-3.1482,-3.1482,-3.1482,-3.1482,-3.1482,-3.1482,-3.1482,-3.1482,-3.1482,-3.1467,-3.1255,-3.112,-3.1106,-3.0432,-2.9998,-2.9699,-2.8936,-2.8442,-2.8158,-2.7739,-2.7625,-2.7625,-2.7625,-2.7625,-2.7625,-2.7675,-2.774,-2.784,-2.8057,-2.8748,-2.9528,-3.0044,-3.0401,-3.0609,-3.0501,-3.0667,-3.0912,-3.0952,-3.0975,-3.1015,-3.1112,-3.1151,-3.1123,-3.0835,-3.0192,-2.9448,-2.867,-2.7909,-2.7232,-2.6776,-2.6691,-2.6691,-2.6691,-2.6691,-2.6691,-2.6691,-2.6691,-2.6691,-2.6691,-2.6691,-2.6691,-2.6691,-2.6691,-2.6691,-2.6691,-2.6691,-2.6691,-2.6691,-2.6691,-2.6691,-2.6691,-2.6691,-2.6691,-2.6691,-2.6691,-2.6691,-2.6691,-2.6691,-2.6691,-2.6691,-2.6691,-2.6691,-2.6691,-2.6691,-2.6691,-2.6691,-2.6691,-2.6691,-2.6691,-2.6691,-2.6691,-2.6877,-2.8416,-2.9011,-2.9231,-3.4568,-3.4252,-3.374,-3.3181,-3.267,-3.2103,-3.1516,-3.1402,-3.1402,-3.136,-3.1302,-3.1302,-3.1302,-3.1347,-3.1377,-3.1377,-3.1437,-3.1482,-3.1482,-3.1482,-3.1482,-3.1482,-3.1482,-3.1482,-3.1482,-3.1482,-3.1482,-3.1482,-3.1422,-3.1377,-3.1377,-3.0746,-3.0417,-3.0387,-2.9774,-2.916,-2.8607,-2.8532,-2.8143,-2.7625,-2.7625,-2.7625,-2.7625,-2.7625,-2.7625,-2.7625,-2.7775,-2.7825,-2.7925,-2.8591,-2.912,-2.9605,-3.006,-3.0248,-3.0316,-3.0749,-3.0871,-3.0871,-3.0871,-3.0952,-3.0975,-3.1015,-3.1112,-3.1004,-3.0277,-2.9583,-2.8839,-2.7994,-2.7283,-2.6776,-2.6708,-2.6691,-2.6691,-2.6691,-2.6691,-2.6691,-2.6691,-2.6691,-2.6691,-2.6691,-2.6691,-2.6691,-2.6691,-2.6691,-2.6691,-2.6691,-2.6691,-2.6691,-2.6691,-2.6691,-2.6691,-2.6691,-2.6691,-2.6691,-2.6691,-2.6691,-2.6691,-2.6691,-2.6691,-2.6691,-2.6691,-2.6691,-2.6691,-2.6691,-2.6691,-2.6691,-2.6691,-2.6691,-2.6691,-2.6691,-2.6691,-2.6691,-2.6877,-2.8416,-2.9011,-2.9231,-3.3127,-3.2793,-3.2417,-3.2257,-3.1835,-3.1268,-3.0714,-3.0624,-3.0479,-3.0053,-2.9998,-2.9998,-2.9998,-3.0432,-3.0731,-3.0731,-3.1225,-3.1482,-3.1482,-3.1482,-3.1482,-3.1482,-3.1482,-3.1482,-3.1482,-3.1482,-3.1482,-3.1482,-3.0986,-3.0731,-3.0717,-3.0073,-2.9789,-2.9759,-2.9101,-2.8742,-2.8562,-2.8023,-2.7709,-2.7625,-2.7625,-2.7625,-2.7625,-2.7625,-2.7625,-2.766,-2.8027,-2.8207,-2.8352,-2.9241,-2.9617,-2.981,-3.03,-3.0426,-3.0443,-3.0568,-3.0609,-3.0609,-3.0692,-3.0831,-3.0935,-3.0975,-3.1112,-3.1004,-3.0277,-2.9989,-2.9482,-2.806,-2.7654,-2.7402,-2.681,-2.6691,-2.6691,-2.6691,-2.6691,-2.6691,-2.6691,-2.6691,-2.6691,-2.6691,-2.6691,-2.6691,-2.6691,-2.6691,-2.6691,-2.6691,-2.6691,-2.6691,-2.6691,-2.6691,-2.6691,-2.6691,-2.6691,-2.6691,-2.6691,-2.6691,-2.6691,-2.6691,-2.6691,-2.6691,-2.6691,-2.6691,-2.6691,-2.6691,-2.6691,-2.6691,-2.6691,-2.6691,-2.6691,-2.6691,-2.6691,-2.6691,-2.6877,-2.8416,-2.9011,-2.9231,-3.199,-3.1582,-3.1242,-3.1242,-3.0795,-3.0351,-3.0053,-3.0,-2.991,-2.9633,-2.9579,-2.9579,-2.9579,-2.9864,-3.0058,-3.0058,-3.0387,-3.0597,-3.0597,-3.0597,-3.0597,-3.0597,-3.0597,-3.0597,-3.0597,-3.0597,-3.0746,-3.1046,-3.0387,-3.0058,-3.0058,-2.9415,-2.9116,-2.9086,-2.8412,-2.8113,-2.8083,-2.7775,-2.7625,-2.7625,-2.7625,-2.7625,-2.7625,-2.7625,-2.7625,-2.766,-2.811,-2.8432,-2.8779,-2.9303,-2.9617,-2.9881,-3.0342,-3.0526,-3.0526,-3.0526,-3.0526,-3.0526,-3.0651,-3.079,-3.0912,-3.0975,-3.1112,-3.0903,-2.982,-2.9583,-2.9144,-2.7604,-2.7283,-2.7165,-2.6776,-2.6691,-2.6691,-2.6691,-2.6691,-2.6691,-2.6691,-2.6691,-2.6691,-2.6691,-2.6691,-2.6691,-2.6691,-2.6691,-2.6691,-2.6691,-2.6691,-2.6691,-2.6691,-2.6691,-2.6691,-2.6691,-2.6691,-2.6691,-2.6691,-2.6691,-2.6691,-2.6691,-2.6691,-2.6691,-2.6691,-2.6691,-2.6691,-2.6691,-2.6691,-2.6691,-2.6691,-2.6691,-2.6691,-2.6691,-2.6691,-2.6691,-2.6877,-2.8416,-2.9468,-3.0142,-3.0847,-3.042,-2.9981,-2.9981,-2.9561,-2.9235,-2.9235,-2.9235,-2.9235,-2.9235,-2.9235,-2.9235,-2.9235,-2.934,-2.946,-2.9564,-2.9579,-2.9579,-2.9579,-2.9579,-2.9579,-2.9579,-2.9579,-2.9579,-2.9579,-2.9475,-2.9729,-3.0342,-2.9729,-2.9415,-2.94,-2.8727,-2.8427,-2.8397,-2.7829,-2.7625,-2.7625,-2.7625,-2.7625,-2.7625,-2.7625,-2.7625,-2.7625,-2.7625,-2.7625,-2.766,-2.8255,-2.8826,-2.9348,-2.9348,-2.9617,-2.9984,-3.0384,-3.0526,-3.0526,-3.0526,-3.0526,-3.051,-3.0651,-3.0773,-3.0871,-3.0935,-3.1072,-3.0796,-2.9428,-2.9022,-2.8535,-2.7012,-2.6691,-2.6708,-2.6691,-2.6691,-2.6691,-2.6691,-2.6691,-2.6691,-2.6691,-2.6691,-2.6691,-2.6691,-2.6691,-2.6691,-2.6691,-2.6691,-2.6691,-2.6691,-2.6691,-2.6691,-2.6691,-2.6691,-2.6691,-2.6691,-2.6691,-2.6691,-2.6691,-2.6691,-2.6691,-2.6691,-2.6691,-2.6691,-2.6691,-2.6691,-2.6691,-2.6691,-2.6691,-2.6691,-2.6691,-2.6691,-2.6691,-2.6691,-2.6691,-2.6691,-2.6877,-2.8416,-2.9922,-3.119,-2.9633,-2.8998,-2.8385,-2.8286,-2.7931,-2.772,-2.772,-2.772,-2.7757,-2.7844,-2.7895,-2.7895,-2.7895,-2.8382,-2.8966,-2.9535,-2.9579,-2.9579,-2.9579,-2.9579,-2.9579,-2.9579,-2.9579,-2.9579,-2.9579,-2.9026,-2.9056,-2.9699,-2.9056,-2.8742,-2.8727,-2.8038,-2.776,-2.7709,-2.767,-2.7625,-2.7625,-2.7625,-2.7625,-2.7625,-2.7625,-2.7625,-2.7625,-2.7625,-2.7625,-2.771,-2.8654,-2.9572,-3.03,-3.03,-3.0342,-3.0426,-3.0468,-3.0526,-3.0526,-3.0526,-3.0526,-3.051,-3.0526,-3.0609,-3.0733,-3.0733,-3.0814,-3.0734,-2.9822,-2.919,-2.8426,-2.7012,-2.6657,-2.6623,-2.6691,-2.6691,-2.6691,-2.6691,-2.6691,-2.6691,-2.6691,-2.6691,-2.6691,-2.6691,-2.6691,-2.6691,-2.6691,-2.6691,-2.6691,-2.6691,-2.6691,-2.6691,-2.6691,-2.6691,-2.6691,-2.6691,-2.6691,-2.6691,-2.6691,-2.6691,-2.6691,-2.6691,-2.6691,-2.6691,-2.6691,-2.6691,-2.6691,-2.6691,-2.6691,-2.6691,-2.6691,-2.6691,-2.6691,-2.6691,-2.6691,-2.6691,-2.6877,-2.8416,-2.9922,-3.119,-2.8654,-2.824,-2.7879,-2.7595,-2.7372,-2.7284,-2.7401,-2.7713,-2.7854,-2.7619,-2.7904,-2.7993,-2.767,-2.7844,-2.8143,-2.8442,-2.8457,-2.8457,-2.8457,-2.8457,-2.8457,-2.8457,-2.8457,-2.8457,-2.8457,-2.8173,-2.8173,-2.8457,-2.8173,-2.8023,-2.8008,-2.776,-2.7625,-2.7625,-2.7625,-2.7625,-2.7625,-2.7625,-2.7625,-2.7625,-2.7625,-2.7625,-2.7625,-2.7625,-2.776,-2.8076,-2.8842,-2.9528,-3.0113,-3.0113,-3.0113,-3.0156,-3.0426,-3.0526,-3.0526,-3.0526,-3.0526,-3.0526,-3.0609,-3.0651,-3.0733,-3.0773,-3.0871,-3.0711,-2.99,-2.9142,-2.836,-2.7343,-2.6841,-2.6606,-2.6623,-2.6674,-2.6691,-2.6691,-2.6691,-2.6691,-2.6691,-2.6691,-2.6691,-2.6691,-2.6691,-2.6691,-2.6691,-2.6691,-2.6691,-2.6691,-2.6691,-2.6691,-2.6691,-2.6691,-2.6691,-2.6691,-2.6691,-2.6691,-2.6691,-2.6691,-2.6691,-2.6691,-2.6691,-2.6691,-2.6691,-2.6691,-2.6691,-2.6691,-2.6691,-2.6691,-2.6691,-2.6691,-2.6691,-2.6691,-2.6691,-2.7215,-2.8112,-2.9211,-3.0294,-3.119]}]]